<?xml version="1.0" encoding="UTF-8" standalone="no" ?>
<gpx xmlns="http://www.topografix.com/GPX/1/1" xmlns:xsi="http://www.w3.org/2001/XMLSchema-instance" xsi:schemaLocation="http://www.topografix.com/GPX/1/1 http://www.topografix.com/GPX/1/1/gpx.xsd" version="1.1" creator="VisuGPX - https://www.visugpx.com">
  <metadata>
    <name>A/R fort du Paillet</name>
  </metadata>
  <trk>
    <name><![CDATA[2022 08 11 A/R fort du Paillet]]></name>
    <trkseg>
      <trkpt lat="45.83353" lon="4.70998">
        <ele>305.28325</ele>
        <time>2022-08-11T14:44:12.776Z</time>
      </trkpt>
      <trkpt lat="45.83354" lon="4.71002">
        <ele>305.23635</ele>
        <time>2022-08-11T14:44:13.776Z</time>
      </trkpt>
      <trkpt lat="45.8336" lon="4.70996">
        <ele>305.34855</ele>
        <time>2022-08-11T14:44:14.000Z</time>
      </trkpt>
      <trkpt lat="45.8336" lon="4.70998">
        <ele>305.30799</ele>
        <time>2022-08-11T14:44:17.000Z</time>
      </trkpt>
      <trkpt lat="45.83357" lon="4.71">
        <ele>305.26922</ele>
        <time>2022-08-11T14:44:21.000Z</time>
      </trkpt>
      <trkpt lat="45.83355" lon="4.71001">
        <ele>305.24868</ele>
        <time>2022-08-11T14:44:22.000Z</time>
      </trkpt>
      <trkpt lat="45.83353" lon="4.71002">
        <ele>305.2248</ele>
        <time>2022-08-11T14:44:23.000Z</time>
      </trkpt>
      <trkpt lat="45.83356" lon="4.71001">
        <ele>305.24501</ele>
        <time>2022-08-11T14:44:35.000Z</time>
      </trkpt>
      <trkpt lat="45.8336" lon="4.71001">
        <ele>305.26782</ele>
        <time>2022-08-11T14:44:37.000Z</time>
      </trkpt>
      <trkpt lat="45.83363" lon="4.71002">
        <ele>305.25961</ele>
        <time>2022-08-11T14:44:38.000Z</time>
      </trkpt>
      <trkpt lat="45.83365" lon="4.70999">
        <ele>305.312</ele>
        <time>2022-08-11T14:44:39.000Z</time>
      </trkpt>
      <trkpt lat="45.83368" lon="4.70999">
        <ele>305.31185</ele>
        <time>2022-08-11T14:44:40.000Z</time>
      </trkpt>
      <trkpt lat="45.83371" lon="4.70997">
        <ele>305.33135</ele>
        <time>2022-08-11T14:44:41.000Z</time>
      </trkpt>
      <trkpt lat="45.83375" lon="4.70996">
        <ele>305.33003</ele>
        <time>2022-08-11T14:44:42.000Z</time>
      </trkpt>
      <trkpt lat="45.83377" lon="4.70994">
        <ele>305.3431</ele>
        <time>2022-08-11T14:44:43.000Z</time>
      </trkpt>
      <trkpt lat="45.83382" lon="4.70995">
        <ele>305.26499</ele>
        <time>2022-08-11T14:44:44.000Z</time>
      </trkpt>
      <trkpt lat="45.83385" lon="4.70994">
        <ele>305.21089</ele>
        <time>2022-08-11T14:44:45.000Z</time>
      </trkpt>
      <trkpt lat="45.83389" lon="4.70993">
        <ele>305.14694</ele>
        <time>2022-08-11T14:44:46.000Z</time>
      </trkpt>
      <trkpt lat="45.83393" lon="4.70993">
        <ele>305.05468</ele>
        <time>2022-08-11T14:44:47.000Z</time>
      </trkpt>
      <trkpt lat="45.83397" lon="4.70993">
        <ele>304.93841</ele>
        <time>2022-08-11T14:44:48.000Z</time>
      </trkpt>
      <trkpt lat="45.834" lon="4.70993">
        <ele>304.80088</ele>
        <time>2022-08-11T14:44:49.000Z</time>
      </trkpt>
      <trkpt lat="45.83405" lon="4.70993">
        <ele>304.62205</ele>
        <time>2022-08-11T14:44:50.000Z</time>
      </trkpt>
      <trkpt lat="45.83408" lon="4.70992">
        <ele>304.45589</ele>
        <time>2022-08-11T14:44:51.000Z</time>
      </trkpt>
      <trkpt lat="45.83411" lon="4.70992">
        <ele>304.28371</ele>
        <time>2022-08-11T14:44:52.000Z</time>
      </trkpt>
      <trkpt lat="45.83415" lon="4.70992">
        <ele>304.10338</ele>
        <time>2022-08-11T14:44:53.000Z</time>
      </trkpt>
      <trkpt lat="45.83418" lon="4.70992">
        <ele>303.93066</ele>
        <time>2022-08-11T14:44:54.000Z</time>
      </trkpt>
      <trkpt lat="45.83422" lon="4.70991">
        <ele>303.76939</ele>
        <time>2022-08-11T14:44:55.000Z</time>
      </trkpt>
      <trkpt lat="45.83426" lon="4.70991">
        <ele>303.61142</ele>
        <time>2022-08-11T14:44:56.000Z</time>
      </trkpt>
      <trkpt lat="45.83431" lon="4.70991">
        <ele>303.44865</ele>
        <time>2022-08-11T14:44:57.000Z</time>
      </trkpt>
      <trkpt lat="45.83436" lon="4.70993">
        <ele>303.24848</ele>
        <time>2022-08-11T14:44:58.000Z</time>
      </trkpt>
      <trkpt lat="45.83441" lon="4.70993">
        <ele>303.06626</ele>
        <time>2022-08-11T14:44:59.000Z</time>
      </trkpt>
      <trkpt lat="45.83447" lon="4.70993">
        <ele>302.89221</ele>
        <time>2022-08-11T14:45:00.000Z</time>
      </trkpt>
      <trkpt lat="45.83452" lon="4.70994">
        <ele>302.74066</ele>
        <time>2022-08-11T14:45:01.000Z</time>
      </trkpt>
      <trkpt lat="45.83458" lon="4.70992">
        <ele>302.60993</ele>
        <time>2022-08-11T14:45:02.000Z</time>
      </trkpt>
      <trkpt lat="45.83463" lon="4.70993">
        <ele>302.42135</ele>
        <time>2022-08-11T14:45:03.000Z</time>
      </trkpt>
      <trkpt lat="45.83469" lon="4.70993">
        <ele>302.17767</ele>
        <time>2022-08-11T14:45:04.000Z</time>
      </trkpt>
      <trkpt lat="45.83474" lon="4.70994">
        <ele>301.898</ele>
        <time>2022-08-11T14:45:05.000Z</time>
      </trkpt>
      <trkpt lat="45.83479" lon="4.70996">
        <ele>301.60853</ele>
        <time>2022-08-11T14:45:06.000Z</time>
      </trkpt>
      <trkpt lat="45.83485" lon="4.70995">
        <ele>301.3027</ele>
        <time>2022-08-11T14:45:07.000Z</time>
      </trkpt>
      <trkpt lat="45.83491" lon="4.70995">
        <ele>300.95081</ele>
        <time>2022-08-11T14:45:08.000Z</time>
      </trkpt>
      <trkpt lat="45.83496" lon="4.70995">
        <ele>300.59913</ele>
        <time>2022-08-11T14:45:09.000Z</time>
      </trkpt>
      <trkpt lat="45.83501" lon="4.70994">
        <ele>300.23111</ele>
        <time>2022-08-11T14:45:10.000Z</time>
      </trkpt>
      <trkpt lat="45.83512" lon="4.70997">
        <ele>299.53131</ele>
        <time>2022-08-11T14:45:12.000Z</time>
      </trkpt>
      <trkpt lat="45.83517" lon="4.71">
        <ele>299.3495</ele>
        <time>2022-08-11T14:45:13.000Z</time>
      </trkpt>
      <trkpt lat="45.83521" lon="4.71002">
        <ele>299.22078</ele>
        <time>2022-08-11T14:45:14.000Z</time>
      </trkpt>
      <trkpt lat="45.83525" lon="4.71007">
        <ele>299.13898</ele>
        <time>2022-08-11T14:45:15.000Z</time>
      </trkpt>
      <trkpt lat="45.83529" lon="4.71011">
        <ele>299.05283</ele>
        <time>2022-08-11T14:45:16.000Z</time>
      </trkpt>
      <trkpt lat="45.83533" lon="4.71015">
        <ele>298.93547</ele>
        <time>2022-08-11T14:45:17.000Z</time>
      </trkpt>
      <trkpt lat="45.83544" lon="4.71023">
        <ele>298.59554</ele>
        <time>2022-08-11T14:45:19.000Z</time>
      </trkpt>
      <trkpt lat="45.83549" lon="4.71025">
        <ele>298.42304</ele>
        <time>2022-08-11T14:45:20.000Z</time>
      </trkpt>
      <trkpt lat="45.8356" lon="4.71033">
        <ele>298.08196</ele>
        <time>2022-08-11T14:45:22.000Z</time>
      </trkpt>
      <trkpt lat="45.83565" lon="4.71035">
        <ele>298.01774</ele>
        <time>2022-08-11T14:45:23.000Z</time>
      </trkpt>
      <trkpt lat="45.83571" lon="4.71039">
        <ele>297.92717</ele>
        <time>2022-08-11T14:45:24.000Z</time>
      </trkpt>
      <trkpt lat="45.83577" lon="4.71042">
        <ele>297.76488</ele>
        <time>2022-08-11T14:45:25.000Z</time>
      </trkpt>
      <trkpt lat="45.83582" lon="4.71046">
        <ele>297.51457</ele>
        <time>2022-08-11T14:45:26.000Z</time>
      </trkpt>
      <trkpt lat="45.83586" lon="4.71052">
        <ele>297.19934</ele>
        <time>2022-08-11T14:45:27.000Z</time>
      </trkpt>
      <trkpt lat="45.83588" lon="4.71059">
        <ele>296.95052</ele>
        <time>2022-08-11T14:45:28.000Z</time>
      </trkpt>
      <trkpt lat="45.8359" lon="4.71069">
        <ele>296.73274</ele>
        <time>2022-08-11T14:45:29.000Z</time>
      </trkpt>
      <trkpt lat="45.83588" lon="4.71075">
        <ele>296.67761</ele>
        <time>2022-08-11T14:45:30.000Z</time>
      </trkpt>
      <trkpt lat="45.83585" lon="4.71083">
        <ele>296.63763</ele>
        <time>2022-08-11T14:45:31.000Z</time>
      </trkpt>
      <trkpt lat="45.83582" lon="4.7109">
        <ele>296.5567</ele>
        <time>2022-08-11T14:45:32.000Z</time>
      </trkpt>
      <trkpt lat="45.8358" lon="4.71097">
        <ele>296.48188</ele>
        <time>2022-08-11T14:45:33.000Z</time>
      </trkpt>
      <trkpt lat="45.83578" lon="4.71104">
        <ele>296.40364</ele>
        <time>2022-08-11T14:45:34.000Z</time>
      </trkpt>
      <trkpt lat="45.83573" lon="4.71118">
        <ele>296.22961</ele>
        <time>2022-08-11T14:45:36.000Z</time>
      </trkpt>
      <trkpt lat="45.83571" lon="4.71124">
        <ele>296.12758</ele>
        <time>2022-08-11T14:45:37.000Z</time>
      </trkpt>
      <trkpt lat="45.8357" lon="4.71132">
        <ele>295.98718</ele>
        <time>2022-08-11T14:45:38.000Z</time>
      </trkpt>
      <trkpt lat="45.83569" lon="4.71138">
        <ele>295.87104</ele>
        <time>2022-08-11T14:45:39.000Z</time>
      </trkpt>
      <trkpt lat="45.8357" lon="4.71143">
        <ele>295.73644</ele>
        <time>2022-08-11T14:45:40.000Z</time>
      </trkpt>
      <trkpt lat="45.83575" lon="4.71152">
        <ele>295.38893</ele>
        <time>2022-08-11T14:45:42.000Z</time>
      </trkpt>
      <trkpt lat="45.83579" lon="4.71156">
        <ele>295.19182</ele>
        <time>2022-08-11T14:45:43.000Z</time>
      </trkpt>
      <trkpt lat="45.83583" lon="4.7116">
        <ele>295.02674</ele>
        <time>2022-08-11T14:45:44.000Z</time>
      </trkpt>
      <trkpt lat="45.83587" lon="4.71163">
        <ele>294.92058</ele>
        <time>2022-08-11T14:45:45.000Z</time>
      </trkpt>
      <trkpt lat="45.83592" lon="4.71164">
        <ele>294.83064</ele>
        <time>2022-08-11T14:45:46.000Z</time>
      </trkpt>
      <trkpt lat="45.83597" lon="4.71168">
        <ele>294.66797</ele>
        <time>2022-08-11T14:45:47.000Z</time>
      </trkpt>
      <trkpt lat="45.83602" lon="4.71171">
        <ele>294.48317</ele>
        <time>2022-08-11T14:45:48.000Z</time>
      </trkpt>
      <trkpt lat="45.83606" lon="4.71175">
        <ele>294.26789</ele>
        <time>2022-08-11T14:45:49.000Z</time>
      </trkpt>
      <trkpt lat="45.8361" lon="4.71178">
        <ele>294.05919</ele>
        <time>2022-08-11T14:45:50.000Z</time>
      </trkpt>
      <trkpt lat="45.83614" lon="4.7118">
        <ele>293.84623</ele>
        <time>2022-08-11T14:45:51.000Z</time>
      </trkpt>
      <trkpt lat="45.83619" lon="4.71183">
        <ele>293.60606</ele>
        <time>2022-08-11T14:45:52.000Z</time>
      </trkpt>
      <trkpt lat="45.83623" lon="4.71185">
        <ele>293.41151</ele>
        <time>2022-08-11T14:45:53.000Z</time>
      </trkpt>
      <trkpt lat="45.83627" lon="4.71188">
        <ele>293.21398</ele>
        <time>2022-08-11T14:45:54.000Z</time>
      </trkpt>
      <trkpt lat="45.8363" lon="4.7119">
        <ele>293.02064</ele>
        <time>2022-08-11T14:45:55.000Z</time>
      </trkpt>
      <trkpt lat="45.83634" lon="4.71193">
        <ele>292.805</ele>
        <time>2022-08-11T14:45:56.000Z</time>
      </trkpt>
      <trkpt lat="45.83637" lon="4.71195">
        <ele>292.62692</ele>
        <time>2022-08-11T14:45:57.000Z</time>
      </trkpt>
      <trkpt lat="45.8364" lon="4.71195">
        <ele>292.4882</ele>
        <time>2022-08-11T14:45:58.000Z</time>
      </trkpt>
      <trkpt lat="45.83644" lon="4.71198">
        <ele>292.20382</ele>
        <time>2022-08-11T14:46:00.000Z</time>
      </trkpt>
      <trkpt lat="45.83647" lon="4.71199">
        <ele>292.03575</ele>
        <time>2022-08-11T14:46:01.000Z</time>
      </trkpt>
      <trkpt lat="45.8365" lon="4.71197">
        <ele>291.9245</ele>
        <time>2022-08-11T14:46:03.000Z</time>
      </trkpt>
      <trkpt lat="45.83652" lon="4.71197">
        <ele>291.82335</ele>
        <time>2022-08-11T14:46:04.000Z</time>
      </trkpt>
      <trkpt lat="45.83654" lon="4.71198">
        <ele>291.6741</ele>
        <time>2022-08-11T14:46:05.000Z</time>
      </trkpt>
      <trkpt lat="45.83656" lon="4.71199">
        <ele>291.51917</ele>
        <time>2022-08-11T14:46:06.000Z</time>
      </trkpt>
      <trkpt lat="45.83658" lon="4.71202">
        <ele>291.36715</ele>
        <time>2022-08-11T14:46:07.000Z</time>
      </trkpt>
      <trkpt lat="45.83659" lon="4.71203">
        <ele>291.2396</ele>
        <time>2022-08-11T14:46:08.000Z</time>
      </trkpt>
      <trkpt lat="45.83661" lon="4.71206">
        <ele>291.08487</ele>
        <time>2022-08-11T14:46:10.000Z</time>
      </trkpt>
      <trkpt lat="45.83661" lon="4.71208">
        <ele>290.998</ele>
        <time>2022-08-11T14:46:13.000Z</time>
      </trkpt>
      <trkpt lat="45.83663" lon="4.71211">
        <ele>290.86195</ele>
        <time>2022-08-11T14:46:15.000Z</time>
      </trkpt>
      <trkpt lat="45.83666" lon="4.71214">
        <ele>290.63241</ele>
        <time>2022-08-11T14:46:17.000Z</time>
      </trkpt>
      <trkpt lat="45.83668" lon="4.71215">
        <ele>290.5149</ele>
        <time>2022-08-11T14:46:18.000Z</time>
      </trkpt>
      <trkpt lat="45.83671" lon="4.71216">
        <ele>290.41252</ele>
        <time>2022-08-11T14:46:19.000Z</time>
      </trkpt>
      <trkpt lat="45.83675" lon="4.71218">
        <ele>290.23179</ele>
        <time>2022-08-11T14:46:21.000Z</time>
      </trkpt>
      <trkpt lat="45.83676" lon="4.71221">
        <ele>290.12897</ele>
        <time>2022-08-11T14:46:22.000Z</time>
      </trkpt>
      <trkpt lat="45.83676" lon="4.71231">
        <ele>289.91901</ele>
        <time>2022-08-11T14:46:24.000Z</time>
      </trkpt>
      <trkpt lat="45.83675" lon="4.71236">
        <ele>289.82351</ele>
        <time>2022-08-11T14:46:25.000Z</time>
      </trkpt>
      <trkpt lat="45.83672" lon="4.71246">
        <ele>289.72923</ele>
        <time>2022-08-11T14:46:27.000Z</time>
      </trkpt>
      <trkpt lat="45.83671" lon="4.71251">
        <ele>289.71629</ele>
        <time>2022-08-11T14:46:28.000Z</time>
      </trkpt>
      <trkpt lat="45.8367" lon="4.71256">
        <ele>289.71415</ele>
        <time>2022-08-11T14:46:29.000Z</time>
      </trkpt>
      <trkpt lat="45.83669" lon="4.71259">
        <ele>289.74043</ele>
        <time>2022-08-11T14:46:30.000Z</time>
      </trkpt>
      <trkpt lat="45.83668" lon="4.71263">
        <ele>289.75293</ele>
        <time>2022-08-11T14:46:31.000Z</time>
      </trkpt>
      <trkpt lat="45.83667" lon="4.71267">
        <ele>289.76414</ele>
        <time>2022-08-11T14:46:32.000Z</time>
      </trkpt>
      <trkpt lat="45.83666" lon="4.71271">
        <ele>289.76299</ele>
        <time>2022-08-11T14:46:33.000Z</time>
      </trkpt>
      <trkpt lat="45.83665" lon="4.71275">
        <ele>289.7601</ele>
        <time>2022-08-11T14:46:34.000Z</time>
      </trkpt>
      <trkpt lat="45.83665" lon="4.71279">
        <ele>289.76823</ele>
        <time>2022-08-11T14:46:35.000Z</time>
      </trkpt>
      <trkpt lat="45.83664" lon="4.71282">
        <ele>289.78519</ele>
        <time>2022-08-11T14:46:36.000Z</time>
      </trkpt>
      <trkpt lat="45.83663" lon="4.71286">
        <ele>289.79433</ele>
        <time>2022-08-11T14:46:37.000Z</time>
      </trkpt>
      <trkpt lat="45.83663" lon="4.71289">
        <ele>289.80009</ele>
        <time>2022-08-11T14:46:38.000Z</time>
      </trkpt>
      <trkpt lat="45.83662" lon="4.71292">
        <ele>289.82069</ele>
        <time>2022-08-11T14:46:39.000Z</time>
      </trkpt>
      <trkpt lat="45.83661" lon="4.71296">
        <ele>289.83773</ele>
        <time>2022-08-11T14:46:40.000Z</time>
      </trkpt>
      <trkpt lat="45.8366" lon="4.71299">
        <ele>289.86457</ele>
        <time>2022-08-11T14:46:41.000Z</time>
      </trkpt>
      <trkpt lat="45.83659" lon="4.71302">
        <ele>289.88609</ele>
        <time>2022-08-11T14:46:42.000Z</time>
      </trkpt>
      <trkpt lat="45.83658" lon="4.71308">
        <ele>289.91306</ele>
        <time>2022-08-11T14:46:44.000Z</time>
      </trkpt>
      <trkpt lat="45.83657" lon="4.71312">
        <ele>289.901</ele>
        <time>2022-08-11T14:46:45.000Z</time>
      </trkpt>
      <trkpt lat="45.83656" lon="4.71317">
        <ele>289.88971</ele>
        <time>2022-08-11T14:46:46.000Z</time>
      </trkpt>
      <trkpt lat="45.83656" lon="4.71321">
        <ele>289.86178</ele>
        <time>2022-08-11T14:46:47.000Z</time>
      </trkpt>
      <trkpt lat="45.83655" lon="4.71325">
        <ele>289.83818</ele>
        <time>2022-08-11T14:46:48.000Z</time>
      </trkpt>
      <trkpt lat="45.83654" lon="4.7133">
        <ele>289.79464</ele>
        <time>2022-08-11T14:46:49.000Z</time>
      </trkpt>
      <trkpt lat="45.83653" lon="4.71334">
        <ele>289.74485</ele>
        <time>2022-08-11T14:46:50.000Z</time>
      </trkpt>
      <trkpt lat="45.83651" lon="4.71338">
        <ele>289.6895</ele>
        <time>2022-08-11T14:46:51.000Z</time>
      </trkpt>
      <trkpt lat="45.8365" lon="4.71343">
        <ele>289.62556</ele>
        <time>2022-08-11T14:46:52.000Z</time>
      </trkpt>
      <trkpt lat="45.83649" lon="4.71347">
        <ele>289.55428</ele>
        <time>2022-08-11T14:46:53.000Z</time>
      </trkpt>
      <trkpt lat="45.83648" lon="4.71351">
        <ele>289.4983</ele>
        <time>2022-08-11T14:46:54.000Z</time>
      </trkpt>
      <trkpt lat="45.83647" lon="4.71354">
        <ele>289.45626</ele>
        <time>2022-08-11T14:46:55.000Z</time>
      </trkpt>
      <trkpt lat="45.83647" lon="4.71358">
        <ele>289.42423</ele>
        <time>2022-08-11T14:46:56.000Z</time>
      </trkpt>
      <trkpt lat="45.83646" lon="4.71362">
        <ele>289.40375</ele>
        <time>2022-08-11T14:46:57.000Z</time>
      </trkpt>
      <trkpt lat="45.83646" lon="4.71367">
        <ele>289.37757</ele>
        <time>2022-08-11T14:46:58.000Z</time>
      </trkpt>
      <trkpt lat="45.83646" lon="4.71372">
        <ele>289.35956</ele>
        <time>2022-08-11T14:46:59.000Z</time>
      </trkpt>
      <trkpt lat="45.83646" lon="4.71377">
        <ele>289.35583</ele>
        <time>2022-08-11T14:47:00.000Z</time>
      </trkpt>
      <trkpt lat="45.83645" lon="4.71382">
        <ele>289.36254</ele>
        <time>2022-08-11T14:47:01.000Z</time>
      </trkpt>
      <trkpt lat="45.83644" lon="4.71387">
        <ele>289.37206</ele>
        <time>2022-08-11T14:47:02.000Z</time>
      </trkpt>
      <trkpt lat="45.83644" lon="4.71392">
        <ele>289.37453</ele>
        <time>2022-08-11T14:47:03.000Z</time>
      </trkpt>
      <trkpt lat="45.83643" lon="4.71396">
        <ele>289.38282</ele>
        <time>2022-08-11T14:47:04.000Z</time>
      </trkpt>
      <trkpt lat="45.83642" lon="4.71401">
        <ele>289.38402</ele>
        <time>2022-08-11T14:47:05.000Z</time>
      </trkpt>
      <trkpt lat="45.8364" lon="4.71408">
        <ele>289.36662</ele>
        <time>2022-08-11T14:47:06.000Z</time>
      </trkpt>
      <trkpt lat="45.83639" lon="4.71415">
        <ele>289.34748</ele>
        <time>2022-08-11T14:47:07.000Z</time>
      </trkpt>
      <trkpt lat="45.83638" lon="4.71421">
        <ele>289.32891</ele>
        <time>2022-08-11T14:47:08.000Z</time>
      </trkpt>
      <trkpt lat="45.83637" lon="4.71427">
        <ele>289.31383</ele>
        <time>2022-08-11T14:47:09.000Z</time>
      </trkpt>
      <trkpt lat="45.83636" lon="4.71432">
        <ele>289.29285</ele>
        <time>2022-08-11T14:47:10.000Z</time>
      </trkpt>
      <trkpt lat="45.83635" lon="4.71437">
        <ele>289.27664</ele>
        <time>2022-08-11T14:47:11.000Z</time>
      </trkpt>
      <trkpt lat="45.83633" lon="4.71442">
        <ele>289.27088</ele>
        <time>2022-08-11T14:47:12.000Z</time>
      </trkpt>
      <trkpt lat="45.83632" lon="4.71447">
        <ele>289.27377</ele>
        <time>2022-08-11T14:47:13.000Z</time>
      </trkpt>
      <trkpt lat="45.83631" lon="4.71452">
        <ele>289.28213</ele>
        <time>2022-08-11T14:47:14.000Z</time>
      </trkpt>
      <trkpt lat="45.8363" lon="4.71456">
        <ele>289.29477</ele>
        <time>2022-08-11T14:47:15.000Z</time>
      </trkpt>
      <trkpt lat="45.83628" lon="4.71461">
        <ele>289.30305</ele>
        <time>2022-08-11T14:47:16.000Z</time>
      </trkpt>
      <trkpt lat="45.83627" lon="4.71466">
        <ele>289.31515</ele>
        <time>2022-08-11T14:47:17.000Z</time>
      </trkpt>
      <trkpt lat="45.83626" lon="4.7147">
        <ele>289.33159</ele>
        <time>2022-08-11T14:47:18.000Z</time>
      </trkpt>
      <trkpt lat="45.83624" lon="4.71474">
        <ele>289.3509</ele>
        <time>2022-08-11T14:47:19.000Z</time>
      </trkpt>
      <trkpt lat="45.83622" lon="4.71478">
        <ele>289.36226</ele>
        <time>2022-08-11T14:47:20.000Z</time>
      </trkpt>
      <trkpt lat="45.8362" lon="4.71482">
        <ele>289.35592</ele>
        <time>2022-08-11T14:47:21.000Z</time>
      </trkpt>
      <trkpt lat="45.83618" lon="4.71485">
        <ele>289.33848</ele>
        <time>2022-08-11T14:47:22.000Z</time>
      </trkpt>
      <trkpt lat="45.83616" lon="4.71488">
        <ele>289.32865</ele>
        <time>2022-08-11T14:47:23.000Z</time>
      </trkpt>
      <trkpt lat="45.83613" lon="4.7149">
        <ele>289.32187</ele>
        <time>2022-08-11T14:47:24.000Z</time>
      </trkpt>
      <trkpt lat="45.83611" lon="4.71492">
        <ele>289.31344</ele>
        <time>2022-08-11T14:47:25.000Z</time>
      </trkpt>
      <trkpt lat="45.83608" lon="4.71494">
        <ele>289.2812</ele>
        <time>2022-08-11T14:47:26.000Z</time>
      </trkpt>
      <trkpt lat="45.83606" lon="4.71497">
        <ele>289.19772</ele>
        <time>2022-08-11T14:47:27.000Z</time>
      </trkpt>
      <trkpt lat="45.83605" lon="4.71501">
        <ele>288.99782</ele>
        <time>2022-08-11T14:47:29.000Z</time>
      </trkpt>
      <trkpt lat="45.83605" lon="4.71505">
        <ele>288.75712</ele>
        <time>2022-08-11T14:47:31.000Z</time>
      </trkpt>
      <trkpt lat="45.83607" lon="4.7151">
        <ele>288.39671</ele>
        <time>2022-08-11T14:47:33.000Z</time>
      </trkpt>
      <trkpt lat="45.83608" lon="4.71513">
        <ele>288.20515</ele>
        <time>2022-08-11T14:47:34.000Z</time>
      </trkpt>
      <trkpt lat="45.8361" lon="4.71515">
        <ele>288.01898</ele>
        <time>2022-08-11T14:47:35.000Z</time>
      </trkpt>
      <trkpt lat="45.83611" lon="4.71518">
        <ele>287.85716</ele>
        <time>2022-08-11T14:47:36.000Z</time>
      </trkpt>
      <trkpt lat="45.83612" lon="4.71521">
        <ele>287.70543</ele>
        <time>2022-08-11T14:47:37.000Z</time>
      </trkpt>
      <trkpt lat="45.83613" lon="4.71523">
        <ele>287.5527</ele>
        <time>2022-08-11T14:47:38.000Z</time>
      </trkpt>
      <trkpt lat="45.83614" lon="4.71526">
        <ele>287.40377</ele>
        <time>2022-08-11T14:47:39.000Z</time>
      </trkpt>
      <trkpt lat="45.83616" lon="4.71529">
        <ele>287.26765</ele>
        <time>2022-08-11T14:47:40.000Z</time>
      </trkpt>
      <trkpt lat="45.83617" lon="4.71531">
        <ele>287.16343</ele>
        <time>2022-08-11T14:47:41.000Z</time>
      </trkpt>
      <trkpt lat="45.83618" lon="4.71533">
        <ele>287.07752</ele>
        <time>2022-08-11T14:47:43.000Z</time>
      </trkpt>
      <trkpt lat="45.83619" lon="4.71531">
        <ele>287.25267</ele>
        <time>2022-08-11T14:47:48.000Z</time>
      </trkpt>
      <trkpt lat="45.83619" lon="4.71533">
        <ele>287.10832</ele>
        <time>2022-08-11T14:47:53.000Z</time>
      </trkpt>
      <trkpt lat="45.8362" lon="4.71541">
        <ele>286.64317</ele>
        <time>2022-08-11T14:47:56.000Z</time>
      </trkpt>
      <trkpt lat="45.83619" lon="4.71545">
        <ele>286.25777</ele>
        <time>2022-08-11T14:47:58.000Z</time>
      </trkpt>
      <trkpt lat="45.83618" lon="4.71548">
        <ele>285.98142</ele>
        <time>2022-08-11T14:48:00.000Z</time>
      </trkpt>
      <trkpt lat="45.83618" lon="4.71552">
        <ele>285.64922</ele>
        <time>2022-08-11T14:48:02.000Z</time>
      </trkpt>
      <trkpt lat="45.83619" lon="4.71556">
        <ele>285.28526</ele>
        <time>2022-08-11T14:48:04.000Z</time>
      </trkpt>
      <trkpt lat="45.83619" lon="4.7156">
        <ele>284.8711</ele>
        <time>2022-08-11T14:48:06.000Z</time>
      </trkpt>
      <trkpt lat="45.83618" lon="4.71563">
        <ele>284.43364</ele>
        <time>2022-08-11T14:48:08.000Z</time>
      </trkpt>
      <trkpt lat="45.83618" lon="4.71567">
        <ele>283.88049</ele>
        <time>2022-08-11T14:48:10.000Z</time>
      </trkpt>
      <trkpt lat="45.83617" lon="4.71571">
        <ele>283.31106</ele>
        <time>2022-08-11T14:48:12.000Z</time>
      </trkpt>
      <trkpt lat="45.83617" lon="4.71574">
        <ele>282.9668</ele>
        <time>2022-08-11T14:48:13.000Z</time>
      </trkpt>
      <trkpt lat="45.83617" lon="4.71577">
        <ele>282.58168</ele>
        <time>2022-08-11T14:48:14.000Z</time>
      </trkpt>
      <trkpt lat="45.83617" lon="4.71579">
        <ele>282.24408</ele>
        <time>2022-08-11T14:48:15.000Z</time>
      </trkpt>
      <trkpt lat="45.83618" lon="4.71583">
        <ele>281.87879</ele>
        <time>2022-08-11T14:48:16.000Z</time>
      </trkpt>
      <trkpt lat="45.83618" lon="4.71586">
        <ele>281.46111</ele>
        <time>2022-08-11T14:48:17.000Z</time>
      </trkpt>
      <trkpt lat="45.83619" lon="4.71589">
        <ele>281.05286</ele>
        <time>2022-08-11T14:48:18.000Z</time>
      </trkpt>
      <trkpt lat="45.83619" lon="4.71592">
        <ele>280.5946</ele>
        <time>2022-08-11T14:48:21.000Z</time>
      </trkpt>
      <trkpt lat="45.83618" lon="4.71594">
        <ele>280.05785</ele>
        <time>2022-08-11T14:49:05.000Z</time>
      </trkpt>
      <trkpt lat="45.83616" lon="4.71597">
        <ele>279.2785</ele>
        <time>2022-08-11T14:49:08.000Z</time>
      </trkpt>
      <trkpt lat="45.83617" lon="4.716">
        <ele>278.76938</ele>
        <time>2022-08-11T14:49:11.000Z</time>
      </trkpt>
      <trkpt lat="45.83618" lon="4.71603">
        <ele>278.51795</ele>
        <time>2022-08-11T14:49:13.000Z</time>
      </trkpt>
      <trkpt lat="45.8362" lon="4.71607">
        <ele>278.13411</ele>
        <time>2022-08-11T14:49:16.000Z</time>
      </trkpt>
      <trkpt lat="45.83619" lon="4.7161">
        <ele>277.39022</ele>
        <time>2022-08-11T14:49:20.000Z</time>
      </trkpt>
      <trkpt lat="45.8362" lon="4.71614">
        <ele>276.95045</ele>
        <time>2022-08-11T14:49:22.000Z</time>
      </trkpt>
      <trkpt lat="45.83621" lon="4.71617">
        <ele>276.35738</ele>
        <time>2022-08-11T14:49:28.000Z</time>
      </trkpt>
      <trkpt lat="45.83622" lon="4.7162">
        <ele>275.80623</ele>
        <time>2022-08-11T14:49:30.000Z</time>
      </trkpt>
      <trkpt lat="45.83622" lon="4.71622">
        <ele>275.28442</ele>
        <time>2022-08-11T14:49:38.000Z</time>
      </trkpt>
      <trkpt lat="45.83624" lon="4.71626">
        <ele>274.60662</ele>
        <time>2022-08-11T14:49:40.000Z</time>
      </trkpt>
      <trkpt lat="45.83625" lon="4.71629">
        <ele>273.98957</ele>
        <time>2022-08-11T14:49:42.000Z</time>
      </trkpt>
      <trkpt lat="45.83627" lon="4.71633">
        <ele>273.40789</ele>
        <time>2022-08-11T14:49:44.000Z</time>
      </trkpt>
      <trkpt lat="45.83629" lon="4.71636">
        <ele>272.97517</ele>
        <time>2022-08-11T14:49:46.000Z</time>
      </trkpt>
      <trkpt lat="45.83632" lon="4.7164">
        <ele>272.27775</ele>
        <time>2022-08-11T14:49:49.000Z</time>
      </trkpt>
      <trkpt lat="45.83635" lon="4.71643">
        <ele>271.70602</ele>
        <time>2022-08-11T14:49:51.000Z</time>
      </trkpt>
      <trkpt lat="45.83637" lon="4.71645">
        <ele>271.28903</ele>
        <time>2022-08-11T14:49:53.000Z</time>
      </trkpt>
      <trkpt lat="45.8364" lon="4.71647">
        <ele>270.72425</ele>
        <time>2022-08-11T14:49:55.000Z</time>
      </trkpt>
      <trkpt lat="45.83642" lon="4.71648">
        <ele>270.4819</ele>
        <time>2022-08-11T14:49:56.000Z</time>
      </trkpt>
      <trkpt lat="45.83644" lon="4.71649">
        <ele>270.10122</ele>
        <time>2022-08-11T14:49:57.000Z</time>
      </trkpt>
      <trkpt lat="45.83646" lon="4.7165">
        <ele>269.81785</ele>
        <time>2022-08-11T14:49:58.000Z</time>
      </trkpt>
      <trkpt lat="45.83648" lon="4.71651">
        <ele>269.45265</ele>
        <time>2022-08-11T14:49:59.000Z</time>
      </trkpt>
      <trkpt lat="45.83651" lon="4.71652">
        <ele>269.04408</ele>
        <time>2022-08-11T14:50:00.000Z</time>
      </trkpt>
      <trkpt lat="45.83653" lon="4.71653">
        <ele>268.60352</ele>
        <time>2022-08-11T14:50:01.000Z</time>
      </trkpt>
      <trkpt lat="45.83655" lon="4.71653">
        <ele>268.15724</ele>
        <time>2022-08-11T14:50:02.000Z</time>
      </trkpt>
      <trkpt lat="45.8366" lon="4.71654">
        <ele>267.7036</ele>
        <time>2022-08-11T14:50:04.000Z</time>
      </trkpt>
      <trkpt lat="45.83663" lon="4.71653">
        <ele>267.60761</ele>
        <time>2022-08-11T14:50:05.000Z</time>
      </trkpt>
      <trkpt lat="45.83665" lon="4.71653">
        <ele>267.56793</ele>
        <time>2022-08-11T14:50:06.000Z</time>
      </trkpt>
      <trkpt lat="45.83668" lon="4.71652">
        <ele>267.45463</ele>
        <time>2022-08-11T14:50:08.000Z</time>
      </trkpt>
      <trkpt lat="45.83671" lon="4.71651">
        <ele>267.28777</ele>
        <time>2022-08-11T14:50:10.000Z</time>
      </trkpt>
      <trkpt lat="45.83675" lon="4.7165">
        <ele>266.85402</ele>
        <time>2022-08-11T14:50:13.000Z</time>
      </trkpt>
      <trkpt lat="45.83677" lon="4.71651">
        <ele>266.31279</ele>
        <time>2022-08-11T14:50:15.000Z</time>
      </trkpt>
      <trkpt lat="45.8368" lon="4.71651">
        <ele>265.75517</ele>
        <time>2022-08-11T14:50:17.000Z</time>
      </trkpt>
      <trkpt lat="45.83683" lon="4.71651">
        <ele>265.16032</ele>
        <time>2022-08-11T14:50:19.000Z</time>
      </trkpt>
      <trkpt lat="45.83687" lon="4.71652">
        <ele>264.07995</ele>
        <time>2022-08-11T14:50:21.000Z</time>
      </trkpt>
      <trkpt lat="45.8369" lon="4.71653">
        <ele>263.02334</ele>
        <time>2022-08-11T14:50:22.000Z</time>
      </trkpt>
      <trkpt lat="45.83693" lon="4.71655">
        <ele>261.75641</ele>
        <time>2022-08-11T14:50:23.000Z</time>
      </trkpt>
      <trkpt lat="45.83696" lon="4.71658">
        <ele>260.41534</ele>
        <time>2022-08-11T14:50:24.000Z</time>
      </trkpt>
      <trkpt lat="45.83699" lon="4.71662">
        <ele>259.23549</ele>
        <time>2022-08-11T14:50:25.000Z</time>
      </trkpt>
      <trkpt lat="45.83701" lon="4.71665">
        <ele>258.34482</ele>
        <time>2022-08-11T14:50:26.000Z</time>
      </trkpt>
      <trkpt lat="45.83703" lon="4.71668">
        <ele>257.68059</ele>
        <time>2022-08-11T14:50:27.000Z</time>
      </trkpt>
      <trkpt lat="45.83705" lon="4.71672">
        <ele>257.10944</ele>
        <time>2022-08-11T14:50:28.000Z</time>
      </trkpt>
      <trkpt lat="45.83708" lon="4.71676">
        <ele>256.70616</ele>
        <time>2022-08-11T14:50:29.000Z</time>
      </trkpt>
      <trkpt lat="45.83711" lon="4.71679">
        <ele>256.53517</ele>
        <time>2022-08-11T14:50:30.000Z</time>
      </trkpt>
      <trkpt lat="45.83713" lon="4.71683">
        <ele>256.54782</ele>
        <time>2022-08-11T14:50:31.000Z</time>
      </trkpt>
      <trkpt lat="45.83715" lon="4.71686">
        <ele>256.73554</ele>
        <time>2022-08-11T14:50:32.000Z</time>
      </trkpt>
      <trkpt lat="45.83716" lon="4.71689">
        <ele>256.95312</ele>
        <time>2022-08-11T14:50:34.000Z</time>
      </trkpt>
      <trkpt lat="45.83718" lon="4.71692">
        <ele>257.34092</ele>
        <time>2022-08-11T14:50:37.000Z</time>
      </trkpt>
      <trkpt lat="45.83718" lon="4.71695">
        <ele>257.74498</ele>
        <time>2022-08-11T14:50:40.000Z</time>
      </trkpt>
      <trkpt lat="45.83718" lon="4.71699">
        <ele>258.24006</ele>
        <time>2022-08-11T14:50:42.000Z</time>
      </trkpt>
      <trkpt lat="45.83716" lon="4.71703">
        <ele>258.73747</ele>
        <time>2022-08-11T14:50:44.000Z</time>
      </trkpt>
      <trkpt lat="45.83715" lon="4.71705">
        <ele>258.95603</ele>
        <time>2022-08-11T14:50:45.000Z</time>
      </trkpt>
      <trkpt lat="45.83714" lon="4.71707">
        <ele>259.21315</ele>
        <time>2022-08-11T14:50:46.000Z</time>
      </trkpt>
      <trkpt lat="45.83712" lon="4.71709">
        <ele>259.43093</ele>
        <time>2022-08-11T14:50:47.000Z</time>
      </trkpt>
      <trkpt lat="45.8371" lon="4.71713">
        <ele>259.79296</ele>
        <time>2022-08-11T14:50:48.000Z</time>
      </trkpt>
      <trkpt lat="45.83707" lon="4.71717">
        <ele>260.20395</ele>
        <time>2022-08-11T14:50:49.000Z</time>
      </trkpt>
      <trkpt lat="45.83705" lon="4.71721">
        <ele>260.67205</ele>
        <time>2022-08-11T14:50:50.000Z</time>
      </trkpt>
      <trkpt lat="45.83702" lon="4.71724">
        <ele>261.11112</ele>
        <time>2022-08-11T14:50:51.000Z</time>
      </trkpt>
      <trkpt lat="45.83695" lon="4.71731">
        <ele>261.59085</ele>
        <time>2022-08-11T14:50:53.000Z</time>
      </trkpt>
      <trkpt lat="45.83689" lon="4.71737">
        <ele>262.08232</ele>
        <time>2022-08-11T14:50:55.000Z</time>
      </trkpt>
      <trkpt lat="45.83686" lon="4.7174">
        <ele>262.4125</ele>
        <time>2022-08-11T14:50:56.000Z</time>
      </trkpt>
      <trkpt lat="45.83684" lon="4.71744">
        <ele>262.81209</ele>
        <time>2022-08-11T14:50:57.000Z</time>
      </trkpt>
      <trkpt lat="45.8368" lon="4.71747">
        <ele>263.1718</ele>
        <time>2022-08-11T14:50:58.000Z</time>
      </trkpt>
      <trkpt lat="45.83677" lon="4.7175">
        <ele>263.55522</ele>
        <time>2022-08-11T14:50:59.000Z</time>
      </trkpt>
      <trkpt lat="45.83674" lon="4.71755">
        <ele>264.26734</ele>
        <time>2022-08-11T14:51:00.000Z</time>
      </trkpt>
      <trkpt lat="45.83672" lon="4.71759">
        <ele>265.073</ele>
        <time>2022-08-11T14:51:01.000Z</time>
      </trkpt>
      <trkpt lat="45.83666" lon="4.71768">
        <ele>266.84394</ele>
        <time>2022-08-11T14:51:03.000Z</time>
      </trkpt>
      <trkpt lat="45.83664" lon="4.71771">
        <ele>267.38937</ele>
        <time>2022-08-11T14:51:04.000Z</time>
      </trkpt>
      <trkpt lat="45.83663" lon="4.71773">
        <ele>267.9356</ele>
        <time>2022-08-11T14:51:05.000Z</time>
      </trkpt>
      <trkpt lat="45.83662" lon="4.71776">
        <ele>268.49076</ele>
        <time>2022-08-11T14:51:06.000Z</time>
      </trkpt>
      <trkpt lat="45.8366" lon="4.7178">
        <ele>269.40333</ele>
        <time>2022-08-11T14:51:08.000Z</time>
      </trkpt>
      <trkpt lat="45.83659" lon="4.71782">
        <ele>269.93423</ele>
        <time>2022-08-11T14:51:09.000Z</time>
      </trkpt>
      <trkpt lat="45.83658" lon="4.71785">
        <ele>270.53906</ele>
        <time>2022-08-11T14:51:10.000Z</time>
      </trkpt>
      <trkpt lat="45.83656" lon="4.71788">
        <ele>271.21839</ele>
        <time>2022-08-11T14:51:11.000Z</time>
      </trkpt>
      <trkpt lat="45.83654" lon="4.71791">
        <ele>271.9757</ele>
        <time>2022-08-11T14:51:12.000Z</time>
      </trkpt>
      <trkpt lat="45.83653" lon="4.71794">
        <ele>272.49957</ele>
        <time>2022-08-11T14:51:13.000Z</time>
      </trkpt>
      <trkpt lat="45.8365" lon="4.71796">
        <ele>273.07145</ele>
        <time>2022-08-11T14:51:15.000Z</time>
      </trkpt>
      <trkpt lat="45.83649" lon="4.71798">
        <ele>273.40227</ele>
        <time>2022-08-11T14:51:17.000Z</time>
      </trkpt>
      <trkpt lat="45.83647" lon="4.718">
        <ele>273.74627</ele>
        <time>2022-08-11T14:51:19.000Z</time>
      </trkpt>
      <trkpt lat="45.83645" lon="4.718">
        <ele>273.86295</ele>
        <time>2022-08-11T14:51:21.000Z</time>
      </trkpt>
      <trkpt lat="45.83642" lon="4.71801">
        <ele>274.03782</ele>
        <time>2022-08-11T14:51:23.000Z</time>
      </trkpt>
      <trkpt lat="45.8364" lon="4.718">
        <ele>273.99595</ele>
        <time>2022-08-11T14:51:25.000Z</time>
      </trkpt>
      <trkpt lat="45.83637" lon="4.71797">
        <ele>273.45665</ele>
        <time>2022-08-11T14:51:29.000Z</time>
      </trkpt>
      <trkpt lat="45.83636" lon="4.71796">
        <ele>273.21264</ele>
        <time>2022-08-11T14:51:31.000Z</time>
      </trkpt>
      <trkpt lat="45.83634" lon="4.71795">
        <ele>273.11221</ele>
        <time>2022-08-11T14:51:36.000Z</time>
      </trkpt>
      <trkpt lat="45.83631" lon="4.71795">
        <ele>273.40255</ele>
        <time>2022-08-11T14:51:52.000Z</time>
      </trkpt>
      <trkpt lat="45.83628" lon="4.71798">
        <ele>274.18113</ele>
        <time>2022-08-11T14:51:56.000Z</time>
      </trkpt>
      <trkpt lat="45.83626" lon="4.718">
        <ele>274.60157</ele>
        <time>2022-08-11T14:51:58.000Z</time>
      </trkpt>
      <trkpt lat="45.83623" lon="4.718">
        <ele>274.93565</ele>
        <time>2022-08-11T14:52:00.000Z</time>
      </trkpt>
      <trkpt lat="45.83621" lon="4.718">
        <ele>275.10319</ele>
        <time>2022-08-11T14:52:05.000Z</time>
      </trkpt>
      <trkpt lat="45.83618" lon="4.71799">
        <ele>275.14402</ele>
        <time>2022-08-11T14:52:08.000Z</time>
      </trkpt>
      <trkpt lat="45.83615" lon="4.71798">
        <ele>275.35513</ele>
        <time>2022-08-11T14:52:10.000Z</time>
      </trkpt>
      <trkpt lat="45.83612" lon="4.71798">
        <ele>275.57082</ele>
        <time>2022-08-11T14:52:12.000Z</time>
      </trkpt>
      <trkpt lat="45.8361" lon="4.71798">
        <ele>275.75554</ele>
        <time>2022-08-11T14:52:14.000Z</time>
      </trkpt>
      <trkpt lat="45.83607" lon="4.71799">
        <ele>276.11418</ele>
        <time>2022-08-11T14:52:16.000Z</time>
      </trkpt>
      <trkpt lat="45.83608" lon="4.71796">
        <ele>275.72226</ele>
        <time>2022-08-11T14:53:13.000Z</time>
      </trkpt>
      <trkpt lat="45.83606" lon="4.71797">
        <ele>276.05869</ele>
        <time>2022-08-11T14:55:02.000Z</time>
      </trkpt>
      <trkpt lat="45.83607" lon="4.718">
        <ele>276.30515</ele>
        <time>2022-08-11T14:55:12.000Z</time>
      </trkpt>
      <trkpt lat="45.83608" lon="4.71802">
        <ele>276.48781</ele>
        <time>2022-08-11T14:55:13.000Z</time>
      </trkpt>
      <trkpt lat="45.8361" lon="4.71806">
        <ele>276.72643</ele>
        <time>2022-08-11T14:55:14.000Z</time>
      </trkpt>
      <trkpt lat="45.83611" lon="4.71809">
        <ele>276.94414</ele>
        <time>2022-08-11T14:55:15.000Z</time>
      </trkpt>
      <trkpt lat="45.83612" lon="4.71811">
        <ele>277.11541</ele>
        <time>2022-08-11T14:55:16.000Z</time>
      </trkpt>
      <trkpt lat="45.83613" lon="4.71816">
        <ele>277.32201</ele>
        <time>2022-08-11T14:55:18.000Z</time>
      </trkpt>
      <trkpt lat="45.83614" lon="4.71818">
        <ele>277.43382</ele>
        <time>2022-08-11T14:55:19.000Z</time>
      </trkpt>
      <trkpt lat="45.83615" lon="4.71821">
        <ele>277.5104</ele>
        <time>2022-08-11T14:55:20.000Z</time>
      </trkpt>
      <trkpt lat="45.83617" lon="4.71823">
        <ele>277.55368</ele>
        <time>2022-08-11T14:55:21.000Z</time>
      </trkpt>
      <trkpt lat="45.83618" lon="4.71825">
        <ele>277.6041</ele>
        <time>2022-08-11T14:55:22.000Z</time>
      </trkpt>
      <trkpt lat="45.8362" lon="4.71829">
        <ele>277.69971</ele>
        <time>2022-08-11T14:55:24.000Z</time>
      </trkpt>
      <trkpt lat="45.83621" lon="4.71832">
        <ele>277.7697</ele>
        <time>2022-08-11T14:55:25.000Z</time>
      </trkpt>
      <trkpt lat="45.83622" lon="4.71834">
        <ele>277.85781</ele>
        <time>2022-08-11T14:55:26.000Z</time>
      </trkpt>
      <trkpt lat="45.83624" lon="4.71839">
        <ele>278.08406</ele>
        <time>2022-08-11T14:55:28.000Z</time>
      </trkpt>
      <trkpt lat="45.83625" lon="4.71842">
        <ele>278.20257</ele>
        <time>2022-08-11T14:55:29.000Z</time>
      </trkpt>
      <trkpt lat="45.83626" lon="4.71845">
        <ele>278.32046</ele>
        <time>2022-08-11T14:55:30.000Z</time>
      </trkpt>
      <trkpt lat="45.83628" lon="4.71847">
        <ele>278.42875</ele>
        <time>2022-08-11T14:55:31.000Z</time>
      </trkpt>
      <trkpt lat="45.83631" lon="4.71849">
        <ele>278.54966</ele>
        <time>2022-08-11T14:55:32.000Z</time>
      </trkpt>
      <trkpt lat="45.83633" lon="4.7185">
        <ele>278.67163</ele>
        <time>2022-08-11T14:55:33.000Z</time>
      </trkpt>
      <trkpt lat="45.83636" lon="4.71852">
        <ele>278.84209</ele>
        <time>2022-08-11T14:55:34.000Z</time>
      </trkpt>
      <trkpt lat="45.83639" lon="4.71854">
        <ele>279.02399</ele>
        <time>2022-08-11T14:55:35.000Z</time>
      </trkpt>
      <trkpt lat="45.83642" lon="4.71857">
        <ele>279.20604</ele>
        <time>2022-08-11T14:55:36.000Z</time>
      </trkpt>
      <trkpt lat="45.83644" lon="4.7186">
        <ele>279.36677</ele>
        <time>2022-08-11T14:55:37.000Z</time>
      </trkpt>
      <trkpt lat="45.83648" lon="4.71866">
        <ele>279.58883</ele>
        <time>2022-08-11T14:55:39.000Z</time>
      </trkpt>
      <trkpt lat="45.8365" lon="4.71873">
        <ele>279.68513</ele>
        <time>2022-08-11T14:55:41.000Z</time>
      </trkpt>
      <trkpt lat="45.83651" lon="4.71878">
        <ele>279.66588</ele>
        <time>2022-08-11T14:55:42.000Z</time>
      </trkpt>
      <trkpt lat="45.83651" lon="4.71882">
        <ele>279.598</ele>
        <time>2022-08-11T14:55:43.000Z</time>
      </trkpt>
      <trkpt lat="45.83651" lon="4.71886">
        <ele>279.49777</ele>
        <time>2022-08-11T14:55:44.000Z</time>
      </trkpt>
      <trkpt lat="45.83651" lon="4.71891">
        <ele>279.36549</ele>
        <time>2022-08-11T14:55:45.000Z</time>
      </trkpt>
      <trkpt lat="45.83651" lon="4.71895">
        <ele>279.22793</ele>
        <time>2022-08-11T14:55:46.000Z</time>
      </trkpt>
      <trkpt lat="45.83651" lon="4.71899">
        <ele>279.09886</ele>
        <time>2022-08-11T14:55:47.000Z</time>
      </trkpt>
      <trkpt lat="45.83651" lon="4.71903">
        <ele>278.98897</ele>
        <time>2022-08-11T14:55:48.000Z</time>
      </trkpt>
      <trkpt lat="45.8365" lon="4.71906">
        <ele>278.88943</ele>
        <time>2022-08-11T14:55:49.000Z</time>
      </trkpt>
      <trkpt lat="45.83649" lon="4.71913">
        <ele>278.66544</ele>
        <time>2022-08-11T14:55:51.000Z</time>
      </trkpt>
      <trkpt lat="45.83648" lon="4.7192">
        <ele>278.43592</ele>
        <time>2022-08-11T14:55:53.000Z</time>
      </trkpt>
      <trkpt lat="45.83648" lon="4.71923">
        <ele>278.33003</ele>
        <time>2022-08-11T14:55:54.000Z</time>
      </trkpt>
      <trkpt lat="45.83648" lon="4.71927">
        <ele>278.20121</ele>
        <time>2022-08-11T14:55:55.000Z</time>
      </trkpt>
      <trkpt lat="45.83648" lon="4.71931">
        <ele>278.07375</ele>
        <time>2022-08-11T14:55:56.000Z</time>
      </trkpt>
      <trkpt lat="45.83649" lon="4.71936">
        <ele>277.94939</ele>
        <time>2022-08-11T14:55:57.000Z</time>
      </trkpt>
      <trkpt lat="45.83649" lon="4.7194">
        <ele>277.83621</ele>
        <time>2022-08-11T14:55:58.000Z</time>
      </trkpt>
      <trkpt lat="45.83649" lon="4.71944">
        <ele>277.73836</ele>
        <time>2022-08-11T14:55:59.000Z</time>
      </trkpt>
      <trkpt lat="45.83649" lon="4.71948">
        <ele>277.65103</ele>
        <time>2022-08-11T14:56:00.000Z</time>
      </trkpt>
      <trkpt lat="45.8365" lon="4.71951">
        <ele>277.56027</ele>
        <time>2022-08-11T14:56:01.000Z</time>
      </trkpt>
      <trkpt lat="45.83651" lon="4.71955">
        <ele>277.47238</ele>
        <time>2022-08-11T14:56:02.000Z</time>
      </trkpt>
      <trkpt lat="45.83651" lon="4.7196">
        <ele>277.37064</ele>
        <time>2022-08-11T14:56:03.000Z</time>
      </trkpt>
      <trkpt lat="45.83652" lon="4.71964">
        <ele>277.26073</ele>
        <time>2022-08-11T14:56:04.000Z</time>
      </trkpt>
      <trkpt lat="45.83652" lon="4.71968">
        <ele>277.14131</ele>
        <time>2022-08-11T14:56:05.000Z</time>
      </trkpt>
      <trkpt lat="45.83652" lon="4.71973">
        <ele>277.01699</ele>
        <time>2022-08-11T14:56:06.000Z</time>
      </trkpt>
      <trkpt lat="45.83652" lon="4.71977">
        <ele>276.87377</ele>
        <time>2022-08-11T14:56:07.000Z</time>
      </trkpt>
      <trkpt lat="45.83653" lon="4.71982">
        <ele>276.71917</ele>
        <time>2022-08-11T14:56:08.000Z</time>
      </trkpt>
      <trkpt lat="45.83653" lon="4.71988">
        <ele>276.54482</ele>
        <time>2022-08-11T14:56:09.000Z</time>
      </trkpt>
      <trkpt lat="45.83654" lon="4.71993">
        <ele>276.37625</ele>
        <time>2022-08-11T14:56:10.000Z</time>
      </trkpt>
      <trkpt lat="45.83655" lon="4.71998">
        <ele>276.21225</ele>
        <time>2022-08-11T14:56:11.000Z</time>
      </trkpt>
      <trkpt lat="45.83656" lon="4.72003">
        <ele>276.04291</ele>
        <time>2022-08-11T14:56:12.000Z</time>
      </trkpt>
      <trkpt lat="45.83656" lon="4.72008">
        <ele>275.87629</ele>
        <time>2022-08-11T14:56:13.000Z</time>
      </trkpt>
      <trkpt lat="45.83656" lon="4.72012">
        <ele>275.71503</ele>
        <time>2022-08-11T14:56:14.000Z</time>
      </trkpt>
      <trkpt lat="45.83656" lon="4.72016">
        <ele>275.56501</ele>
        <time>2022-08-11T14:56:15.000Z</time>
      </trkpt>
      <trkpt lat="45.83656" lon="4.72019">
        <ele>275.44794</ele>
        <time>2022-08-11T14:56:16.000Z</time>
      </trkpt>
      <trkpt lat="45.83656" lon="4.72022">
        <ele>275.33307</ele>
        <time>2022-08-11T14:56:17.000Z</time>
      </trkpt>
      <trkpt lat="45.83656" lon="4.72025">
        <ele>275.24576</ele>
        <time>2022-08-11T14:56:18.000Z</time>
      </trkpt>
      <trkpt lat="45.83656" lon="4.72025">
        <ele>275.24576</ele>
        <time>2022-08-11T14:56:18.000Z</time>
      </trkpt>
      <trkpt lat="45.83655" lon="4.7203">
        <ele>275.141</ele>
        <time>2022-08-11T14:56:20.000Z</time>
      </trkpt>
      <trkpt lat="45.83654" lon="4.72034">
        <ele>275.0914</ele>
        <time>2022-08-11T14:56:21.000Z</time>
      </trkpt>
      <trkpt lat="45.83653" lon="4.72037">
        <ele>275.08776</ele>
        <time>2022-08-11T14:56:22.000Z</time>
      </trkpt>
      <trkpt lat="45.83652" lon="4.72039">
        <ele>275.12803</ele>
        <time>2022-08-11T14:56:23.000Z</time>
      </trkpt>
      <trkpt lat="45.83649" lon="4.72041">
        <ele>275.21767</ele>
        <time>2022-08-11T14:56:24.000Z</time>
      </trkpt>
      <trkpt lat="45.83646" lon="4.72042">
        <ele>275.33513</ele>
        <time>2022-08-11T14:56:25.000Z</time>
      </trkpt>
      <trkpt lat="45.83643" lon="4.72043">
        <ele>275.46406</ele>
        <time>2022-08-11T14:56:26.000Z</time>
      </trkpt>
      <trkpt lat="45.83639" lon="4.72044">
        <ele>275.59051</ele>
        <time>2022-08-11T14:56:27.000Z</time>
      </trkpt>
      <trkpt lat="45.83636" lon="4.72044">
        <ele>275.72006</ele>
        <time>2022-08-11T14:56:28.000Z</time>
      </trkpt>
      <trkpt lat="45.83632" lon="4.72044">
        <ele>275.84484</ele>
        <time>2022-08-11T14:56:29.000Z</time>
      </trkpt>
      <trkpt lat="45.83628" lon="4.72044">
        <ele>275.94588</ele>
        <time>2022-08-11T14:56:30.000Z</time>
      </trkpt>
      <trkpt lat="45.83624" lon="4.72044">
        <ele>276.01869</ele>
        <time>2022-08-11T14:56:31.000Z</time>
      </trkpt>
      <trkpt lat="45.83621" lon="4.72044">
        <ele>276.06571</ele>
        <time>2022-08-11T14:56:32.000Z</time>
      </trkpt>
      <trkpt lat="45.83617" lon="4.72045">
        <ele>276.10113</ele>
        <time>2022-08-11T14:56:33.000Z</time>
      </trkpt>
      <trkpt lat="45.83613" lon="4.72046">
        <ele>276.13282</ele>
        <time>2022-08-11T14:56:34.000Z</time>
      </trkpt>
      <trkpt lat="45.83609" lon="4.72046">
        <ele>276.17297</ele>
        <time>2022-08-11T14:56:35.000Z</time>
      </trkpt>
      <trkpt lat="45.83605" lon="4.72047">
        <ele>276.20445</ele>
        <time>2022-08-11T14:56:36.000Z</time>
      </trkpt>
      <trkpt lat="45.83597" lon="4.72047">
        <ele>276.25735</ele>
        <time>2022-08-11T14:56:38.000Z</time>
      </trkpt>
      <trkpt lat="45.83594" lon="4.72047">
        <ele>276.28028</ele>
        <time>2022-08-11T14:56:39.000Z</time>
      </trkpt>
      <trkpt lat="45.83591" lon="4.72047">
        <ele>276.3063</ele>
        <time>2022-08-11T14:56:40.000Z</time>
      </trkpt>
      <trkpt lat="45.83587" lon="4.72047">
        <ele>276.34011</ele>
        <time>2022-08-11T14:56:41.000Z</time>
      </trkpt>
      <trkpt lat="45.83584" lon="4.72048">
        <ele>276.36886</ele>
        <time>2022-08-11T14:56:42.000Z</time>
      </trkpt>
      <trkpt lat="45.83581" lon="4.72048">
        <ele>276.40427</ele>
        <time>2022-08-11T14:56:43.000Z</time>
      </trkpt>
      <trkpt lat="45.83577" lon="4.72048">
        <ele>276.43976</ele>
        <time>2022-08-11T14:56:44.000Z</time>
      </trkpt>
      <trkpt lat="45.83574" lon="4.72049">
        <ele>276.48424</ele>
        <time>2022-08-11T14:56:45.000Z</time>
      </trkpt>
      <trkpt lat="45.83571" lon="4.72049">
        <ele>276.52636</ele>
        <time>2022-08-11T14:56:46.000Z</time>
      </trkpt>
      <trkpt lat="45.83567" lon="4.7205">
        <ele>276.57015</ele>
        <time>2022-08-11T14:56:47.000Z</time>
      </trkpt>
      <trkpt lat="45.83564" lon="4.7205">
        <ele>276.60901</ele>
        <time>2022-08-11T14:56:48.000Z</time>
      </trkpt>
      <trkpt lat="45.83561" lon="4.72051">
        <ele>276.64267</ele>
        <time>2022-08-11T14:56:49.000Z</time>
      </trkpt>
      <trkpt lat="45.83558" lon="4.72052">
        <ele>276.66947</ele>
        <time>2022-08-11T14:56:50.000Z</time>
      </trkpt>
      <trkpt lat="45.83554" lon="4.72053">
        <ele>276.69761</ele>
        <time>2022-08-11T14:56:51.000Z</time>
      </trkpt>
      <trkpt lat="45.83549" lon="4.72055">
        <ele>276.75948</ele>
        <time>2022-08-11T14:56:53.000Z</time>
      </trkpt>
      <trkpt lat="45.83546" lon="4.72056">
        <ele>276.81407</ele>
        <time>2022-08-11T14:56:54.000Z</time>
      </trkpt>
      <trkpt lat="45.83542" lon="4.72057">
        <ele>276.88652</ele>
        <time>2022-08-11T14:56:55.000Z</time>
      </trkpt>
      <trkpt lat="45.83538" lon="4.72057">
        <ele>276.96358</ele>
        <time>2022-08-11T14:56:56.000Z</time>
      </trkpt>
      <trkpt lat="45.83534" lon="4.72057">
        <ele>277.03043</ele>
        <time>2022-08-11T14:56:57.000Z</time>
      </trkpt>
      <trkpt lat="45.83531" lon="4.72057">
        <ele>277.08799</ele>
        <time>2022-08-11T14:56:58.000Z</time>
      </trkpt>
      <trkpt lat="45.83527" lon="4.72058">
        <ele>277.13436</ele>
        <time>2022-08-11T14:56:59.000Z</time>
      </trkpt>
      <trkpt lat="45.83523" lon="4.72058">
        <ele>277.1882</ele>
        <time>2022-08-11T14:57:00.000Z</time>
      </trkpt>
      <trkpt lat="45.8352" lon="4.72059">
        <ele>277.24398</ele>
        <time>2022-08-11T14:57:01.000Z</time>
      </trkpt>
      <trkpt lat="45.83516" lon="4.72059">
        <ele>277.29944</ele>
        <time>2022-08-11T14:57:02.000Z</time>
      </trkpt>
      <trkpt lat="45.8351" lon="4.72059">
        <ele>277.42526</ele>
        <time>2022-08-11T14:57:04.000Z</time>
      </trkpt>
      <trkpt lat="45.83506" lon="4.72059">
        <ele>277.49608</ele>
        <time>2022-08-11T14:57:05.000Z</time>
      </trkpt>
      <trkpt lat="45.83503" lon="4.72059">
        <ele>277.55735</ele>
        <time>2022-08-11T14:57:06.000Z</time>
      </trkpt>
      <trkpt lat="45.835" lon="4.72059">
        <ele>277.61161</ele>
        <time>2022-08-11T14:57:07.000Z</time>
      </trkpt>
      <trkpt lat="45.83497" lon="4.72059">
        <ele>277.66093</ele>
        <time>2022-08-11T14:57:08.000Z</time>
      </trkpt>
      <trkpt lat="45.83494" lon="4.7206">
        <ele>277.70319</ele>
        <time>2022-08-11T14:57:09.000Z</time>
      </trkpt>
      <trkpt lat="45.83491" lon="4.7206">
        <ele>277.73888</ele>
        <time>2022-08-11T14:57:10.000Z</time>
      </trkpt>
      <trkpt lat="45.83487" lon="4.72059">
        <ele>277.77227</ele>
        <time>2022-08-11T14:57:11.000Z</time>
      </trkpt>
      <trkpt lat="45.83484" lon="4.7206">
        <ele>277.80131</ele>
        <time>2022-08-11T14:57:12.000Z</time>
      </trkpt>
      <trkpt lat="45.83481" lon="4.7206">
        <ele>277.8277</ele>
        <time>2022-08-11T14:57:13.000Z</time>
      </trkpt>
      <trkpt lat="45.83478" lon="4.7206">
        <ele>277.84991</ele>
        <time>2022-08-11T14:57:14.000Z</time>
      </trkpt>
      <trkpt lat="45.83475" lon="4.7206">
        <ele>277.86835</ele>
        <time>2022-08-11T14:57:15.000Z</time>
      </trkpt>
      <trkpt lat="45.83473" lon="4.7206">
        <ele>277.88663</ele>
        <time>2022-08-11T14:57:16.000Z</time>
      </trkpt>
      <trkpt lat="45.8347" lon="4.7206">
        <ele>277.89952</ele>
        <time>2022-08-11T14:57:17.000Z</time>
      </trkpt>
      <trkpt lat="45.83467" lon="4.72059">
        <ele>277.90433</ele>
        <time>2022-08-11T14:57:18.000Z</time>
      </trkpt>
      <trkpt lat="45.83464" lon="4.72059">
        <ele>277.90555</ele>
        <time>2022-08-11T14:57:19.000Z</time>
      </trkpt>
      <trkpt lat="45.8346" lon="4.72058">
        <ele>277.90706</ele>
        <time>2022-08-11T14:57:20.000Z</time>
      </trkpt>
      <trkpt lat="45.83457" lon="4.72057">
        <ele>277.91445</ele>
        <time>2022-08-11T14:57:21.000Z</time>
      </trkpt>
      <trkpt lat="45.83454" lon="4.72057">
        <ele>277.92984</ele>
        <time>2022-08-11T14:57:22.000Z</time>
      </trkpt>
      <trkpt lat="45.83451" lon="4.72057">
        <ele>277.95775</ele>
        <time>2022-08-11T14:57:23.000Z</time>
      </trkpt>
      <trkpt lat="45.83449" lon="4.72056">
        <ele>277.99106</ele>
        <time>2022-08-11T14:57:24.000Z</time>
      </trkpt>
      <trkpt lat="45.83444" lon="4.72053">
        <ele>278.10078</ele>
        <time>2022-08-11T14:57:27.000Z</time>
      </trkpt>
      <trkpt lat="45.83442" lon="4.72051">
        <ele>278.15286</ele>
        <time>2022-08-11T14:57:28.000Z</time>
      </trkpt>
      <trkpt lat="45.83439" lon="4.72051">
        <ele>278.21264</ele>
        <time>2022-08-11T14:57:29.000Z</time>
      </trkpt>
      <trkpt lat="45.83437" lon="4.72051">
        <ele>278.28151</ele>
        <time>2022-08-11T14:57:30.000Z</time>
      </trkpt>
      <trkpt lat="45.83434" lon="4.72051">
        <ele>278.34151</ele>
        <time>2022-08-11T14:57:31.000Z</time>
      </trkpt>
      <trkpt lat="45.8343" lon="4.7205">
        <ele>278.35823</ele>
        <time>2022-08-11T14:57:32.000Z</time>
      </trkpt>
      <trkpt lat="45.83427" lon="4.72048">
        <ele>278.30977</ele>
        <time>2022-08-11T14:57:33.000Z</time>
      </trkpt>
      <trkpt lat="45.83424" lon="4.72046">
        <ele>278.20176</ele>
        <time>2022-08-11T14:57:34.000Z</time>
      </trkpt>
      <trkpt lat="45.83421" lon="4.72044">
        <ele>278.05511</ele>
        <time>2022-08-11T14:57:35.000Z</time>
      </trkpt>
      <trkpt lat="45.83417" lon="4.72042">
        <ele>277.85845</ele>
        <time>2022-08-11T14:57:36.000Z</time>
      </trkpt>
      <trkpt lat="45.83413" lon="4.7204">
        <ele>277.63841</ele>
        <time>2022-08-11T14:57:37.000Z</time>
      </trkpt>
      <trkpt lat="45.83409" lon="4.72037">
        <ele>277.39606</ele>
        <time>2022-08-11T14:57:38.000Z</time>
      </trkpt>
      <trkpt lat="45.83405" lon="4.72034">
        <ele>277.176</ele>
        <time>2022-08-11T14:57:39.000Z</time>
      </trkpt>
      <trkpt lat="45.83401" lon="4.72032">
        <ele>276.97831</ele>
        <time>2022-08-11T14:57:40.000Z</time>
      </trkpt>
      <trkpt lat="45.83398" lon="4.72029">
        <ele>276.76608</ele>
        <time>2022-08-11T14:57:41.000Z</time>
      </trkpt>
      <trkpt lat="45.83394" lon="4.72026">
        <ele>276.54952</ele>
        <time>2022-08-11T14:57:42.000Z</time>
      </trkpt>
      <trkpt lat="45.8339" lon="4.72024">
        <ele>276.33807</ele>
        <time>2022-08-11T14:57:43.000Z</time>
      </trkpt>
      <trkpt lat="45.83383" lon="4.7202">
        <ele>276.01088</ele>
        <time>2022-08-11T14:57:45.000Z</time>
      </trkpt>
      <trkpt lat="45.83379" lon="4.72018">
        <ele>275.85661</ele>
        <time>2022-08-11T14:57:46.000Z</time>
      </trkpt>
      <trkpt lat="45.83372" lon="4.72013">
        <ele>275.54232</ele>
        <time>2022-08-11T14:57:48.000Z</time>
      </trkpt>
      <trkpt lat="45.83364" lon="4.72007">
        <ele>275.02913</ele>
        <time>2022-08-11T14:57:50.000Z</time>
      </trkpt>
      <trkpt lat="45.8336" lon="4.72003">
        <ele>274.74399</ele>
        <time>2022-08-11T14:57:51.000Z</time>
      </trkpt>
      <trkpt lat="45.83354" lon="4.71997">
        <ele>274.17129</ele>
        <time>2022-08-11T14:57:53.000Z</time>
      </trkpt>
      <trkpt lat="45.83351" lon="4.71994">
        <ele>273.9601</ele>
        <time>2022-08-11T14:57:54.000Z</time>
      </trkpt>
      <trkpt lat="45.83348" lon="4.71993">
        <ele>273.90787</ele>
        <time>2022-08-11T14:57:55.000Z</time>
      </trkpt>
      <trkpt lat="45.83346" lon="4.71991">
        <ele>273.71475</ele>
        <time>2022-08-11T14:57:56.000Z</time>
      </trkpt>
      <trkpt lat="45.83343" lon="4.71987">
        <ele>273.45667</ele>
        <time>2022-08-11T14:57:57.000Z</time>
      </trkpt>
      <trkpt lat="45.83339" lon="4.71984">
        <ele>273.16682</ele>
        <time>2022-08-11T14:57:58.000Z</time>
      </trkpt>
      <trkpt lat="45.83335" lon="4.71981">
        <ele>272.94657</ele>
        <time>2022-08-11T14:57:59.000Z</time>
      </trkpt>
      <trkpt lat="45.83331" lon="4.71973">
        <ele>272.41793</ele>
        <time>2022-08-11T14:58:00.000Z</time>
      </trkpt>
      <trkpt lat="45.83329" lon="4.71969">
        <ele>272.17782</ele>
        <time>2022-08-11T14:58:01.000Z</time>
      </trkpt>
      <trkpt lat="45.83322" lon="4.71965">
        <ele>271.9354</ele>
        <time>2022-08-11T14:58:02.000Z</time>
      </trkpt>
      <trkpt lat="45.83319" lon="4.7196">
        <ele>271.6547</ele>
        <time>2022-08-11T14:58:03.000Z</time>
      </trkpt>
      <trkpt lat="45.83316" lon="4.71952">
        <ele>271.22754</ele>
        <time>2022-08-11T14:58:04.000Z</time>
      </trkpt>
      <trkpt lat="45.83312" lon="4.71945">
        <ele>270.83147</ele>
        <time>2022-08-11T14:58:05.000Z</time>
      </trkpt>
      <trkpt lat="45.83309" lon="4.7194">
        <ele>270.60432</ele>
        <time>2022-08-11T14:58:06.000Z</time>
      </trkpt>
      <trkpt lat="45.83304" lon="4.71935">
        <ele>270.39352</ele>
        <time>2022-08-11T14:58:08.000Z</time>
      </trkpt>
      <trkpt lat="45.83302" lon="4.71931">
        <ele>270.24703</ele>
        <time>2022-08-11T14:58:09.000Z</time>
      </trkpt>
      <trkpt lat="45.833" lon="4.7193">
        <ele>270.26483</ele>
        <time>2022-08-11T14:58:10.000Z</time>
      </trkpt>
      <trkpt lat="45.83298" lon="4.71929">
        <ele>270.2453</ele>
        <time>2022-08-11T14:58:11.000Z</time>
      </trkpt>
      <trkpt lat="45.83296" lon="4.71927">
        <ele>270.2209</ele>
        <time>2022-08-11T14:58:12.000Z</time>
      </trkpt>
      <trkpt lat="45.83294" lon="4.71924">
        <ele>270.2272</ele>
        <time>2022-08-11T14:58:13.000Z</time>
      </trkpt>
      <trkpt lat="45.8329" lon="4.7192">
        <ele>270.30721</ele>
        <time>2022-08-11T14:58:14.000Z</time>
      </trkpt>
      <trkpt lat="45.83286" lon="4.71917">
        <ele>270.39449</ele>
        <time>2022-08-11T14:58:15.000Z</time>
      </trkpt>
      <trkpt lat="45.83283" lon="4.71914">
        <ele>270.51892</ele>
        <time>2022-08-11T14:58:16.000Z</time>
      </trkpt>
      <trkpt lat="45.83276" lon="4.71908">
        <ele>270.84399</ele>
        <time>2022-08-11T14:58:18.000Z</time>
      </trkpt>
      <trkpt lat="45.83272" lon="4.71905">
        <ele>271.0586</ele>
        <time>2022-08-11T14:58:19.000Z</time>
      </trkpt>
      <trkpt lat="45.83268" lon="4.71902">
        <ele>271.35264</ele>
        <time>2022-08-11T14:58:20.000Z</time>
      </trkpt>
      <trkpt lat="45.83258" lon="4.71895">
        <ele>272.25513</ele>
        <time>2022-08-11T14:58:21.000Z</time>
      </trkpt>
      <trkpt lat="45.83253" lon="4.71894">
        <ele>272.62042</ele>
        <time>2022-08-11T14:58:22.000Z</time>
      </trkpt>
      <trkpt lat="45.83251" lon="4.71892">
        <ele>272.82531</ele>
        <time>2022-08-11T14:58:23.000Z</time>
      </trkpt>
      <trkpt lat="45.83246" lon="4.71888">
        <ele>273.28032</ele>
        <time>2022-08-11T14:58:24.000Z</time>
      </trkpt>
      <trkpt lat="45.83237" lon="4.71879">
        <ele>274.1284</ele>
        <time>2022-08-11T14:58:26.000Z</time>
      </trkpt>
      <trkpt lat="45.83232" lon="4.71875">
        <ele>274.46238</ele>
        <time>2022-08-11T14:58:27.000Z</time>
      </trkpt>
      <trkpt lat="45.83228" lon="4.71875">
        <ele>274.57372</ele>
        <time>2022-08-11T14:58:28.000Z</time>
      </trkpt>
      <trkpt lat="45.83222" lon="4.71872">
        <ele>274.76699</ele>
        <time>2022-08-11T14:58:29.000Z</time>
      </trkpt>
      <trkpt lat="45.83217" lon="4.7187">
        <ele>274.81809</ele>
        <time>2022-08-11T14:58:30.000Z</time>
      </trkpt>
      <trkpt lat="45.83212" lon="4.7187">
        <ele>274.77041</ele>
        <time>2022-08-11T14:58:31.000Z</time>
      </trkpt>
      <trkpt lat="45.83207" lon="4.71869">
        <ele>274.87396</ele>
        <time>2022-08-11T14:58:32.000Z</time>
      </trkpt>
      <trkpt lat="45.83203" lon="4.71867">
        <ele>275.08456</ele>
        <time>2022-08-11T14:58:33.000Z</time>
      </trkpt>
      <trkpt lat="45.83197" lon="4.71864">
        <ele>275.59484</ele>
        <time>2022-08-11T14:58:34.000Z</time>
      </trkpt>
      <trkpt lat="45.83192" lon="4.71864">
        <ele>275.91249</ele>
        <time>2022-08-11T14:58:35.000Z</time>
      </trkpt>
      <trkpt lat="45.83188" lon="4.71864">
        <ele>276.26757</ele>
        <time>2022-08-11T14:58:36.000Z</time>
      </trkpt>
      <trkpt lat="45.83181" lon="4.71862">
        <ele>276.80458</ele>
        <time>2022-08-11T14:58:37.000Z</time>
      </trkpt>
      <trkpt lat="45.83175" lon="4.71862">
        <ele>277.10105</ele>
        <time>2022-08-11T14:58:38.000Z</time>
      </trkpt>
      <trkpt lat="45.83172" lon="4.71864">
        <ele>277.09367</ele>
        <time>2022-08-11T14:58:39.000Z</time>
      </trkpt>
      <trkpt lat="45.83165" lon="4.71864">
        <ele>277.44807</ele>
        <time>2022-08-11T14:58:40.000Z</time>
      </trkpt>
      <trkpt lat="45.8316" lon="4.71865">
        <ele>277.58922</ele>
        <time>2022-08-11T14:58:41.000Z</time>
      </trkpt>
      <trkpt lat="45.83155" lon="4.71866">
        <ele>277.76816</ele>
        <time>2022-08-11T14:58:42.000Z</time>
      </trkpt>
      <trkpt lat="45.83149" lon="4.71865">
        <ele>278.18804</ele>
        <time>2022-08-11T14:58:43.000Z</time>
      </trkpt>
      <trkpt lat="45.83141" lon="4.71865">
        <ele>278.64685</ele>
        <time>2022-08-11T14:58:44.000Z</time>
      </trkpt>
      <trkpt lat="45.83133" lon="4.71862">
        <ele>279.30873</ele>
        <time>2022-08-11T14:58:45.000Z</time>
      </trkpt>
      <trkpt lat="45.83124" lon="4.71859">
        <ele>279.76225</ele>
        <time>2022-08-11T14:58:46.000Z</time>
      </trkpt>
      <trkpt lat="45.83118" lon="4.71858">
        <ele>280.00983</ele>
        <time>2022-08-11T14:58:47.000Z</time>
      </trkpt>
      <trkpt lat="45.83108" lon="4.71855">
        <ele>280.60364</ele>
        <time>2022-08-11T14:58:49.000Z</time>
      </trkpt>
      <trkpt lat="45.83099" lon="4.7185">
        <ele>281.35266</ele>
        <time>2022-08-11T14:58:50.000Z</time>
      </trkpt>
      <trkpt lat="45.83096" lon="4.71848">
        <ele>281.66562</ele>
        <time>2022-08-11T14:58:51.000Z</time>
      </trkpt>
      <trkpt lat="45.83091" lon="4.71844">
        <ele>282.21585</ele>
        <time>2022-08-11T14:58:52.000Z</time>
      </trkpt>
      <trkpt lat="45.8309" lon="4.71842">
        <ele>282.51716</ele>
        <time>2022-08-11T14:58:53.000Z</time>
      </trkpt>
      <trkpt lat="45.83082" lon="4.71834">
        <ele>283.48839</ele>
        <time>2022-08-11T14:58:54.000Z</time>
      </trkpt>
      <trkpt lat="45.83076" lon="4.71832">
        <ele>283.91327</ele>
        <time>2022-08-11T14:58:55.000Z</time>
      </trkpt>
      <trkpt lat="45.83071" lon="4.71829">
        <ele>284.38469</ele>
        <time>2022-08-11T14:58:56.000Z</time>
      </trkpt>
      <trkpt lat="45.83067" lon="4.71826">
        <ele>284.7443</ele>
        <time>2022-08-11T14:58:57.000Z</time>
      </trkpt>
      <trkpt lat="45.83062" lon="4.71823">
        <ele>285.26597</ele>
        <time>2022-08-11T14:58:58.000Z</time>
      </trkpt>
      <trkpt lat="45.83058" lon="4.71818">
        <ele>285.79863</ele>
        <time>2022-08-11T14:58:59.000Z</time>
      </trkpt>
      <trkpt lat="45.83053" lon="4.71815">
        <ele>286.25405</ele>
        <time>2022-08-11T14:59:00.000Z</time>
      </trkpt>
      <trkpt lat="45.83047" lon="4.7181">
        <ele>286.81841</ele>
        <time>2022-08-11T14:59:01.000Z</time>
      </trkpt>
      <trkpt lat="45.83043" lon="4.71807">
        <ele>287.15618</ele>
        <time>2022-08-11T14:59:02.000Z</time>
      </trkpt>
      <trkpt lat="45.83039" lon="4.71803">
        <ele>287.49126</ele>
        <time>2022-08-11T14:59:03.000Z</time>
      </trkpt>
      <trkpt lat="45.83035" lon="4.71801">
        <ele>287.70985</ele>
        <time>2022-08-11T14:59:04.000Z</time>
      </trkpt>
      <trkpt lat="45.83031" lon="4.71798">
        <ele>287.94186</ele>
        <time>2022-08-11T14:59:05.000Z</time>
      </trkpt>
      <trkpt lat="45.83028" lon="4.71796">
        <ele>288.06606</ele>
        <time>2022-08-11T14:59:06.000Z</time>
      </trkpt>
      <trkpt lat="45.83024" lon="4.71793">
        <ele>288.25278</ele>
        <time>2022-08-11T14:59:07.000Z</time>
      </trkpt>
      <trkpt lat="45.8302" lon="4.71789">
        <ele>288.458</ele>
        <time>2022-08-11T14:59:08.000Z</time>
      </trkpt>
      <trkpt lat="45.83014" lon="4.71785">
        <ele>288.69532</ele>
        <time>2022-08-11T14:59:09.000Z</time>
      </trkpt>
      <trkpt lat="45.83008" lon="4.71783">
        <ele>288.88084</ele>
        <time>2022-08-11T14:59:10.000Z</time>
      </trkpt>
      <trkpt lat="45.83003" lon="4.71782">
        <ele>289.01831</ele>
        <time>2022-08-11T14:59:11.000Z</time>
      </trkpt>
      <trkpt lat="45.82998" lon="4.7178">
        <ele>289.14595</ele>
        <time>2022-08-11T14:59:12.000Z</time>
      </trkpt>
      <trkpt lat="45.82993" lon="4.71779">
        <ele>289.25441</ele>
        <time>2022-08-11T14:59:13.000Z</time>
      </trkpt>
      <trkpt lat="45.82989" lon="4.71777">
        <ele>289.35653</ele>
        <time>2022-08-11T14:59:14.000Z</time>
      </trkpt>
      <trkpt lat="45.82985" lon="4.71776">
        <ele>289.45778</ele>
        <time>2022-08-11T14:59:15.000Z</time>
      </trkpt>
      <trkpt lat="45.8298" lon="4.71774">
        <ele>289.55872</ele>
        <time>2022-08-11T14:59:16.000Z</time>
      </trkpt>
      <trkpt lat="45.82976" lon="4.71774">
        <ele>289.59809</ele>
        <time>2022-08-11T14:59:17.000Z</time>
      </trkpt>
      <trkpt lat="45.82972" lon="4.71775">
        <ele>289.61055</ele>
        <time>2022-08-11T14:59:18.000Z</time>
      </trkpt>
      <trkpt lat="45.82968" lon="4.71777">
        <ele>289.56866</ele>
        <time>2022-08-11T14:59:19.000Z</time>
      </trkpt>
      <trkpt lat="45.82963" lon="4.71777">
        <ele>289.5852</ele>
        <time>2022-08-11T14:59:20.000Z</time>
      </trkpt>
      <trkpt lat="45.8296" lon="4.71779">
        <ele>289.5431</ele>
        <time>2022-08-11T14:59:21.000Z</time>
      </trkpt>
      <trkpt lat="45.82957" lon="4.71781">
        <ele>289.51376</ele>
        <time>2022-08-11T14:59:22.000Z</time>
      </trkpt>
      <trkpt lat="45.82954" lon="4.71783">
        <ele>289.50837</ele>
        <time>2022-08-11T14:59:23.000Z</time>
      </trkpt>
      <trkpt lat="45.82951" lon="4.71785">
        <ele>289.50782</ele>
        <time>2022-08-11T14:59:24.000Z</time>
      </trkpt>
      <trkpt lat="45.82948" lon="4.71785">
        <ele>289.53603</ele>
        <time>2022-08-11T14:59:25.000Z</time>
      </trkpt>
      <trkpt lat="45.82945" lon="4.71786">
        <ele>289.56317</ele>
        <time>2022-08-11T14:59:26.000Z</time>
      </trkpt>
      <trkpt lat="45.82943" lon="4.71787">
        <ele>289.59171</ele>
        <time>2022-08-11T14:59:27.000Z</time>
      </trkpt>
      <trkpt lat="45.82941" lon="4.71787">
        <ele>289.63097</ele>
        <time>2022-08-11T14:59:28.000Z</time>
      </trkpt>
      <trkpt lat="45.82938" lon="4.71787">
        <ele>289.66983</ele>
        <time>2022-08-11T14:59:29.000Z</time>
      </trkpt>
      <trkpt lat="45.82936" lon="4.71787">
        <ele>289.68108</ele>
        <time>2022-08-11T14:59:31.000Z</time>
      </trkpt>
      <trkpt lat="45.82938" lon="4.71788">
        <ele>289.64518</ele>
        <time>2022-08-11T14:59:35.000Z</time>
      </trkpt>
      <trkpt lat="45.8294" lon="4.71787">
        <ele>289.65377</ele>
        <time>2022-08-11T15:01:14.000Z</time>
      </trkpt>
      <trkpt lat="45.82938" lon="4.71787">
        <ele>289.66983</ele>
        <time>2022-08-11T15:01:22.000Z</time>
      </trkpt>
      <trkpt lat="45.82936" lon="4.71787">
        <ele>289.68874</ele>
        <time>2022-08-11T15:01:33.000Z</time>
      </trkpt>
      <trkpt lat="45.82933" lon="4.71788">
        <ele>289.68177</ele>
        <time>2022-08-11T15:01:35.000Z</time>
      </trkpt>
      <trkpt lat="45.82933" lon="4.71788">
        <ele>289.68177</ele>
        <time>2022-08-11T15:01:35.000Z</time>
      </trkpt>
      <trkpt lat="45.82931" lon="4.71789">
        <ele>289.66991</ele>
        <time>2022-08-11T15:01:36.000Z</time>
      </trkpt>
      <trkpt lat="45.82929" lon="4.71789">
        <ele>289.66546</ele>
        <time>2022-08-11T15:01:37.000Z</time>
      </trkpt>
      <trkpt lat="45.82926" lon="4.71789">
        <ele>289.66535</ele>
        <time>2022-08-11T15:01:38.000Z</time>
      </trkpt>
      <trkpt lat="45.82924" lon="4.71789">
        <ele>289.66214</ele>
        <time>2022-08-11T15:01:39.000Z</time>
      </trkpt>
      <trkpt lat="45.82922" lon="4.71789">
        <ele>289.66162</ele>
        <time>2022-08-11T15:01:40.000Z</time>
      </trkpt>
      <trkpt lat="45.82918" lon="4.71789">
        <ele>289.67135</ele>
        <time>2022-08-11T15:01:42.000Z</time>
      </trkpt>
      <trkpt lat="45.82916" lon="4.71789">
        <ele>289.68785</ele>
        <time>2022-08-11T15:01:43.000Z</time>
      </trkpt>
      <trkpt lat="45.8291" lon="4.71788">
        <ele>289.73381</ele>
        <time>2022-08-11T15:01:45.000Z</time>
      </trkpt>
      <trkpt lat="45.82907" lon="4.71788">
        <ele>289.74614</ele>
        <time>2022-08-11T15:01:46.000Z</time>
      </trkpt>
      <trkpt lat="45.82903" lon="4.71787">
        <ele>289.75948</ele>
        <time>2022-08-11T15:01:47.000Z</time>
      </trkpt>
      <trkpt lat="45.82897" lon="4.71787">
        <ele>289.78008</ele>
        <time>2022-08-11T15:01:49.000Z</time>
      </trkpt>
      <trkpt lat="45.82895" lon="4.71787">
        <ele>289.80263</ele>
        <time>2022-08-11T15:01:50.000Z</time>
      </trkpt>
      <trkpt lat="45.82891" lon="4.71787">
        <ele>289.8233</ele>
        <time>2022-08-11T15:01:51.000Z</time>
      </trkpt>
      <trkpt lat="45.82888" lon="4.71786">
        <ele>289.85061</ele>
        <time>2022-08-11T15:01:52.000Z</time>
      </trkpt>
      <trkpt lat="45.82885" lon="4.71786">
        <ele>289.87117</ele>
        <time>2022-08-11T15:01:53.000Z</time>
      </trkpt>
      <trkpt lat="45.82882" lon="4.71787">
        <ele>289.88117</ele>
        <time>2022-08-11T15:01:54.000Z</time>
      </trkpt>
      <trkpt lat="45.82879" lon="4.71787">
        <ele>289.88952</ele>
        <time>2022-08-11T15:01:55.000Z</time>
      </trkpt>
      <trkpt lat="45.82876" lon="4.71787">
        <ele>289.88024</ele>
        <time>2022-08-11T15:01:56.000Z</time>
      </trkpt>
      <trkpt lat="45.82873" lon="4.71788">
        <ele>289.86409</ele>
        <time>2022-08-11T15:01:57.000Z</time>
      </trkpt>
      <trkpt lat="45.8287" lon="4.71788">
        <ele>289.82859</ele>
        <time>2022-08-11T15:01:58.000Z</time>
      </trkpt>
      <trkpt lat="45.82867" lon="4.71789">
        <ele>289.78533</ele>
        <time>2022-08-11T15:01:59.000Z</time>
      </trkpt>
      <trkpt lat="45.82864" lon="4.71789">
        <ele>289.73799</ele>
        <time>2022-08-11T15:02:00.000Z</time>
      </trkpt>
      <trkpt lat="45.82861" lon="4.71789">
        <ele>289.68214</ele>
        <time>2022-08-11T15:02:01.000Z</time>
      </trkpt>
      <trkpt lat="45.82858" lon="4.71789">
        <ele>289.60773</ele>
        <time>2022-08-11T15:02:02.000Z</time>
      </trkpt>
      <trkpt lat="45.82855" lon="4.71789">
        <ele>289.52844</ele>
        <time>2022-08-11T15:02:03.000Z</time>
      </trkpt>
      <trkpt lat="45.82852" lon="4.71789">
        <ele>289.46239</ele>
        <time>2022-08-11T15:02:04.000Z</time>
      </trkpt>
      <trkpt lat="45.82849" lon="4.7179">
        <ele>289.40402</ele>
        <time>2022-08-11T15:02:05.000Z</time>
      </trkpt>
      <trkpt lat="45.82847" lon="4.7179">
        <ele>289.35678</ele>
        <time>2022-08-11T15:02:06.000Z</time>
      </trkpt>
      <trkpt lat="45.82845" lon="4.7179">
        <ele>289.31895</ele>
        <time>2022-08-11T15:02:07.000Z</time>
      </trkpt>
      <trkpt lat="45.82843" lon="4.7179">
        <ele>289.26756</ele>
        <time>2022-08-11T15:02:08.000Z</time>
      </trkpt>
      <trkpt lat="45.82841" lon="4.7179">
        <ele>289.20907</ele>
        <time>2022-08-11T15:02:09.000Z</time>
      </trkpt>
      <trkpt lat="45.82838" lon="4.71789">
        <ele>289.14314</ele>
        <time>2022-08-11T15:02:10.000Z</time>
      </trkpt>
      <trkpt lat="45.82835" lon="4.71789">
        <ele>289.0545</ele>
        <time>2022-08-11T15:02:11.000Z</time>
      </trkpt>
      <trkpt lat="45.82832" lon="4.71789">
        <ele>288.98257</ele>
        <time>2022-08-11T15:02:12.000Z</time>
      </trkpt>
      <trkpt lat="45.82829" lon="4.7179">
        <ele>288.95708</ele>
        <time>2022-08-11T15:02:13.000Z</time>
      </trkpt>
      <trkpt lat="45.82827" lon="4.71792">
        <ele>288.97785</ele>
        <time>2022-08-11T15:02:14.000Z</time>
      </trkpt>
      <trkpt lat="45.82824" lon="4.71796">
        <ele>289.05774</ele>
        <time>2022-08-11T15:02:15.000Z</time>
      </trkpt>
      <trkpt lat="45.82821" lon="4.71802">
        <ele>289.17319</ele>
        <time>2022-08-11T15:02:16.000Z</time>
      </trkpt>
      <trkpt lat="45.8282" lon="4.71808">
        <ele>289.27393</ele>
        <time>2022-08-11T15:02:17.000Z</time>
      </trkpt>
      <trkpt lat="45.82819" lon="4.71815">
        <ele>289.34011</ele>
        <time>2022-08-11T15:02:18.000Z</time>
      </trkpt>
      <trkpt lat="45.82818" lon="4.71821">
        <ele>289.38188</ele>
        <time>2022-08-11T15:02:19.000Z</time>
      </trkpt>
      <trkpt lat="45.82816" lon="4.71827">
        <ele>289.39058</ele>
        <time>2022-08-11T15:02:20.000Z</time>
      </trkpt>
      <trkpt lat="45.82815" lon="4.71836">
        <ele>289.33132</ele>
        <time>2022-08-11T15:02:21.000Z</time>
      </trkpt>
      <trkpt lat="45.82813" lon="4.71845">
        <ele>289.24179</ele>
        <time>2022-08-11T15:02:22.000Z</time>
      </trkpt>
      <trkpt lat="45.82812" lon="4.71853">
        <ele>289.15387</ele>
        <time>2022-08-11T15:02:23.000Z</time>
      </trkpt>
      <trkpt lat="45.8281" lon="4.7186">
        <ele>289.07049</ele>
        <time>2022-08-11T15:02:24.000Z</time>
      </trkpt>
      <trkpt lat="45.82811" lon="4.7187">
        <ele>289.00092</ele>
        <time>2022-08-11T15:02:25.000Z</time>
      </trkpt>
      <trkpt lat="45.82809" lon="4.71877">
        <ele>288.96291</ele>
        <time>2022-08-11T15:02:26.000Z</time>
      </trkpt>
      <trkpt lat="45.82808" lon="4.71884">
        <ele>288.98834</ele>
        <time>2022-08-11T15:02:27.000Z</time>
      </trkpt>
      <trkpt lat="45.82807" lon="4.71892">
        <ele>289.08578</ele>
        <time>2022-08-11T15:02:28.000Z</time>
      </trkpt>
      <trkpt lat="45.82806" lon="4.71899">
        <ele>289.21452</ele>
        <time>2022-08-11T15:02:29.000Z</time>
      </trkpt>
      <trkpt lat="45.82804" lon="4.71904">
        <ele>289.36881</ele>
        <time>2022-08-11T15:02:30.000Z</time>
      </trkpt>
      <trkpt lat="45.82803" lon="4.71911">
        <ele>289.50309</ele>
        <time>2022-08-11T15:02:31.000Z</time>
      </trkpt>
      <trkpt lat="45.82801" lon="4.71917">
        <ele>289.61042</ele>
        <time>2022-08-11T15:02:32.000Z</time>
      </trkpt>
      <trkpt lat="45.828" lon="4.71924">
        <ele>289.68708</ele>
        <time>2022-08-11T15:02:33.000Z</time>
      </trkpt>
      <trkpt lat="45.82799" lon="4.71931">
        <ele>289.75845</ele>
        <time>2022-08-11T15:02:34.000Z</time>
      </trkpt>
      <trkpt lat="45.82799" lon="4.71939">
        <ele>289.86324</ele>
        <time>2022-08-11T15:02:35.000Z</time>
      </trkpt>
      <trkpt lat="45.82798" lon="4.71946">
        <ele>290.03063</ele>
        <time>2022-08-11T15:02:36.000Z</time>
      </trkpt>
      <trkpt lat="45.82797" lon="4.71954">
        <ele>290.20967</ele>
        <time>2022-08-11T15:02:37.000Z</time>
      </trkpt>
      <trkpt lat="45.82797" lon="4.71961">
        <ele>290.36132</ele>
        <time>2022-08-11T15:02:38.000Z</time>
      </trkpt>
      <trkpt lat="45.82796" lon="4.71968">
        <ele>290.52185</ele>
        <time>2022-08-11T15:02:39.000Z</time>
      </trkpt>
      <trkpt lat="45.82795" lon="4.71975">
        <ele>290.65226</ele>
        <time>2022-08-11T15:02:40.000Z</time>
      </trkpt>
      <trkpt lat="45.82794" lon="4.71982">
        <ele>290.94346</ele>
        <time>2022-08-11T15:02:41.000Z</time>
      </trkpt>
      <trkpt lat="45.82793" lon="4.71989">
        <ele>291.22128</ele>
        <time>2022-08-11T15:02:42.000Z</time>
      </trkpt>
      <trkpt lat="45.82793" lon="4.71996">
        <ele>291.65636</ele>
        <time>2022-08-11T15:02:43.000Z</time>
      </trkpt>
      <trkpt lat="45.82792" lon="4.72002">
        <ele>291.95806</ele>
        <time>2022-08-11T15:02:44.000Z</time>
      </trkpt>
      <trkpt lat="45.82791" lon="4.72015">
        <ele>292.72022</ele>
        <time>2022-08-11T15:02:46.000Z</time>
      </trkpt>
      <trkpt lat="45.82789" lon="4.72021">
        <ele>293.14747</ele>
        <time>2022-08-11T15:02:47.000Z</time>
      </trkpt>
      <trkpt lat="45.82788" lon="4.72028">
        <ele>293.55091</ele>
        <time>2022-08-11T15:02:48.000Z</time>
      </trkpt>
      <trkpt lat="45.82786" lon="4.72035">
        <ele>294.05595</ele>
        <time>2022-08-11T15:02:49.000Z</time>
      </trkpt>
      <trkpt lat="45.82782" lon="4.72054">
        <ele>295.29679</ele>
        <time>2022-08-11T15:02:51.000Z</time>
      </trkpt>
      <trkpt lat="45.82779" lon="4.72068">
        <ele>296.33353</ele>
        <time>2022-08-11T15:02:53.000Z</time>
      </trkpt>
      <trkpt lat="45.82778" lon="4.72076">
        <ele>296.88412</ele>
        <time>2022-08-11T15:02:54.000Z</time>
      </trkpt>
      <trkpt lat="45.82776" lon="4.72083">
        <ele>297.40817</ele>
        <time>2022-08-11T15:02:55.000Z</time>
      </trkpt>
      <trkpt lat="45.82774" lon="4.7209">
        <ele>297.88526</ele>
        <time>2022-08-11T15:02:56.000Z</time>
      </trkpt>
      <trkpt lat="45.82772" lon="4.72098">
        <ele>298.52248</ele>
        <time>2022-08-11T15:02:57.000Z</time>
      </trkpt>
      <trkpt lat="45.82767" lon="4.72112">
        <ele>299.34725</ele>
        <time>2022-08-11T15:02:59.000Z</time>
      </trkpt>
      <trkpt lat="45.82765" lon="4.72118">
        <ele>299.68524</ele>
        <time>2022-08-11T15:03:00.000Z</time>
      </trkpt>
      <trkpt lat="45.82762" lon="4.72124">
        <ele>300.02776</ele>
        <time>2022-08-11T15:03:01.000Z</time>
      </trkpt>
      <trkpt lat="45.82762" lon="4.72131">
        <ele>300.59718</ele>
        <time>2022-08-11T15:03:02.000Z</time>
      </trkpt>
      <trkpt lat="45.82759" lon="4.72139">
        <ele>301.10642</ele>
        <time>2022-08-11T15:03:03.000Z</time>
      </trkpt>
      <trkpt lat="45.82758" lon="4.72148">
        <ele>301.67939</ele>
        <time>2022-08-11T15:03:04.000Z</time>
      </trkpt>
      <trkpt lat="45.82755" lon="4.72154">
        <ele>301.91824</ele>
        <time>2022-08-11T15:03:05.000Z</time>
      </trkpt>
      <trkpt lat="45.82752" lon="4.72161">
        <ele>302.19673</ele>
        <time>2022-08-11T15:03:06.000Z</time>
      </trkpt>
      <trkpt lat="45.82749" lon="4.72167">
        <ele>302.45399</ele>
        <time>2022-08-11T15:03:07.000Z</time>
      </trkpt>
      <trkpt lat="45.82747" lon="4.72175">
        <ele>302.86085</ele>
        <time>2022-08-11T15:03:08.000Z</time>
      </trkpt>
      <trkpt lat="45.82743" lon="4.72177">
        <ele>302.78159</ele>
        <time>2022-08-11T15:03:09.000Z</time>
      </trkpt>
      <trkpt lat="45.82742" lon="4.72187">
        <ele>303.57693</ele>
        <time>2022-08-11T15:03:10.000Z</time>
      </trkpt>
      <trkpt lat="45.8274" lon="4.72196">
        <ele>304.17672</ele>
        <time>2022-08-11T15:03:11.000Z</time>
      </trkpt>
      <trkpt lat="45.82738" lon="4.72203">
        <ele>304.57473</ele>
        <time>2022-08-11T15:03:12.000Z</time>
      </trkpt>
      <trkpt lat="45.82735" lon="4.72213">
        <ele>305.08414</ele>
        <time>2022-08-11T15:03:13.000Z</time>
      </trkpt>
      <trkpt lat="45.82733" lon="4.72221">
        <ele>305.50906</ele>
        <time>2022-08-11T15:03:14.000Z</time>
      </trkpt>
      <trkpt lat="45.82731" lon="4.72229">
        <ele>305.91556</ele>
        <time>2022-08-11T15:03:15.000Z</time>
      </trkpt>
      <trkpt lat="45.82729" lon="4.72237">
        <ele>306.20517</ele>
        <time>2022-08-11T15:03:16.000Z</time>
      </trkpt>
      <trkpt lat="45.82727" lon="4.72245">
        <ele>306.46555</ele>
        <time>2022-08-11T15:03:17.000Z</time>
      </trkpt>
      <trkpt lat="45.82725" lon="4.72256">
        <ele>306.84261</ele>
        <time>2022-08-11T15:03:18.000Z</time>
      </trkpt>
      <trkpt lat="45.82724" lon="4.72264">
        <ele>307.29367</ele>
        <time>2022-08-11T15:03:19.000Z</time>
      </trkpt>
      <trkpt lat="45.82721" lon="4.72272">
        <ele>307.89675</ele>
        <time>2022-08-11T15:03:20.000Z</time>
      </trkpt>
      <trkpt lat="45.82719" lon="4.7228">
        <ele>308.56532</ele>
        <time>2022-08-11T15:03:21.000Z</time>
      </trkpt>
      <trkpt lat="45.82716" lon="4.72283">
        <ele>308.71623</ele>
        <time>2022-08-11T15:03:22.000Z</time>
      </trkpt>
      <trkpt lat="45.82714" lon="4.7229">
        <ele>309.19125</ele>
        <time>2022-08-11T15:03:23.000Z</time>
      </trkpt>
      <trkpt lat="45.82713" lon="4.72298">
        <ele>309.72606</ele>
        <time>2022-08-11T15:03:24.000Z</time>
      </trkpt>
      <trkpt lat="45.82712" lon="4.72306">
        <ele>310.20807</ele>
        <time>2022-08-11T15:03:25.000Z</time>
      </trkpt>
      <trkpt lat="45.82709" lon="4.72315">
        <ele>310.72356</ele>
        <time>2022-08-11T15:03:26.000Z</time>
      </trkpt>
      <trkpt lat="45.82707" lon="4.72324">
        <ele>311.14366</ele>
        <time>2022-08-11T15:03:27.000Z</time>
      </trkpt>
      <trkpt lat="45.82706" lon="4.72331">
        <ele>311.41543</ele>
        <time>2022-08-11T15:03:28.000Z</time>
      </trkpt>
      <trkpt lat="45.82704" lon="4.7234">
        <ele>311.65509</ele>
        <time>2022-08-11T15:03:29.000Z</time>
      </trkpt>
      <trkpt lat="45.82702" lon="4.72347">
        <ele>311.84928</ele>
        <time>2022-08-11T15:03:30.000Z</time>
      </trkpt>
      <trkpt lat="45.82698" lon="4.72355">
        <ele>312.1528</ele>
        <time>2022-08-11T15:03:31.000Z</time>
      </trkpt>
      <trkpt lat="45.82698" lon="4.72365">
        <ele>312.49946</ele>
        <time>2022-08-11T15:03:32.000Z</time>
      </trkpt>
      <trkpt lat="45.82694" lon="4.72372">
        <ele>312.86593</ele>
        <time>2022-08-11T15:03:33.000Z</time>
      </trkpt>
      <trkpt lat="45.82691" lon="4.7238">
        <ele>313.26943</ele>
        <time>2022-08-11T15:03:34.000Z</time>
      </trkpt>
      <trkpt lat="45.82688" lon="4.72387">
        <ele>313.62543</ele>
        <time>2022-08-11T15:03:35.000Z</time>
      </trkpt>
      <trkpt lat="45.82685" lon="4.72393">
        <ele>313.97989</ele>
        <time>2022-08-11T15:03:36.000Z</time>
      </trkpt>
      <trkpt lat="45.82682" lon="4.72402">
        <ele>314.45719</ele>
        <time>2022-08-11T15:03:37.000Z</time>
      </trkpt>
      <trkpt lat="45.82677" lon="4.72417">
        <ele>315.28976</ele>
        <time>2022-08-11T15:03:39.000Z</time>
      </trkpt>
      <trkpt lat="45.82674" lon="4.72425">
        <ele>315.71234</ele>
        <time>2022-08-11T15:03:40.000Z</time>
      </trkpt>
      <trkpt lat="45.8267" lon="4.72432">
        <ele>316.12735</ele>
        <time>2022-08-11T15:03:41.000Z</time>
      </trkpt>
      <trkpt lat="45.82667" lon="4.7244">
        <ele>316.60203</ele>
        <time>2022-08-11T15:03:42.000Z</time>
      </trkpt>
      <trkpt lat="45.82664" lon="4.72447">
        <ele>316.96667</ele>
        <time>2022-08-11T15:03:43.000Z</time>
      </trkpt>
      <trkpt lat="45.82662" lon="4.72453">
        <ele>317.28498</ele>
        <time>2022-08-11T15:03:44.000Z</time>
      </trkpt>
      <trkpt lat="45.82659" lon="4.7246">
        <ele>317.63343</ele>
        <time>2022-08-11T15:03:45.000Z</time>
      </trkpt>
      <trkpt lat="45.82656" lon="4.72468">
        <ele>317.99211</ele>
        <time>2022-08-11T15:03:46.000Z</time>
      </trkpt>
      <trkpt lat="45.82652" lon="4.72475">
        <ele>318.34929</ele>
        <time>2022-08-11T15:03:47.000Z</time>
      </trkpt>
      <trkpt lat="45.82647" lon="4.72486">
        <ele>318.90885</ele>
        <time>2022-08-11T15:03:48.000Z</time>
      </trkpt>
      <trkpt lat="45.82644" lon="4.72495">
        <ele>319.29398</ele>
        <time>2022-08-11T15:03:49.000Z</time>
      </trkpt>
      <trkpt lat="45.82642" lon="4.72502">
        <ele>319.63991</ele>
        <time>2022-08-11T15:03:50.000Z</time>
      </trkpt>
      <trkpt lat="45.82639" lon="4.7251">
        <ele>320.04767</ele>
        <time>2022-08-11T15:03:51.000Z</time>
      </trkpt>
      <trkpt lat="45.82636" lon="4.72517">
        <ele>320.40488</ele>
        <time>2022-08-11T15:03:52.000Z</time>
      </trkpt>
      <trkpt lat="45.82631" lon="4.72528">
        <ele>321.03569</ele>
        <time>2022-08-11T15:03:54.000Z</time>
      </trkpt>
      <trkpt lat="45.82628" lon="4.72533">
        <ele>321.33768</ele>
        <time>2022-08-11T15:03:55.000Z</time>
      </trkpt>
      <trkpt lat="45.82625" lon="4.72541">
        <ele>321.87074</ele>
        <time>2022-08-11T15:03:56.000Z</time>
      </trkpt>
      <trkpt lat="45.82623" lon="4.72548">
        <ele>322.3441</ele>
        <time>2022-08-11T15:03:57.000Z</time>
      </trkpt>
      <trkpt lat="45.82621" lon="4.72555">
        <ele>322.87707</ele>
        <time>2022-08-11T15:03:58.000Z</time>
      </trkpt>
      <trkpt lat="45.82618" lon="4.72562">
        <ele>323.36964</ele>
        <time>2022-08-11T15:03:59.000Z</time>
      </trkpt>
      <trkpt lat="45.82616" lon="4.72567">
        <ele>323.71384</ele>
        <time>2022-08-11T15:04:00.000Z</time>
      </trkpt>
      <trkpt lat="45.82615" lon="4.72572">
        <ele>323.99062</ele>
        <time>2022-08-11T15:04:01.000Z</time>
      </trkpt>
      <trkpt lat="45.82612" lon="4.72578">
        <ele>324.37629</ele>
        <time>2022-08-11T15:04:02.000Z</time>
      </trkpt>
      <trkpt lat="45.82611" lon="4.72582">
        <ele>324.69707</ele>
        <time>2022-08-11T15:04:03.000Z</time>
      </trkpt>
      <trkpt lat="45.82608" lon="4.72589">
        <ele>325.24458</ele>
        <time>2022-08-11T15:04:04.000Z</time>
      </trkpt>
      <trkpt lat="45.82606" lon="4.72594">
        <ele>325.72142</ele>
        <time>2022-08-11T15:04:05.000Z</time>
      </trkpt>
      <trkpt lat="45.82605" lon="4.72598">
        <ele>326.07981</ele>
        <time>2022-08-11T15:04:06.000Z</time>
      </trkpt>
      <trkpt lat="45.82603" lon="4.72603">
        <ele>326.54888</ele>
        <time>2022-08-11T15:04:07.000Z</time>
      </trkpt>
      <trkpt lat="45.82601" lon="4.72608">
        <ele>326.94919</ele>
        <time>2022-08-11T15:04:08.000Z</time>
      </trkpt>
      <trkpt lat="45.826" lon="4.72615">
        <ele>327.36733</ele>
        <time>2022-08-11T15:04:09.000Z</time>
      </trkpt>
      <trkpt lat="45.82597" lon="4.72623">
        <ele>327.9444</ele>
        <time>2022-08-11T15:04:10.000Z</time>
      </trkpt>
      <trkpt lat="45.82596" lon="4.72629">
        <ele>328.33588</ele>
        <time>2022-08-11T15:04:11.000Z</time>
      </trkpt>
      <trkpt lat="45.82593" lon="4.72634">
        <ele>328.82287</ele>
        <time>2022-08-11T15:04:12.000Z</time>
      </trkpt>
      <trkpt lat="45.8259" lon="4.72639">
        <ele>329.30071</ele>
        <time>2022-08-11T15:04:13.000Z</time>
      </trkpt>
      <trkpt lat="45.82588" lon="4.72644">
        <ele>329.70092</ele>
        <time>2022-08-11T15:04:14.000Z</time>
      </trkpt>
      <trkpt lat="45.82586" lon="4.72648">
        <ele>330.04403</ele>
        <time>2022-08-11T15:04:15.000Z</time>
      </trkpt>
      <trkpt lat="45.82584" lon="4.72652">
        <ele>330.40725</ele>
        <time>2022-08-11T15:04:16.000Z</time>
      </trkpt>
      <trkpt lat="45.82582" lon="4.72656">
        <ele>330.75723</ele>
        <time>2022-08-11T15:04:17.000Z</time>
      </trkpt>
      <trkpt lat="45.8258" lon="4.7266">
        <ele>331.09987</ele>
        <time>2022-08-11T15:04:18.000Z</time>
      </trkpt>
      <trkpt lat="45.82578" lon="4.72665">
        <ele>331.5064</ele>
        <time>2022-08-11T15:04:19.000Z</time>
      </trkpt>
      <trkpt lat="45.82576" lon="4.7267">
        <ele>331.9401</ele>
        <time>2022-08-11T15:04:20.000Z</time>
      </trkpt>
      <trkpt lat="45.82574" lon="4.72674">
        <ele>332.39019</ele>
        <time>2022-08-11T15:04:21.000Z</time>
      </trkpt>
      <trkpt lat="45.82571" lon="4.7268">
        <ele>332.90812</ele>
        <time>2022-08-11T15:04:22.000Z</time>
      </trkpt>
      <trkpt lat="45.82569" lon="4.72686">
        <ele>333.46872</ele>
        <time>2022-08-11T15:04:23.000Z</time>
      </trkpt>
      <trkpt lat="45.82568" lon="4.72691">
        <ele>333.95284</ele>
        <time>2022-08-11T15:04:24.000Z</time>
      </trkpt>
      <trkpt lat="45.82566" lon="4.72695">
        <ele>334.34603</ele>
        <time>2022-08-11T15:04:25.000Z</time>
      </trkpt>
      <trkpt lat="45.82566" lon="4.727">
        <ele>334.67079</ele>
        <time>2022-08-11T15:04:26.000Z</time>
      </trkpt>
      <trkpt lat="45.82565" lon="4.72706">
        <ele>334.90862</ele>
        <time>2022-08-11T15:04:27.000Z</time>
      </trkpt>
      <trkpt lat="45.82564" lon="4.72712">
        <ele>335.00399</ele>
        <time>2022-08-11T15:04:28.000Z</time>
      </trkpt>
      <trkpt lat="45.82563" lon="4.72718">
        <ele>334.97795</ele>
        <time>2022-08-11T15:04:29.000Z</time>
      </trkpt>
      <trkpt lat="45.82563" lon="4.72724">
        <ele>334.85959</ele>
        <time>2022-08-11T15:04:30.000Z</time>
      </trkpt>
      <trkpt lat="45.82562" lon="4.72729">
        <ele>334.76022</ele>
        <time>2022-08-11T15:04:31.000Z</time>
      </trkpt>
      <trkpt lat="45.82561" lon="4.72735">
        <ele>334.71821</ele>
        <time>2022-08-11T15:04:32.000Z</time>
      </trkpt>
      <trkpt lat="45.82561" lon="4.72741">
        <ele>334.81956</ele>
        <time>2022-08-11T15:04:33.000Z</time>
      </trkpt>
      <trkpt lat="45.8256" lon="4.72748">
        <ele>335.1019</ele>
        <time>2022-08-11T15:04:34.000Z</time>
      </trkpt>
      <trkpt lat="45.82559" lon="4.72754">
        <ele>335.47629</ele>
        <time>2022-08-11T15:04:35.000Z</time>
      </trkpt>
      <trkpt lat="45.82558" lon="4.7276">
        <ele>335.84928</ele>
        <time>2022-08-11T15:04:36.000Z</time>
      </trkpt>
      <trkpt lat="45.82557" lon="4.72765">
        <ele>336.18748</ele>
        <time>2022-08-11T15:04:37.000Z</time>
      </trkpt>
      <trkpt lat="45.82557" lon="4.7277">
        <ele>336.45618</ele>
        <time>2022-08-11T15:04:38.000Z</time>
      </trkpt>
      <trkpt lat="45.82556" lon="4.72775">
        <ele>336.70769</ele>
        <time>2022-08-11T15:04:39.000Z</time>
      </trkpt>
      <trkpt lat="45.82556" lon="4.7278">
        <ele>336.93084</ele>
        <time>2022-08-11T15:04:40.000Z</time>
      </trkpt>
      <trkpt lat="45.82556" lon="4.72785">
        <ele>337.16621</ele>
        <time>2022-08-11T15:04:41.000Z</time>
      </trkpt>
      <trkpt lat="45.82555" lon="4.72795">
        <ele>337.65855</ele>
        <time>2022-08-11T15:04:43.000Z</time>
      </trkpt>
      <trkpt lat="45.82555" lon="4.72801">
        <ele>337.87394</ele>
        <time>2022-08-11T15:04:44.000Z</time>
      </trkpt>
      <trkpt lat="45.82555" lon="4.72806">
        <ele>338.06784</ele>
        <time>2022-08-11T15:04:45.000Z</time>
      </trkpt>
      <trkpt lat="45.82555" lon="4.72811">
        <ele>338.25675</ele>
        <time>2022-08-11T15:04:46.000Z</time>
      </trkpt>
      <trkpt lat="45.82555" lon="4.72817">
        <ele>338.516</ele>
        <time>2022-08-11T15:04:47.000Z</time>
      </trkpt>
      <trkpt lat="45.82555" lon="4.72824">
        <ele>338.7781</ele>
        <time>2022-08-11T15:04:48.000Z</time>
      </trkpt>
      <trkpt lat="45.82555" lon="4.7283">
        <ele>339.07911</ele>
        <time>2022-08-11T15:04:49.000Z</time>
      </trkpt>
      <trkpt lat="45.82554" lon="4.72836">
        <ele>339.34857</ele>
        <time>2022-08-11T15:04:50.000Z</time>
      </trkpt>
      <trkpt lat="45.82554" lon="4.72842">
        <ele>339.60229</ele>
        <time>2022-08-11T15:04:51.000Z</time>
      </trkpt>
      <trkpt lat="45.82554" lon="4.72848">
        <ele>339.83058</ele>
        <time>2022-08-11T15:04:52.000Z</time>
      </trkpt>
      <trkpt lat="45.82554" lon="4.72854">
        <ele>340.06032</ele>
        <time>2022-08-11T15:04:53.000Z</time>
      </trkpt>
      <trkpt lat="45.82554" lon="4.7286">
        <ele>340.29413</ele>
        <time>2022-08-11T15:04:54.000Z</time>
      </trkpt>
      <trkpt lat="45.82554" lon="4.72866">
        <ele>340.53679</ele>
        <time>2022-08-11T15:04:55.000Z</time>
      </trkpt>
      <trkpt lat="45.82554" lon="4.72873">
        <ele>340.80513</ele>
        <time>2022-08-11T15:04:56.000Z</time>
      </trkpt>
      <trkpt lat="45.82554" lon="4.72879">
        <ele>341.04853</ele>
        <time>2022-08-11T15:04:57.000Z</time>
      </trkpt>
      <trkpt lat="45.82555" lon="4.72885">
        <ele>341.26001</ele>
        <time>2022-08-11T15:04:58.000Z</time>
      </trkpt>
      <trkpt lat="45.82555" lon="4.72891">
        <ele>341.49232</ele>
        <time>2022-08-11T15:04:59.000Z</time>
      </trkpt>
      <trkpt lat="45.82556" lon="4.72897">
        <ele>341.70661</ele>
        <time>2022-08-11T15:05:00.000Z</time>
      </trkpt>
      <trkpt lat="45.82556" lon="4.72903">
        <ele>341.95283</ele>
        <time>2022-08-11T15:05:01.000Z</time>
      </trkpt>
      <trkpt lat="45.82557" lon="4.72909">
        <ele>342.25605</ele>
        <time>2022-08-11T15:05:02.000Z</time>
      </trkpt>
      <trkpt lat="45.82558" lon="4.72916">
        <ele>342.55305</ele>
        <time>2022-08-11T15:05:03.000Z</time>
      </trkpt>
      <trkpt lat="45.82559" lon="4.72922">
        <ele>342.81634</ele>
        <time>2022-08-11T15:05:04.000Z</time>
      </trkpt>
      <trkpt lat="45.82561" lon="4.72929">
        <ele>342.95353</ele>
        <time>2022-08-11T15:05:05.000Z</time>
      </trkpt>
      <trkpt lat="45.82562" lon="4.72935">
        <ele>343.22286</ele>
        <time>2022-08-11T15:05:06.000Z</time>
      </trkpt>
      <trkpt lat="45.82563" lon="4.7294">
        <ele>343.27803</ele>
        <time>2022-08-11T15:05:07.000Z</time>
      </trkpt>
      <trkpt lat="45.82565" lon="4.72947">
        <ele>343.45015</ele>
        <time>2022-08-11T15:05:08.000Z</time>
      </trkpt>
      <trkpt lat="45.82566" lon="4.72953">
        <ele>343.59537</ele>
        <time>2022-08-11T15:05:09.000Z</time>
      </trkpt>
      <trkpt lat="45.82567" lon="4.72958">
        <ele>343.64448</ele>
        <time>2022-08-11T15:05:10.000Z</time>
      </trkpt>
      <trkpt lat="45.82569" lon="4.72963">
        <ele>343.71277</ele>
        <time>2022-08-11T15:05:11.000Z</time>
      </trkpt>
      <trkpt lat="45.8257" lon="4.72968">
        <ele>343.6907</ele>
        <time>2022-08-11T15:05:12.000Z</time>
      </trkpt>
      <trkpt lat="45.82572" lon="4.72974">
        <ele>343.72295</ele>
        <time>2022-08-11T15:05:13.000Z</time>
      </trkpt>
      <trkpt lat="45.82574" lon="4.7298">
        <ele>343.76435</ele>
        <time>2022-08-11T15:05:14.000Z</time>
      </trkpt>
      <trkpt lat="45.82575" lon="4.72985">
        <ele>343.7834</ele>
        <time>2022-08-11T15:05:15.000Z</time>
      </trkpt>
      <trkpt lat="45.82577" lon="4.72989">
        <ele>343.79917</ele>
        <time>2022-08-11T15:05:16.000Z</time>
      </trkpt>
      <trkpt lat="45.8258" lon="4.72999">
        <ele>343.85909</ele>
        <time>2022-08-11T15:05:17.000Z</time>
      </trkpt>
      <trkpt lat="45.82581" lon="4.73005">
        <ele>343.85832</ele>
        <time>2022-08-11T15:05:18.000Z</time>
      </trkpt>
      <trkpt lat="45.82585" lon="4.73012">
        <ele>343.73375</ele>
        <time>2022-08-11T15:05:19.000Z</time>
      </trkpt>
      <trkpt lat="45.82586" lon="4.73017">
        <ele>343.75403</ele>
        <time>2022-08-11T15:05:20.000Z</time>
      </trkpt>
      <trkpt lat="45.82589" lon="4.73025">
        <ele>343.79694</ele>
        <time>2022-08-11T15:05:21.000Z</time>
      </trkpt>
      <trkpt lat="45.82591" lon="4.73031">
        <ele>343.9436</ele>
        <time>2022-08-11T15:05:22.000Z</time>
      </trkpt>
      <trkpt lat="45.82593" lon="4.73036">
        <ele>344.06719</ele>
        <time>2022-08-11T15:05:23.000Z</time>
      </trkpt>
      <trkpt lat="45.82595" lon="4.73042">
        <ele>344.27947</ele>
        <time>2022-08-11T15:05:24.000Z</time>
      </trkpt>
      <trkpt lat="45.82597" lon="4.73047">
        <ele>344.35649</ele>
        <time>2022-08-11T15:05:25.000Z</time>
      </trkpt>
      <trkpt lat="45.82599" lon="4.73052">
        <ele>344.48057</ele>
        <time>2022-08-11T15:05:26.000Z</time>
      </trkpt>
      <trkpt lat="45.82602" lon="4.73059">
        <ele>344.60439</ele>
        <time>2022-08-11T15:05:27.000Z</time>
      </trkpt>
      <trkpt lat="45.82604" lon="4.73063">
        <ele>344.69525</ele>
        <time>2022-08-11T15:05:28.000Z</time>
      </trkpt>
      <trkpt lat="45.82605" lon="4.73068">
        <ele>344.82194</ele>
        <time>2022-08-11T15:05:29.000Z</time>
      </trkpt>
      <trkpt lat="45.82608" lon="4.73075">
        <ele>344.91382</ele>
        <time>2022-08-11T15:05:30.000Z</time>
      </trkpt>
      <trkpt lat="45.8261" lon="4.73079">
        <ele>344.97712</ele>
        <time>2022-08-11T15:05:31.000Z</time>
      </trkpt>
      <trkpt lat="45.82613" lon="4.73086">
        <ele>345.14049</ele>
        <time>2022-08-11T15:05:32.000Z</time>
      </trkpt>
      <trkpt lat="45.82615" lon="4.73093">
        <ele>345.38661</ele>
        <time>2022-08-11T15:05:33.000Z</time>
      </trkpt>
      <trkpt lat="45.82617" lon="4.73099">
        <ele>345.65046</ele>
        <time>2022-08-11T15:05:34.000Z</time>
      </trkpt>
      <trkpt lat="45.82621" lon="4.73112">
        <ele>346.10599</ele>
        <time>2022-08-11T15:05:36.000Z</time>
      </trkpt>
      <trkpt lat="45.82624" lon="4.73118">
        <ele>346.26968</ele>
        <time>2022-08-11T15:05:37.000Z</time>
      </trkpt>
      <trkpt lat="45.82626" lon="4.73126">
        <ele>346.44191</ele>
        <time>2022-08-11T15:05:38.000Z</time>
      </trkpt>
      <trkpt lat="45.82628" lon="4.73133">
        <ele>346.75477</ele>
        <time>2022-08-11T15:05:39.000Z</time>
      </trkpt>
      <trkpt lat="45.82634" lon="4.73152">
        <ele>347.22305</ele>
        <time>2022-08-11T15:05:41.000Z</time>
      </trkpt>
      <trkpt lat="45.82635" lon="4.73159">
        <ele>347.51568</ele>
        <time>2022-08-11T15:05:42.000Z</time>
      </trkpt>
      <trkpt lat="45.82637" lon="4.73171">
        <ele>347.79233</ele>
        <time>2022-08-11T15:05:44.000Z</time>
      </trkpt>
      <trkpt lat="45.82639" lon="4.73178">
        <ele>347.90688</ele>
        <time>2022-08-11T15:05:45.000Z</time>
      </trkpt>
      <trkpt lat="45.82641" lon="4.73186">
        <ele>348.02147</ele>
        <time>2022-08-11T15:05:46.000Z</time>
      </trkpt>
      <trkpt lat="45.82642" lon="4.732">
        <ele>348.54418</ele>
        <time>2022-08-11T15:05:48.000Z</time>
      </trkpt>
      <trkpt lat="45.82644" lon="4.73208">
        <ele>348.76401</ele>
        <time>2022-08-11T15:05:49.000Z</time>
      </trkpt>
      <trkpt lat="45.82645" lon="4.73215">
        <ele>348.94779</ele>
        <time>2022-08-11T15:05:50.000Z</time>
      </trkpt>
      <trkpt lat="45.82646" lon="4.73222">
        <ele>349.17054</ele>
        <time>2022-08-11T15:05:51.000Z</time>
      </trkpt>
      <trkpt lat="45.82647" lon="4.73229">
        <ele>349.35027</ele>
        <time>2022-08-11T15:05:52.000Z</time>
      </trkpt>
      <trkpt lat="45.82648" lon="4.73235">
        <ele>349.56615</ele>
        <time>2022-08-11T15:05:53.000Z</time>
      </trkpt>
      <trkpt lat="45.8265" lon="4.73249">
        <ele>349.85568</ele>
        <time>2022-08-11T15:05:55.000Z</time>
      </trkpt>
      <trkpt lat="45.8265" lon="4.73256">
        <ele>350.05426</ele>
        <time>2022-08-11T15:05:56.000Z</time>
      </trkpt>
      <trkpt lat="45.82652" lon="4.73262">
        <ele>349.93547</ele>
        <time>2022-08-11T15:05:57.000Z</time>
      </trkpt>
      <trkpt lat="45.82652" lon="4.73268">
        <ele>350.04206</ele>
        <time>2022-08-11T15:05:58.000Z</time>
      </trkpt>
      <trkpt lat="45.82653" lon="4.73274">
        <ele>350.16669</ele>
        <time>2022-08-11T15:05:59.000Z</time>
      </trkpt>
      <trkpt lat="45.82653" lon="4.73281">
        <ele>350.33256</ele>
        <time>2022-08-11T15:06:00.000Z</time>
      </trkpt>
      <trkpt lat="45.82653" lon="4.73288">
        <ele>350.42672</ele>
        <time>2022-08-11T15:06:01.000Z</time>
      </trkpt>
      <trkpt lat="45.82654" lon="4.73294">
        <ele>350.37116</ele>
        <time>2022-08-11T15:06:02.000Z</time>
      </trkpt>
      <trkpt lat="45.82655" lon="4.733">
        <ele>350.38489</ele>
        <time>2022-08-11T15:06:03.000Z</time>
      </trkpt>
      <trkpt lat="45.82655" lon="4.73305">
        <ele>350.36083</ele>
        <time>2022-08-11T15:06:04.000Z</time>
      </trkpt>
      <trkpt lat="45.82656" lon="4.73312">
        <ele>350.25919</ele>
        <time>2022-08-11T15:06:05.000Z</time>
      </trkpt>
      <trkpt lat="45.82656" lon="4.73316">
        <ele>350.22922</ele>
        <time>2022-08-11T15:06:06.000Z</time>
      </trkpt>
      <trkpt lat="45.82657" lon="4.73322">
        <ele>350.16364</ele>
        <time>2022-08-11T15:06:07.000Z</time>
      </trkpt>
      <trkpt lat="45.82658" lon="4.73328">
        <ele>350.05794</ele>
        <time>2022-08-11T15:06:08.000Z</time>
      </trkpt>
      <trkpt lat="45.82661" lon="4.73335">
        <ele>349.8388</ele>
        <time>2022-08-11T15:06:09.000Z</time>
      </trkpt>
      <trkpt lat="45.82662" lon="4.73342">
        <ele>349.84897</ele>
        <time>2022-08-11T15:06:10.000Z</time>
      </trkpt>
      <trkpt lat="45.82663" lon="4.73347">
        <ele>349.90071</ele>
        <time>2022-08-11T15:06:11.000Z</time>
      </trkpt>
      <trkpt lat="45.82663" lon="4.73355">
        <ele>349.99797</ele>
        <time>2022-08-11T15:06:12.000Z</time>
      </trkpt>
      <trkpt lat="45.82664" lon="4.73362">
        <ele>350.1097</ele>
        <time>2022-08-11T15:06:13.000Z</time>
      </trkpt>
      <trkpt lat="45.82665" lon="4.73369">
        <ele>350.1974</ele>
        <time>2022-08-11T15:06:14.000Z</time>
      </trkpt>
      <trkpt lat="45.82666" lon="4.73376">
        <ele>350.2631</ele>
        <time>2022-08-11T15:06:15.000Z</time>
      </trkpt>
      <trkpt lat="45.82667" lon="4.73382">
        <ele>350.28828</ele>
        <time>2022-08-11T15:06:16.000Z</time>
      </trkpt>
      <trkpt lat="45.82669" lon="4.7339">
        <ele>350.12099</ele>
        <time>2022-08-11T15:06:17.000Z</time>
      </trkpt>
      <trkpt lat="45.8267" lon="4.73395">
        <ele>350.07157</ele>
        <time>2022-08-11T15:06:18.000Z</time>
      </trkpt>
      <trkpt lat="45.82671" lon="4.73404">
        <ele>350.17008</ele>
        <time>2022-08-11T15:06:19.000Z</time>
      </trkpt>
      <trkpt lat="45.82671" lon="4.7341">
        <ele>350.29494</ele>
        <time>2022-08-11T15:06:20.000Z</time>
      </trkpt>
      <trkpt lat="45.82671" lon="4.73417">
        <ele>350.37817</ele>
        <time>2022-08-11T15:06:21.000Z</time>
      </trkpt>
      <trkpt lat="45.82672" lon="4.73423">
        <ele>350.3774</ele>
        <time>2022-08-11T15:06:22.000Z</time>
      </trkpt>
      <trkpt lat="45.82673" lon="4.73429">
        <ele>350.37459</ele>
        <time>2022-08-11T15:06:23.000Z</time>
      </trkpt>
      <trkpt lat="45.82673" lon="4.73434">
        <ele>350.53631</ele>
        <time>2022-08-11T15:06:24.000Z</time>
      </trkpt>
      <trkpt lat="45.82673" lon="4.73441">
        <ele>350.59883</ele>
        <time>2022-08-11T15:06:25.000Z</time>
      </trkpt>
      <trkpt lat="45.82671" lon="4.73445">
        <ele>350.87248</ele>
        <time>2022-08-11T15:06:26.000Z</time>
      </trkpt>
      <trkpt lat="45.82671" lon="4.73451">
        <ele>350.97376</ele>
        <time>2022-08-11T15:06:27.000Z</time>
      </trkpt>
      <trkpt lat="45.8267" lon="4.73455">
        <ele>351.11017</ele>
        <time>2022-08-11T15:06:28.000Z</time>
      </trkpt>
      <trkpt lat="45.82668" lon="4.73458">
        <ele>351.32874</ele>
        <time>2022-08-11T15:06:29.000Z</time>
      </trkpt>
      <trkpt lat="45.82669" lon="4.73462">
        <ele>351.15573</ele>
        <time>2022-08-11T15:06:30.000Z</time>
      </trkpt>
      <trkpt lat="45.8267" lon="4.73468">
        <ele>351.08812</ele>
        <time>2022-08-11T15:06:31.000Z</time>
      </trkpt>
      <trkpt lat="45.82671" lon="4.73472">
        <ele>350.97936</ele>
        <time>2022-08-11T15:06:32.000Z</time>
      </trkpt>
      <trkpt lat="45.8267" lon="4.7348">
        <ele>350.95049</ele>
        <time>2022-08-11T15:06:34.000Z</time>
      </trkpt>
      <trkpt lat="45.8267" lon="4.73484">
        <ele>350.89341</ele>
        <time>2022-08-11T15:06:35.000Z</time>
      </trkpt>
      <trkpt lat="45.8267" lon="4.73487">
        <ele>350.84852</ele>
        <time>2022-08-11T15:06:36.000Z</time>
      </trkpt>
      <trkpt lat="45.82669" lon="4.73491">
        <ele>350.80955</ele>
        <time>2022-08-11T15:06:37.000Z</time>
      </trkpt>
      <trkpt lat="45.82669" lon="4.73494">
        <ele>350.79994</ele>
        <time>2022-08-11T15:06:38.000Z</time>
      </trkpt>
      <trkpt lat="45.82668" lon="4.73498">
        <ele>350.78944</ele>
        <time>2022-08-11T15:06:39.000Z</time>
      </trkpt>
      <trkpt lat="45.82666" lon="4.73502">
        <ele>350.76529</ele>
        <time>2022-08-11T15:06:40.000Z</time>
      </trkpt>
      <trkpt lat="45.82665" lon="4.73505">
        <ele>350.71878</ele>
        <time>2022-08-11T15:06:41.000Z</time>
      </trkpt>
      <trkpt lat="45.82665" lon="4.73509">
        <ele>350.60185</ele>
        <time>2022-08-11T15:06:42.000Z</time>
      </trkpt>
      <trkpt lat="45.82665" lon="4.73513">
        <ele>350.49985</ele>
        <time>2022-08-11T15:06:43.000Z</time>
      </trkpt>
      <trkpt lat="45.82664" lon="4.73517">
        <ele>350.40567</ele>
        <time>2022-08-11T15:06:44.000Z</time>
      </trkpt>
      <trkpt lat="45.82663" lon="4.73522">
        <ele>350.26862</ele>
        <time>2022-08-11T15:06:45.000Z</time>
      </trkpt>
      <trkpt lat="45.82662" lon="4.73528">
        <ele>350.08238</ele>
        <time>2022-08-11T15:06:46.000Z</time>
      </trkpt>
      <trkpt lat="45.8266" lon="4.73535">
        <ele>349.8889</ele>
        <time>2022-08-11T15:06:47.000Z</time>
      </trkpt>
      <trkpt lat="45.82658" lon="4.73541">
        <ele>349.73496</ele>
        <time>2022-08-11T15:06:48.000Z</time>
      </trkpt>
      <trkpt lat="45.82656" lon="4.73547">
        <ele>349.61933</ele>
        <time>2022-08-11T15:06:49.000Z</time>
      </trkpt>
      <trkpt lat="45.82654" lon="4.73556">
        <ele>349.53851</ele>
        <time>2022-08-11T15:06:50.000Z</time>
      </trkpt>
      <trkpt lat="45.82652" lon="4.73562">
        <ele>349.5016</ele>
        <time>2022-08-11T15:06:51.000Z</time>
      </trkpt>
      <trkpt lat="45.8265" lon="4.73568">
        <ele>349.48926</ele>
        <time>2022-08-11T15:06:52.000Z</time>
      </trkpt>
      <trkpt lat="45.82649" lon="4.73573">
        <ele>349.33866</ele>
        <time>2022-08-11T15:06:53.000Z</time>
      </trkpt>
      <trkpt lat="45.82647" lon="4.7358">
        <ele>349.05516</ele>
        <time>2022-08-11T15:06:54.000Z</time>
      </trkpt>
      <trkpt lat="45.82647" lon="4.73588">
        <ele>348.3076</ele>
        <time>2022-08-11T15:06:55.000Z</time>
      </trkpt>
      <trkpt lat="45.82646" lon="4.73594">
        <ele>347.59418</ele>
        <time>2022-08-11T15:06:56.000Z</time>
      </trkpt>
      <trkpt lat="45.82645" lon="4.73598">
        <ele>346.99045</ele>
        <time>2022-08-11T15:06:57.000Z</time>
      </trkpt>
      <trkpt lat="45.82644" lon="4.73602">
        <ele>346.58263</ele>
        <time>2022-08-11T15:06:58.000Z</time>
      </trkpt>
      <trkpt lat="45.82644" lon="4.73606">
        <ele>346.05593</ele>
        <time>2022-08-11T15:06:59.000Z</time>
      </trkpt>
      <trkpt lat="45.82642" lon="4.73611">
        <ele>345.6086</ele>
        <time>2022-08-11T15:07:00.000Z</time>
      </trkpt>
      <trkpt lat="45.8264" lon="4.73615">
        <ele>345.33855</ele>
        <time>2022-08-11T15:07:01.000Z</time>
      </trkpt>
      <trkpt lat="45.82638" lon="4.73619">
        <ele>345.14315</ele>
        <time>2022-08-11T15:07:02.000Z</time>
      </trkpt>
      <trkpt lat="45.82636" lon="4.73622">
        <ele>345.00636</ele>
        <time>2022-08-11T15:07:03.000Z</time>
      </trkpt>
      <trkpt lat="45.82633" lon="4.73626">
        <ele>344.86441</ele>
        <time>2022-08-11T15:07:04.000Z</time>
      </trkpt>
      <trkpt lat="45.82631" lon="4.73629">
        <ele>344.66663</ele>
        <time>2022-08-11T15:07:05.000Z</time>
      </trkpt>
      <trkpt lat="45.82629" lon="4.73632">
        <ele>344.35068</ele>
        <time>2022-08-11T15:07:06.000Z</time>
      </trkpt>
      <trkpt lat="45.82627" lon="4.73636">
        <ele>343.93674</ele>
        <time>2022-08-11T15:07:07.000Z</time>
      </trkpt>
      <trkpt lat="45.82624" lon="4.73641">
        <ele>343.42399</ele>
        <time>2022-08-11T15:07:08.000Z</time>
      </trkpt>
      <trkpt lat="45.82622" lon="4.73646">
        <ele>342.86547</ele>
        <time>2022-08-11T15:07:09.000Z</time>
      </trkpt>
      <trkpt lat="45.82621" lon="4.73651">
        <ele>342.38848</ele>
        <time>2022-08-11T15:07:10.000Z</time>
      </trkpt>
      <trkpt lat="45.82619" lon="4.73657">
        <ele>342.03751</ele>
        <time>2022-08-11T15:07:11.000Z</time>
      </trkpt>
      <trkpt lat="45.82618" lon="4.73663">
        <ele>341.7473</ele>
        <time>2022-08-11T15:07:12.000Z</time>
      </trkpt>
      <trkpt lat="45.82618" lon="4.73669">
        <ele>341.4853</ele>
        <time>2022-08-11T15:07:13.000Z</time>
      </trkpt>
      <trkpt lat="45.82618" lon="4.73675">
        <ele>341.22783</ele>
        <time>2022-08-11T15:07:14.000Z</time>
      </trkpt>
      <trkpt lat="45.82618" lon="4.7368">
        <ele>340.96869</ele>
        <time>2022-08-11T15:07:15.000Z</time>
      </trkpt>
      <trkpt lat="45.82618" lon="4.73685">
        <ele>340.72623</ele>
        <time>2022-08-11T15:07:16.000Z</time>
      </trkpt>
      <trkpt lat="45.82617" lon="4.7369">
        <ele>340.47862</ele>
        <time>2022-08-11T15:07:17.000Z</time>
      </trkpt>
      <trkpt lat="45.82617" lon="4.73696">
        <ele>340.2177</ele>
        <time>2022-08-11T15:07:18.000Z</time>
      </trkpt>
      <trkpt lat="45.82616" lon="4.73701">
        <ele>339.95048</ele>
        <time>2022-08-11T15:07:19.000Z</time>
      </trkpt>
      <trkpt lat="45.82615" lon="4.73705">
        <ele>339.69169</ele>
        <time>2022-08-11T15:07:20.000Z</time>
      </trkpt>
      <trkpt lat="45.82613" lon="4.73709">
        <ele>339.4252</ele>
        <time>2022-08-11T15:07:21.000Z</time>
      </trkpt>
      <trkpt lat="45.82611" lon="4.73712">
        <ele>339.15361</ele>
        <time>2022-08-11T15:07:22.000Z</time>
      </trkpt>
      <trkpt lat="45.8261" lon="4.73714">
        <ele>338.91235</ele>
        <time>2022-08-11T15:07:23.000Z</time>
      </trkpt>
      <trkpt lat="45.82608" lon="4.73716">
        <ele>338.69803</ele>
        <time>2022-08-11T15:07:24.000Z</time>
      </trkpt>
      <trkpt lat="45.82606" lon="4.73721">
        <ele>338.38616</ele>
        <time>2022-08-11T15:07:26.000Z</time>
      </trkpt>
      <trkpt lat="45.82606" lon="4.73725">
        <ele>338.38302</ele>
        <time>2022-08-11T15:07:27.000Z</time>
      </trkpt>
      <trkpt lat="45.82607" lon="4.73728">
        <ele>338.46</ele>
        <time>2022-08-11T15:07:28.000Z</time>
      </trkpt>
      <trkpt lat="45.82609" lon="4.7373">
        <ele>338.52328</ele>
        <time>2022-08-11T15:07:29.000Z</time>
      </trkpt>
      <trkpt lat="45.82612" lon="4.73732">
        <ele>338.53633</ele>
        <time>2022-08-11T15:07:30.000Z</time>
      </trkpt>
      <trkpt lat="45.82614" lon="4.73734">
        <ele>338.50566</ele>
        <time>2022-08-11T15:07:31.000Z</time>
      </trkpt>
      <trkpt lat="45.82616" lon="4.73735">
        <ele>338.44853</ele>
        <time>2022-08-11T15:07:32.000Z</time>
      </trkpt>
      <trkpt lat="45.82619" lon="4.73738">
        <ele>338.28435</ele>
        <time>2022-08-11T15:07:34.000Z</time>
      </trkpt>
      <trkpt lat="45.82622" lon="4.7374">
        <ele>338.10268</ele>
        <time>2022-08-11T15:07:36.000Z</time>
      </trkpt>
      <trkpt lat="45.82624" lon="4.73741">
        <ele>337.99006</ele>
        <time>2022-08-11T15:07:38.000Z</time>
      </trkpt>
      <trkpt lat="45.82626" lon="4.73739">
        <ele>338.01855</ele>
        <time>2022-08-11T15:07:45.000Z</time>
      </trkpt>
      <trkpt lat="45.82629" lon="4.73738">
        <ele>337.97855</ele>
        <time>2022-08-11T15:07:47.000Z</time>
      </trkpt>
      <trkpt lat="45.8263" lon="4.73735">
        <ele>338.13286</ele>
        <time>2022-08-11T15:07:55.000Z</time>
      </trkpt>
      <trkpt lat="45.82629" lon="4.73732">
        <ele>338.34943</ele>
        <time>2022-08-11T15:09:02.000Z</time>
      </trkpt>
      <trkpt lat="45.82626" lon="4.73729">
        <ele>338.61543</ele>
        <time>2022-08-11T15:09:03.000Z</time>
      </trkpt>
      <trkpt lat="45.82624" lon="4.73724">
        <ele>338.92105</ele>
        <time>2022-08-11T15:09:04.000Z</time>
      </trkpt>
      <trkpt lat="45.82621" lon="4.73719">
        <ele>339.2104</ele>
        <time>2022-08-11T15:09:05.000Z</time>
      </trkpt>
      <trkpt lat="45.8262" lon="4.73714">
        <ele>339.48355</ele>
        <time>2022-08-11T15:09:06.000Z</time>
      </trkpt>
      <trkpt lat="45.82619" lon="4.73708">
        <ele>339.75828</ele>
        <time>2022-08-11T15:09:07.000Z</time>
      </trkpt>
      <trkpt lat="45.8262" lon="4.73702">
        <ele>340.04288</ele>
        <time>2022-08-11T15:09:08.000Z</time>
      </trkpt>
      <trkpt lat="45.8262" lon="4.73697">
        <ele>340.3204</ele>
        <time>2022-08-11T15:09:09.000Z</time>
      </trkpt>
      <trkpt lat="45.82622" lon="4.73691">
        <ele>340.60206</ele>
        <time>2022-08-11T15:09:10.000Z</time>
      </trkpt>
      <trkpt lat="45.82623" lon="4.73687">
        <ele>340.86852</ele>
        <time>2022-08-11T15:09:11.000Z</time>
      </trkpt>
      <trkpt lat="45.82624" lon="4.73682">
        <ele>341.15475</ele>
        <time>2022-08-11T15:09:12.000Z</time>
      </trkpt>
      <trkpt lat="45.82625" lon="4.73677">
        <ele>341.48052</ele>
        <time>2022-08-11T15:09:13.000Z</time>
      </trkpt>
      <trkpt lat="45.82625" lon="4.73672">
        <ele>341.79712</ele>
        <time>2022-08-11T15:09:14.000Z</time>
      </trkpt>
      <trkpt lat="45.82626" lon="4.73667">
        <ele>342.0802</ele>
        <time>2022-08-11T15:09:15.000Z</time>
      </trkpt>
      <trkpt lat="45.82626" lon="4.73662">
        <ele>342.34634</ele>
        <time>2022-08-11T15:09:16.000Z</time>
      </trkpt>
      <trkpt lat="45.82626" lon="4.73657">
        <ele>342.59277</ele>
        <time>2022-08-11T15:09:17.000Z</time>
      </trkpt>
      <trkpt lat="45.82626" lon="4.73652">
        <ele>342.84737</ele>
        <time>2022-08-11T15:09:18.000Z</time>
      </trkpt>
      <trkpt lat="45.82626" lon="4.73648">
        <ele>343.14863</ele>
        <time>2022-08-11T15:09:19.000Z</time>
      </trkpt>
      <trkpt lat="45.82627" lon="4.73644">
        <ele>343.44322</ele>
        <time>2022-08-11T15:09:20.000Z</time>
      </trkpt>
      <trkpt lat="45.82627" lon="4.7364">
        <ele>343.70229</ele>
        <time>2022-08-11T15:09:21.000Z</time>
      </trkpt>
      <trkpt lat="45.82626" lon="4.73638">
        <ele>343.79975</ele>
        <time>2022-08-11T15:09:22.000Z</time>
      </trkpt>
      <trkpt lat="45.82623" lon="4.73637">
        <ele>343.56908</ele>
        <time>2022-08-11T15:09:24.000Z</time>
      </trkpt>
      <trkpt lat="45.82621" lon="4.73639">
        <ele>343.31161</ele>
        <time>2022-08-11T15:09:25.000Z</time>
      </trkpt>
      <trkpt lat="45.82619" lon="4.73642">
        <ele>342.97082</ele>
        <time>2022-08-11T15:09:27.000Z</time>
      </trkpt>
      <trkpt lat="45.82619" lon="4.73645">
        <ele>342.72331</ele>
        <time>2022-08-11T15:09:29.000Z</time>
      </trkpt>
      <trkpt lat="45.82619" lon="4.73647">
        <ele>342.53655</ele>
        <time>2022-08-11T15:09:31.000Z</time>
      </trkpt>
      <trkpt lat="45.82621" lon="4.73648">
        <ele>342.56438</ele>
        <time>2022-08-11T15:09:40.000Z</time>
      </trkpt>
      <trkpt lat="45.82621" lon="4.73653">
        <ele>342.31457</ele>
        <time>2022-08-11T15:10:54.000Z</time>
      </trkpt>
      <trkpt lat="45.82621" lon="4.73659">
        <ele>342.01192</ele>
        <time>2022-08-11T15:10:55.000Z</time>
      </trkpt>
      <trkpt lat="45.82619" lon="4.73676">
        <ele>341.20495</ele>
        <time>2022-08-11T15:10:56.000Z</time>
      </trkpt>
      <trkpt lat="45.82616" lon="4.73685">
        <ele>340.68447</ele>
        <time>2022-08-11T15:10:57.000Z</time>
      </trkpt>
      <trkpt lat="45.82615" lon="4.737">
        <ele>339.92191</ele>
        <time>2022-08-11T15:10:58.000Z</time>
      </trkpt>
      <trkpt lat="45.8261" lon="4.73703">
        <ele>339.38126</ele>
        <time>2022-08-11T15:10:59.000Z</time>
      </trkpt>
      <trkpt lat="45.82606" lon="4.73709">
        <ele>338.59185</ele>
        <time>2022-08-11T15:11:00.000Z</time>
      </trkpt>
      <trkpt lat="45.82604" lon="4.73718">
        <ele>338.16906</ele>
        <time>2022-08-11T15:11:01.000Z</time>
      </trkpt>
      <trkpt lat="45.82601" lon="4.7372">
        <ele>337.7993</ele>
        <time>2022-08-11T15:11:02.000Z</time>
      </trkpt>
      <trkpt lat="45.82599" lon="4.73724">
        <ele>337.76471</ele>
        <time>2022-08-11T15:11:03.000Z</time>
      </trkpt>
      <trkpt lat="45.82596" lon="4.73727">
        <ele>337.71077</ele>
        <time>2022-08-11T15:11:04.000Z</time>
      </trkpt>
      <trkpt lat="45.82593" lon="4.73731">
        <ele>337.80096</ele>
        <time>2022-08-11T15:11:05.000Z</time>
      </trkpt>
      <trkpt lat="45.82589" lon="4.73736">
        <ele>337.77969</ele>
        <time>2022-08-11T15:11:06.000Z</time>
      </trkpt>
      <trkpt lat="45.82585" lon="4.73741">
        <ele>337.36859</ele>
        <time>2022-08-11T15:11:07.000Z</time>
      </trkpt>
      <trkpt lat="45.82583" lon="4.73748">
        <ele>336.97519</ele>
        <time>2022-08-11T15:11:08.000Z</time>
      </trkpt>
      <trkpt lat="45.8258" lon="4.73756">
        <ele>336.39917</ele>
        <time>2022-08-11T15:11:09.000Z</time>
      </trkpt>
      <trkpt lat="45.82578" lon="4.73764">
        <ele>335.94489</ele>
        <time>2022-08-11T15:11:10.000Z</time>
      </trkpt>
      <trkpt lat="45.82576" lon="4.7377">
        <ele>335.7423</ele>
        <time>2022-08-11T15:11:11.000Z</time>
      </trkpt>
      <trkpt lat="45.82574" lon="4.73776">
        <ele>335.82403</ele>
        <time>2022-08-11T15:11:12.000Z</time>
      </trkpt>
      <trkpt lat="45.82572" lon="4.73782">
        <ele>336.12079</ele>
        <time>2022-08-11T15:11:13.000Z</time>
      </trkpt>
      <trkpt lat="45.8257" lon="4.73788">
        <ele>336.5489</ele>
        <time>2022-08-11T15:11:14.000Z</time>
      </trkpt>
      <trkpt lat="45.82568" lon="4.73794">
        <ele>336.97925</ele>
        <time>2022-08-11T15:11:15.000Z</time>
      </trkpt>
      <trkpt lat="45.82565" lon="4.73802">
        <ele>337.31206</ele>
        <time>2022-08-11T15:11:16.000Z</time>
      </trkpt>
      <trkpt lat="45.82562" lon="4.73811">
        <ele>337.46382</ele>
        <time>2022-08-11T15:11:17.000Z</time>
      </trkpt>
      <trkpt lat="45.82558" lon="4.73814">
        <ele>337.05173</ele>
        <time>2022-08-11T15:11:18.000Z</time>
      </trkpt>
      <trkpt lat="45.82558" lon="4.73827">
        <ele>337.65731</ele>
        <time>2022-08-11T15:11:19.000Z</time>
      </trkpt>
      <trkpt lat="45.82557" lon="4.73836">
        <ele>337.82525</ele>
        <time>2022-08-11T15:11:20.000Z</time>
      </trkpt>
      <trkpt lat="45.82555" lon="4.73842">
        <ele>337.76895</ele>
        <time>2022-08-11T15:11:21.000Z</time>
      </trkpt>
      <trkpt lat="45.82554" lon="4.73845">
        <ele>337.86483</ele>
        <time>2022-08-11T15:11:22.000Z</time>
      </trkpt>
      <trkpt lat="45.82555" lon="4.73851">
        <ele>338.14059</ele>
        <time>2022-08-11T15:11:23.000Z</time>
      </trkpt>
      <trkpt lat="45.8256" lon="4.73854">
        <ele>338.30737</ele>
        <time>2022-08-11T15:11:24.000Z</time>
      </trkpt>
      <trkpt lat="45.82563" lon="4.73854">
        <ele>338.35923</ele>
        <time>2022-08-11T15:11:25.000Z</time>
      </trkpt>
      <trkpt lat="45.82565" lon="4.73857">
        <ele>338.38689</ele>
        <time>2022-08-11T15:11:27.000Z</time>
      </trkpt>
      <trkpt lat="45.82568" lon="4.73858">
        <ele>338.43739</ele>
        <time>2022-08-11T15:11:28.000Z</time>
      </trkpt>
      <trkpt lat="45.82571" lon="4.7386">
        <ele>338.53615</ele>
        <time>2022-08-11T15:11:29.000Z</time>
      </trkpt>
      <trkpt lat="45.82573" lon="4.73861">
        <ele>338.63012</ele>
        <time>2022-08-11T15:11:30.000Z</time>
      </trkpt>
      <trkpt lat="45.82574" lon="4.73864">
        <ele>338.71575</ele>
        <time>2022-08-11T15:11:31.000Z</time>
      </trkpt>
      <trkpt lat="45.82574" lon="4.73867">
        <ele>338.79589</ele>
        <time>2022-08-11T15:11:32.000Z</time>
      </trkpt>
      <trkpt lat="45.82575" lon="4.7387">
        <ele>338.88503</ele>
        <time>2022-08-11T15:11:34.000Z</time>
      </trkpt>
      <trkpt lat="45.82575" lon="4.73874">
        <ele>338.90213</ele>
        <time>2022-08-11T15:11:36.000Z</time>
      </trkpt>
      <trkpt lat="45.82574" lon="4.73879">
        <ele>338.92553</ele>
        <time>2022-08-11T15:11:38.000Z</time>
      </trkpt>
      <trkpt lat="45.82575" lon="4.73882">
        <ele>338.96301</ele>
        <time>2022-08-11T15:11:39.000Z</time>
      </trkpt>
      <trkpt lat="45.82576" lon="4.73885">
        <ele>338.99053</ele>
        <time>2022-08-11T15:11:40.000Z</time>
      </trkpt>
      <trkpt lat="45.82576" lon="4.73889">
        <ele>338.99566</ele>
        <time>2022-08-11T15:11:41.000Z</time>
      </trkpt>
      <trkpt lat="45.82577" lon="4.73894">
        <ele>338.98325</ele>
        <time>2022-08-11T15:11:42.000Z</time>
      </trkpt>
      <trkpt lat="45.82578" lon="4.73898">
        <ele>338.98347</ele>
        <time>2022-08-11T15:11:43.000Z</time>
      </trkpt>
      <trkpt lat="45.8258" lon="4.73904">
        <ele>339.02327</ele>
        <time>2022-08-11T15:11:44.000Z</time>
      </trkpt>
      <trkpt lat="45.82581" lon="4.73909">
        <ele>339.1205</ele>
        <time>2022-08-11T15:11:45.000Z</time>
      </trkpt>
      <trkpt lat="45.82582" lon="4.73914">
        <ele>339.27558</ele>
        <time>2022-08-11T15:11:46.000Z</time>
      </trkpt>
      <trkpt lat="45.82583" lon="4.7392">
        <ele>339.50743</ele>
        <time>2022-08-11T15:11:47.000Z</time>
      </trkpt>
      <trkpt lat="45.82585" lon="4.73927">
        <ele>339.7598</ele>
        <time>2022-08-11T15:11:48.000Z</time>
      </trkpt>
      <trkpt lat="45.82586" lon="4.73933">
        <ele>339.97382</ele>
        <time>2022-08-11T15:11:49.000Z</time>
      </trkpt>
      <trkpt lat="45.82587" lon="4.73939">
        <ele>340.18808</ele>
        <time>2022-08-11T15:11:50.000Z</time>
      </trkpt>
      <trkpt lat="45.82589" lon="4.73947">
        <ele>340.48904</ele>
        <time>2022-08-11T15:11:51.000Z</time>
      </trkpt>
      <trkpt lat="45.82591" lon="4.73953">
        <ele>340.74522</ele>
        <time>2022-08-11T15:11:52.000Z</time>
      </trkpt>
      <trkpt lat="45.82593" lon="4.73965">
        <ele>341.1747</ele>
        <time>2022-08-11T15:11:54.000Z</time>
      </trkpt>
      <trkpt lat="45.82598" lon="4.73984">
        <ele>341.94265</ele>
        <time>2022-08-11T15:11:56.000Z</time>
      </trkpt>
      <trkpt lat="45.82599" lon="4.73988">
        <ele>342.17935</ele>
        <time>2022-08-11T15:11:57.000Z</time>
      </trkpt>
      <trkpt lat="45.82609" lon="4.74023">
        <ele>344.26268</ele>
        <time>2022-08-11T15:12:03.000Z</time>
      </trkpt>
      <trkpt lat="45.82611" lon="4.74031">
        <ele>344.76875</ele>
        <time>2022-08-11T15:12:04.000Z</time>
      </trkpt>
      <trkpt lat="45.82612" lon="4.7404">
        <ele>345.41918</ele>
        <time>2022-08-11T15:12:05.000Z</time>
      </trkpt>
      <trkpt lat="45.82613" lon="4.74047">
        <ele>345.86062</ele>
        <time>2022-08-11T15:12:06.000Z</time>
      </trkpt>
      <trkpt lat="45.82613" lon="4.74052">
        <ele>346.14805</ele>
        <time>2022-08-11T15:12:07.000Z</time>
      </trkpt>
      <trkpt lat="45.82611" lon="4.74057">
        <ele>346.42518</ele>
        <time>2022-08-11T15:12:08.000Z</time>
      </trkpt>
      <trkpt lat="45.8261" lon="4.74061">
        <ele>346.65491</ele>
        <time>2022-08-11T15:12:09.000Z</time>
      </trkpt>
      <trkpt lat="45.82611" lon="4.7407">
        <ele>347.2752</ele>
        <time>2022-08-11T15:12:10.000Z</time>
      </trkpt>
      <trkpt lat="45.8261" lon="4.74076">
        <ele>347.66076</ele>
        <time>2022-08-11T15:12:11.000Z</time>
      </trkpt>
      <trkpt lat="45.82611" lon="4.74082">
        <ele>348.14411</ele>
        <time>2022-08-11T15:12:12.000Z</time>
      </trkpt>
      <trkpt lat="45.82612" lon="4.7409">
        <ele>348.71504</ele>
        <time>2022-08-11T15:12:13.000Z</time>
      </trkpt>
      <trkpt lat="45.82613" lon="4.74097">
        <ele>349.20898</ele>
        <time>2022-08-11T15:12:14.000Z</time>
      </trkpt>
      <trkpt lat="45.82612" lon="4.74101">
        <ele>349.50657</ele>
        <time>2022-08-11T15:12:15.000Z</time>
      </trkpt>
      <trkpt lat="45.82614" lon="4.74109">
        <ele>350.08625</ele>
        <time>2022-08-11T15:12:16.000Z</time>
      </trkpt>
      <trkpt lat="45.82615" lon="4.74114">
        <ele>350.42376</ele>
        <time>2022-08-11T15:12:17.000Z</time>
      </trkpt>
      <trkpt lat="45.82616" lon="4.74118">
        <ele>350.67161</ele>
        <time>2022-08-11T15:12:18.000Z</time>
      </trkpt>
      <trkpt lat="45.82616" lon="4.74122">
        <ele>350.88818</ele>
        <time>2022-08-11T15:12:19.000Z</time>
      </trkpt>
      <trkpt lat="45.82616" lon="4.74125">
        <ele>351.04344</ele>
        <time>2022-08-11T15:12:20.000Z</time>
      </trkpt>
      <trkpt lat="45.82614" lon="4.74129">
        <ele>351.25244</ele>
        <time>2022-08-11T15:12:22.000Z</time>
      </trkpt>
      <trkpt lat="45.82615" lon="4.74131">
        <ele>351.3851</ele>
        <time>2022-08-11T15:12:28.000Z</time>
      </trkpt>
      <trkpt lat="45.82616" lon="4.74134">
        <ele>351.52631</ele>
        <time>2022-08-11T15:12:30.000Z</time>
      </trkpt>
      <trkpt lat="45.82615" lon="4.74139">
        <ele>351.78808</ele>
        <time>2022-08-11T15:12:32.000Z</time>
      </trkpt>
      <trkpt lat="45.82616" lon="4.74142">
        <ele>351.93795</ele>
        <time>2022-08-11T15:12:33.000Z</time>
      </trkpt>
      <trkpt lat="45.82616" lon="4.74146">
        <ele>352.08075</ele>
        <time>2022-08-11T15:12:34.000Z</time>
      </trkpt>
      <trkpt lat="45.82616" lon="4.7415">
        <ele>352.2299</ele>
        <time>2022-08-11T15:12:36.000Z</time>
      </trkpt>
      <trkpt lat="45.82617" lon="4.74153">
        <ele>352.33909</ele>
        <time>2022-08-11T15:12:37.000Z</time>
      </trkpt>
      <trkpt lat="45.82617" lon="4.74156">
        <ele>352.44993</ele>
        <time>2022-08-11T15:12:38.000Z</time>
      </trkpt>
      <trkpt lat="45.82617" lon="4.7416">
        <ele>352.57221</ele>
        <time>2022-08-11T15:12:39.000Z</time>
      </trkpt>
      <trkpt lat="45.82617" lon="4.74164">
        <ele>352.73257</ele>
        <time>2022-08-11T15:12:40.000Z</time>
      </trkpt>
      <trkpt lat="45.82618" lon="4.74168">
        <ele>352.90895</ele>
        <time>2022-08-11T15:12:41.000Z</time>
      </trkpt>
      <trkpt lat="45.82617" lon="4.74172">
        <ele>353.12623</ele>
        <time>2022-08-11T15:12:42.000Z</time>
      </trkpt>
      <trkpt lat="45.82617" lon="4.74177">
        <ele>353.33358</ele>
        <time>2022-08-11T15:12:43.000Z</time>
      </trkpt>
      <trkpt lat="45.82616" lon="4.74181">
        <ele>353.51322</ele>
        <time>2022-08-11T15:12:44.000Z</time>
      </trkpt>
      <trkpt lat="45.82616" lon="4.74186">
        <ele>353.65214</ele>
        <time>2022-08-11T15:12:45.000Z</time>
      </trkpt>
      <trkpt lat="45.82616" lon="4.7419">
        <ele>353.74626</ele>
        <time>2022-08-11T15:12:46.000Z</time>
      </trkpt>
      <trkpt lat="45.82616" lon="4.74195">
        <ele>353.79701</ele>
        <time>2022-08-11T15:12:47.000Z</time>
      </trkpt>
      <trkpt lat="45.82615" lon="4.742">
        <ele>353.81545</ele>
        <time>2022-08-11T15:12:48.000Z</time>
      </trkpt>
      <trkpt lat="45.82615" lon="4.74204">
        <ele>353.82542</ele>
        <time>2022-08-11T15:12:49.000Z</time>
      </trkpt>
      <trkpt lat="45.82614" lon="4.74208">
        <ele>353.8334</ele>
        <time>2022-08-11T15:12:50.000Z</time>
      </trkpt>
      <trkpt lat="45.82613" lon="4.74212">
        <ele>353.83228</ele>
        <time>2022-08-11T15:12:51.000Z</time>
      </trkpt>
      <trkpt lat="45.82613" lon="4.74216">
        <ele>353.84546</ele>
        <time>2022-08-11T15:12:52.000Z</time>
      </trkpt>
      <trkpt lat="45.82612" lon="4.7422">
        <ele>353.88869</ele>
        <time>2022-08-11T15:12:53.000Z</time>
      </trkpt>
      <trkpt lat="45.82609" lon="4.7423">
        <ele>354.10237</ele>
        <time>2022-08-11T15:12:55.000Z</time>
      </trkpt>
      <trkpt lat="45.82607" lon="4.74235">
        <ele>354.23637</ele>
        <time>2022-08-11T15:12:56.000Z</time>
      </trkpt>
      <trkpt lat="45.82605" lon="4.74241">
        <ele>354.36938</ele>
        <time>2022-08-11T15:12:57.000Z</time>
      </trkpt>
      <trkpt lat="45.82603" lon="4.74246">
        <ele>354.50066</ele>
        <time>2022-08-11T15:12:58.000Z</time>
      </trkpt>
      <trkpt lat="45.82602" lon="4.74252">
        <ele>354.61781</ele>
        <time>2022-08-11T15:12:59.000Z</time>
      </trkpt>
      <trkpt lat="45.82601" lon="4.74258">
        <ele>354.71944</ele>
        <time>2022-08-11T15:13:00.000Z</time>
      </trkpt>
      <trkpt lat="45.826" lon="4.74264">
        <ele>354.79824</ele>
        <time>2022-08-11T15:13:01.000Z</time>
      </trkpt>
      <trkpt lat="45.82599" lon="4.7427">
        <ele>354.85677</ele>
        <time>2022-08-11T15:13:02.000Z</time>
      </trkpt>
      <trkpt lat="45.82598" lon="4.74276">
        <ele>354.91681</ele>
        <time>2022-08-11T15:13:03.000Z</time>
      </trkpt>
      <trkpt lat="45.82597" lon="4.74281">
        <ele>354.9943</ele>
        <time>2022-08-11T15:13:04.000Z</time>
      </trkpt>
      <trkpt lat="45.82596" lon="4.74287">
        <ele>355.09015</ele>
        <time>2022-08-11T15:13:05.000Z</time>
      </trkpt>
      <trkpt lat="45.82595" lon="4.74293">
        <ele>355.21108</ele>
        <time>2022-08-11T15:13:06.000Z</time>
      </trkpt>
      <trkpt lat="45.82594" lon="4.74299">
        <ele>355.34653</ele>
        <time>2022-08-11T15:13:07.000Z</time>
      </trkpt>
      <trkpt lat="45.82594" lon="4.74306">
        <ele>355.49315</ele>
        <time>2022-08-11T15:13:08.000Z</time>
      </trkpt>
      <trkpt lat="45.82593" lon="4.74312">
        <ele>355.64738</ele>
        <time>2022-08-11T15:13:09.000Z</time>
      </trkpt>
      <trkpt lat="45.82592" lon="4.74318">
        <ele>355.78813</ele>
        <time>2022-08-11T15:13:10.000Z</time>
      </trkpt>
      <trkpt lat="45.82591" lon="4.74324">
        <ele>355.90806</ele>
        <time>2022-08-11T15:13:11.000Z</time>
      </trkpt>
      <trkpt lat="45.82591" lon="4.7433">
        <ele>356.00667</ele>
        <time>2022-08-11T15:13:12.000Z</time>
      </trkpt>
      <trkpt lat="45.8259" lon="4.74336">
        <ele>356.10514</ele>
        <time>2022-08-11T15:13:13.000Z</time>
      </trkpt>
      <trkpt lat="45.8259" lon="4.74342">
        <ele>356.22623</ele>
        <time>2022-08-11T15:13:14.000Z</time>
      </trkpt>
      <trkpt lat="45.82592" lon="4.74351">
        <ele>356.47028</ele>
        <time>2022-08-11T15:13:15.000Z</time>
      </trkpt>
      <trkpt lat="45.82592" lon="4.74356">
        <ele>356.68324</ele>
        <time>2022-08-11T15:13:16.000Z</time>
      </trkpt>
      <trkpt lat="45.82592" lon="4.74362">
        <ele>356.97785</ele>
        <time>2022-08-11T15:13:17.000Z</time>
      </trkpt>
      <trkpt lat="45.82591" lon="4.74367">
        <ele>357.23565</ele>
        <time>2022-08-11T15:13:18.000Z</time>
      </trkpt>
      <trkpt lat="45.82591" lon="4.74373">
        <ele>357.56422</ele>
        <time>2022-08-11T15:13:19.000Z</time>
      </trkpt>
      <trkpt lat="45.82591" lon="4.74379">
        <ele>357.95955</ele>
        <time>2022-08-11T15:13:20.000Z</time>
      </trkpt>
      <trkpt lat="45.82591" lon="4.74384">
        <ele>358.34169</ele>
        <time>2022-08-11T15:13:21.000Z</time>
      </trkpt>
      <trkpt lat="45.8259" lon="4.74388">
        <ele>358.6191</ele>
        <time>2022-08-11T15:13:22.000Z</time>
      </trkpt>
      <trkpt lat="45.8259" lon="4.74396">
        <ele>359.39159</ele>
        <time>2022-08-11T15:13:23.000Z</time>
      </trkpt>
      <trkpt lat="45.82591" lon="4.74404">
        <ele>360.22668</ele>
        <time>2022-08-11T15:13:24.000Z</time>
      </trkpt>
      <trkpt lat="45.8259" lon="4.74408">
        <ele>360.68799</ele>
        <time>2022-08-11T15:13:25.000Z</time>
      </trkpt>
      <trkpt lat="45.8259" lon="4.74416">
        <ele>361.39018</ele>
        <time>2022-08-11T15:13:26.000Z</time>
      </trkpt>
      <trkpt lat="45.8259" lon="4.74421">
        <ele>361.94002</ele>
        <time>2022-08-11T15:13:27.000Z</time>
      </trkpt>
      <trkpt lat="45.8259" lon="4.74427">
        <ele>362.48858</ele>
        <time>2022-08-11T15:13:28.000Z</time>
      </trkpt>
      <trkpt lat="45.82589" lon="4.74433">
        <ele>363.04513</ele>
        <time>2022-08-11T15:13:29.000Z</time>
      </trkpt>
      <trkpt lat="45.8259" lon="4.7444">
        <ele>363.66896</ele>
        <time>2022-08-11T15:13:30.000Z</time>
      </trkpt>
      <trkpt lat="45.8259" lon="4.74445">
        <ele>364.1105</ele>
        <time>2022-08-11T15:13:31.000Z</time>
      </trkpt>
      <trkpt lat="45.82589" lon="4.74448">
        <ele>364.40394</ele>
        <time>2022-08-11T15:13:32.000Z</time>
      </trkpt>
      <trkpt lat="45.82589" lon="4.7445">
        <ele>364.6662</ele>
        <time>2022-08-11T15:13:33.000Z</time>
      </trkpt>
      <trkpt lat="45.82588" lon="4.74457">
        <ele>365.35511</ele>
        <time>2022-08-11T15:13:35.000Z</time>
      </trkpt>
      <trkpt lat="45.82587" lon="4.74461">
        <ele>365.71278</ele>
        <time>2022-08-11T15:13:36.000Z</time>
      </trkpt>
      <trkpt lat="45.82587" lon="4.74464">
        <ele>366.03612</ele>
        <time>2022-08-11T15:13:37.000Z</time>
      </trkpt>
      <trkpt lat="45.82587" lon="4.74466">
        <ele>366.31563</ele>
        <time>2022-08-11T15:13:38.000Z</time>
      </trkpt>
      <trkpt lat="45.82587" lon="4.7447">
        <ele>366.68377</ele>
        <time>2022-08-11T15:13:40.000Z</time>
      </trkpt>
      <trkpt lat="45.82585" lon="4.74474">
        <ele>367.07986</ele>
        <time>2022-08-11T15:13:42.000Z</time>
      </trkpt>
      <trkpt lat="45.82583" lon="4.74476">
        <ele>367.28358</ele>
        <time>2022-08-11T15:13:43.000Z</time>
      </trkpt>
      <trkpt lat="45.82581" lon="4.74477">
        <ele>367.45165</ele>
        <time>2022-08-11T15:13:44.000Z</time>
      </trkpt>
      <trkpt lat="45.8258" lon="4.74479">
        <ele>367.63883</ele>
        <time>2022-08-11T15:13:45.000Z</time>
      </trkpt>
      <trkpt lat="45.82578" lon="4.74483">
        <ele>368.00871</ele>
        <time>2022-08-11T15:13:47.000Z</time>
      </trkpt>
      <trkpt lat="45.82577" lon="4.74487">
        <ele>368.39672</ele>
        <time>2022-08-11T15:13:49.000Z</time>
      </trkpt>
      <trkpt lat="45.82576" lon="4.7449">
        <ele>368.72061</ele>
        <time>2022-08-11T15:13:51.000Z</time>
      </trkpt>
      <trkpt lat="45.82574" lon="4.74493">
        <ele>369.06763</ele>
        <time>2022-08-11T15:13:53.000Z</time>
      </trkpt>
      <trkpt lat="45.82574" lon="4.74496">
        <ele>369.37301</ele>
        <time>2022-08-11T15:13:55.000Z</time>
      </trkpt>
      <trkpt lat="45.82574" lon="4.74498">
        <ele>369.62476</ele>
        <time>2022-08-11T15:14:00.000Z</time>
      </trkpt>
      <trkpt lat="45.82573" lon="4.74501">
        <ele>369.87348</ele>
        <time>2022-08-11T15:14:36.000Z</time>
      </trkpt>
      <trkpt lat="45.82574" lon="4.74505">
        <ele>370.18809</ele>
        <time>2022-08-11T15:14:39.000Z</time>
      </trkpt>
      <trkpt lat="45.82575" lon="4.74507">
        <ele>370.3472</ele>
        <time>2022-08-11T15:14:42.000Z</time>
      </trkpt>
      <trkpt lat="45.82576" lon="4.74509">
        <ele>370.51819</ele>
        <time>2022-08-11T15:14:47.000Z</time>
      </trkpt>
      <trkpt lat="45.82574" lon="4.7451">
        <ele>370.59641</ele>
        <time>2022-08-11T15:16:32.000Z</time>
      </trkpt>
      <trkpt lat="45.82572" lon="4.74511">
        <ele>370.7057</ele>
        <time>2022-08-11T15:16:40.000Z</time>
      </trkpt>
      <trkpt lat="45.82574" lon="4.74514">
        <ele>370.89713</ele>
        <time>2022-08-11T15:20:48.000Z</time>
      </trkpt>
      <trkpt lat="45.82575" lon="4.74517">
        <ele>371.13906</ele>
        <time>2022-08-11T15:20:49.000Z</time>
      </trkpt>
      <trkpt lat="45.82576" lon="4.7452">
        <ele>371.47333</ele>
        <time>2022-08-11T15:20:50.000Z</time>
      </trkpt>
      <trkpt lat="45.82577" lon="4.74523">
        <ele>371.83757</ele>
        <time>2022-08-11T15:20:51.000Z</time>
      </trkpt>
      <trkpt lat="45.82578" lon="4.74525">
        <ele>372.14279</ele>
        <time>2022-08-11T15:20:52.000Z</time>
      </trkpt>
      <trkpt lat="45.8258" lon="4.74529">
        <ele>372.51332</ele>
        <time>2022-08-11T15:20:54.000Z</time>
      </trkpt>
      <trkpt lat="45.82581" lon="4.74532">
        <ele>372.77269</ele>
        <time>2022-08-11T15:20:56.000Z</time>
      </trkpt>
      <trkpt lat="45.82582" lon="4.74534">
        <ele>372.93837</ele>
        <time>2022-08-11T15:20:58.000Z</time>
      </trkpt>
      <trkpt lat="45.82583" lon="4.74538">
        <ele>373.01559</ele>
        <time>2022-08-11T15:21:00.000Z</time>
      </trkpt>
      <trkpt lat="45.82584" lon="4.7454">
        <ele>372.97578</ele>
        <time>2022-08-11T15:21:03.000Z</time>
      </trkpt>
      <trkpt lat="45.82586" lon="4.7454">
        <ele>372.8739</ele>
        <time>2022-08-11T15:21:08.000Z</time>
      </trkpt>
      <trkpt lat="45.82588" lon="4.74543">
        <ele>372.727</ele>
        <time>2022-08-11T15:21:23.000Z</time>
      </trkpt>
      <trkpt lat="45.82589" lon="4.74545">
        <ele>372.5668</ele>
        <time>2022-08-11T15:21:25.000Z</time>
      </trkpt>
      <trkpt lat="45.8259" lon="4.74547">
        <ele>372.39363</ele>
        <time>2022-08-11T15:21:28.000Z</time>
      </trkpt>
      <trkpt lat="45.82592" lon="4.74548">
        <ele>372.27181</ele>
        <time>2022-08-11T15:21:30.000Z</time>
      </trkpt>
      <trkpt lat="45.82594" lon="4.74552">
        <ele>372.17442</ele>
        <time>2022-08-11T15:21:32.000Z</time>
      </trkpt>
      <trkpt lat="45.82596" lon="4.74555">
        <ele>372.23368</ele>
        <time>2022-08-11T15:21:33.000Z</time>
      </trkpt>
      <trkpt lat="45.82597" lon="4.74559">
        <ele>372.41015</ele>
        <time>2022-08-11T15:21:34.000Z</time>
      </trkpt>
      <trkpt lat="45.82598" lon="4.74562">
        <ele>372.72578</ele>
        <time>2022-08-11T15:21:35.000Z</time>
      </trkpt>
      <trkpt lat="45.82599" lon="4.74565">
        <ele>373.06807</ele>
        <time>2022-08-11T15:21:36.000Z</time>
      </trkpt>
      <trkpt lat="45.82602" lon="4.74567">
        <ele>373.40074</ele>
        <time>2022-08-11T15:21:37.000Z</time>
      </trkpt>
      <trkpt lat="45.82604" lon="4.7457">
        <ele>373.63178</ele>
        <time>2022-08-11T15:21:38.000Z</time>
      </trkpt>
      <trkpt lat="45.82607" lon="4.74573">
        <ele>373.70409</ele>
        <time>2022-08-11T15:21:39.000Z</time>
      </trkpt>
      <trkpt lat="45.82609" lon="4.74576">
        <ele>373.61811</ele>
        <time>2022-08-11T15:21:40.000Z</time>
      </trkpt>
      <trkpt lat="45.82611" lon="4.7458">
        <ele>373.4287</ele>
        <time>2022-08-11T15:21:41.000Z</time>
      </trkpt>
      <trkpt lat="45.82613" lon="4.74584">
        <ele>373.27505</ele>
        <time>2022-08-11T15:21:42.000Z</time>
      </trkpt>
      <trkpt lat="45.82615" lon="4.74587">
        <ele>373.2886</ele>
        <time>2022-08-11T15:21:43.000Z</time>
      </trkpt>
      <trkpt lat="45.82617" lon="4.7459">
        <ele>373.54658</ele>
        <time>2022-08-11T15:21:44.000Z</time>
      </trkpt>
      <trkpt lat="45.8262" lon="4.74593">
        <ele>374.02352</ele>
        <time>2022-08-11T15:21:45.000Z</time>
      </trkpt>
      <trkpt lat="45.82623" lon="4.74596">
        <ele>374.47147</ele>
        <time>2022-08-11T15:21:46.000Z</time>
      </trkpt>
      <trkpt lat="45.82625" lon="4.74599">
        <ele>374.78255</ele>
        <time>2022-08-11T15:21:47.000Z</time>
      </trkpt>
      <trkpt lat="45.82628" lon="4.74602">
        <ele>374.95644</ele>
        <time>2022-08-11T15:21:48.000Z</time>
      </trkpt>
      <trkpt lat="45.82629" lon="4.74606">
        <ele>374.9777</ele>
        <time>2022-08-11T15:21:49.000Z</time>
      </trkpt>
      <trkpt lat="45.8263" lon="4.74608">
        <ele>374.92814</ele>
        <time>2022-08-11T15:21:50.000Z</time>
      </trkpt>
      <trkpt lat="45.82631" lon="4.74613">
        <ele>374.63948</ele>
        <time>2022-08-11T15:21:52.000Z</time>
      </trkpt>
      <trkpt lat="45.82633" lon="4.74616">
        <ele>374.32722</ele>
        <time>2022-08-11T15:21:54.000Z</time>
      </trkpt>
      <trkpt lat="45.82634" lon="4.74618">
        <ele>374.17322</ele>
        <time>2022-08-11T15:21:56.000Z</time>
      </trkpt>
      <trkpt lat="45.82636" lon="4.74619">
        <ele>374.10075</ele>
        <time>2022-08-11T15:21:58.000Z</time>
      </trkpt>
      <trkpt lat="45.82637" lon="4.74622">
        <ele>374.05388</ele>
        <time>2022-08-11T15:22:00.000Z</time>
      </trkpt>
      <trkpt lat="45.82638" lon="4.74625">
        <ele>374.03864</ele>
        <time>2022-08-11T15:22:03.000Z</time>
      </trkpt>
      <trkpt lat="45.8264" lon="4.74624">
        <ele>374.24427</ele>
        <time>2022-08-11T15:22:04.000Z</time>
      </trkpt>
      <trkpt lat="45.82642" lon="4.74624">
        <ele>374.36365</ele>
        <time>2022-08-11T15:22:05.000Z</time>
      </trkpt>
      <trkpt lat="45.82644" lon="4.74625">
        <ele>374.45813</ele>
        <time>2022-08-11T15:22:06.000Z</time>
      </trkpt>
      <trkpt lat="45.82646" lon="4.74627">
        <ele>374.54357</ele>
        <time>2022-08-11T15:22:07.000Z</time>
      </trkpt>
      <trkpt lat="45.82646" lon="4.74631">
        <ele>374.69472</ele>
        <time>2022-08-11T15:22:09.000Z</time>
      </trkpt>
      <trkpt lat="45.82644" lon="4.74629">
        <ele>374.56556</ele>
        <time>2022-08-11T15:22:12.000Z</time>
      </trkpt>
      <trkpt lat="45.82642" lon="4.74628">
        <ele>374.35937</ele>
        <time>2022-08-11T15:22:14.000Z</time>
      </trkpt>
      <trkpt lat="45.82639" lon="4.74627">
        <ele>374.0638</ele>
        <time>2022-08-11T15:22:17.000Z</time>
      </trkpt>
      <trkpt lat="45.82641" lon="4.7463">
        <ele>374.25773</ele>
        <time>2022-08-11T15:22:27.000Z</time>
      </trkpt>
      <trkpt lat="45.82642" lon="4.74632">
        <ele>374.5188</ele>
        <time>2022-08-11T15:22:28.000Z</time>
      </trkpt>
      <trkpt lat="45.82643" lon="4.74635">
        <ele>374.70685</ele>
        <time>2022-08-11T15:22:29.000Z</time>
      </trkpt>
      <trkpt lat="45.82645" lon="4.74638">
        <ele>374.87638</ele>
        <time>2022-08-11T15:22:30.000Z</time>
      </trkpt>
      <trkpt lat="45.82646" lon="4.74641">
        <ele>374.98844</ele>
        <time>2022-08-11T15:22:31.000Z</time>
      </trkpt>
      <trkpt lat="45.82647" lon="4.74645">
        <ele>375.05205</ele>
        <time>2022-08-11T15:22:32.000Z</time>
      </trkpt>
      <trkpt lat="45.8265" lon="4.7465">
        <ele>374.95991</ele>
        <time>2022-08-11T15:22:33.000Z</time>
      </trkpt>
      <trkpt lat="45.82653" lon="4.74656">
        <ele>374.63243</ele>
        <time>2022-08-11T15:22:34.000Z</time>
      </trkpt>
      <trkpt lat="45.82655" lon="4.74659">
        <ele>374.30986</ele>
        <time>2022-08-11T15:22:35.000Z</time>
      </trkpt>
      <trkpt lat="45.82658" lon="4.74663">
        <ele>373.87744</ele>
        <time>2022-08-11T15:22:36.000Z</time>
      </trkpt>
      <trkpt lat="45.82661" lon="4.74669">
        <ele>373.3475</ele>
        <time>2022-08-11T15:22:37.000Z</time>
      </trkpt>
      <trkpt lat="45.82665" lon="4.74675">
        <ele>372.98361</ele>
        <time>2022-08-11T15:22:38.000Z</time>
      </trkpt>
      <trkpt lat="45.82667" lon="4.74681">
        <ele>372.86967</ele>
        <time>2022-08-11T15:22:39.000Z</time>
      </trkpt>
      <trkpt lat="45.82667" lon="4.74684">
        <ele>372.91579</ele>
        <time>2022-08-11T15:22:40.000Z</time>
      </trkpt>
      <trkpt lat="45.82668" lon="4.74688">
        <ele>372.93031</ele>
        <time>2022-08-11T15:22:42.000Z</time>
      </trkpt>
      <trkpt lat="45.82666" lon="4.74691">
        <ele>373.20224</ele>
        <time>2022-08-11T15:22:44.000Z</time>
      </trkpt>
      <trkpt lat="45.82664" lon="4.74697">
        <ele>373.40113</ele>
        <time>2022-08-11T15:22:45.000Z</time>
      </trkpt>
      <trkpt lat="45.82663" lon="4.74702">
        <ele>373.5097</ele>
        <time>2022-08-11T15:22:46.000Z</time>
      </trkpt>
      <trkpt lat="45.82663" lon="4.74706">
        <ele>373.48441</ele>
        <time>2022-08-11T15:22:47.000Z</time>
      </trkpt>
      <trkpt lat="45.82665" lon="4.74711">
        <ele>373.38513</ele>
        <time>2022-08-11T15:22:48.000Z</time>
      </trkpt>
      <trkpt lat="45.82668" lon="4.74716">
        <ele>373.18321</ele>
        <time>2022-08-11T15:22:49.000Z</time>
      </trkpt>
      <trkpt lat="45.82671" lon="4.74721">
        <ele>372.88882</ele>
        <time>2022-08-11T15:22:50.000Z</time>
      </trkpt>
      <trkpt lat="45.82672" lon="4.74726">
        <ele>372.71602</ele>
        <time>2022-08-11T15:22:51.000Z</time>
      </trkpt>
      <trkpt lat="45.82671" lon="4.74732">
        <ele>372.66642</ele>
        <time>2022-08-11T15:22:52.000Z</time>
      </trkpt>
      <trkpt lat="45.8267" lon="4.74734">
        <ele>372.71236</ele>
        <time>2022-08-11T15:22:53.000Z</time>
      </trkpt>
      <trkpt lat="45.82669" lon="4.74737">
        <ele>372.73607</ele>
        <time>2022-08-11T15:22:54.000Z</time>
      </trkpt>
      <trkpt lat="45.82668" lon="4.7474">
        <ele>372.70348</ele>
        <time>2022-08-11T15:22:55.000Z</time>
      </trkpt>
      <trkpt lat="45.82667" lon="4.74744">
        <ele>372.61796</ele>
        <time>2022-08-11T15:22:56.000Z</time>
      </trkpt>
      <trkpt lat="45.82665" lon="4.7475">
        <ele>372.47311</ele>
        <time>2022-08-11T15:22:57.000Z</time>
      </trkpt>
      <trkpt lat="45.82664" lon="4.74755">
        <ele>372.29815</ele>
        <time>2022-08-11T15:22:58.000Z</time>
      </trkpt>
      <trkpt lat="45.82663" lon="4.7476">
        <ele>372.13983</ele>
        <time>2022-08-11T15:22:59.000Z</time>
      </trkpt>
      <trkpt lat="45.8266" lon="4.74764">
        <ele>371.99665</ele>
        <time>2022-08-11T15:23:00.000Z</time>
      </trkpt>
      <trkpt lat="45.82658" lon="4.74767">
        <ele>371.86719</ele>
        <time>2022-08-11T15:23:01.000Z</time>
      </trkpt>
      <trkpt lat="45.82656" lon="4.74769">
        <ele>371.79477</ele>
        <time>2022-08-11T15:23:02.000Z</time>
      </trkpt>
      <trkpt lat="45.82654" lon="4.74771">
        <ele>371.72235</ele>
        <time>2022-08-11T15:23:03.000Z</time>
      </trkpt>
      <trkpt lat="45.82653" lon="4.74773">
        <ele>371.65881</ele>
        <time>2022-08-11T15:23:04.000Z</time>
      </trkpt>
      <trkpt lat="45.82651" lon="4.74775">
        <ele>371.62673</ele>
        <time>2022-08-11T15:23:05.000Z</time>
      </trkpt>
      <trkpt lat="45.82648" lon="4.74778">
        <ele>371.61364</ele>
        <time>2022-08-11T15:23:06.000Z</time>
      </trkpt>
      <trkpt lat="45.82647" lon="4.7478">
        <ele>371.61423</ele>
        <time>2022-08-11T15:23:07.000Z</time>
      </trkpt>
      <trkpt lat="45.82645" lon="4.74781">
        <ele>371.6109</ele>
        <time>2022-08-11T15:23:08.000Z</time>
      </trkpt>
      <trkpt lat="45.82642" lon="4.74784">
        <ele>371.62301</ele>
        <time>2022-08-11T15:23:10.000Z</time>
      </trkpt>
      <trkpt lat="45.82641" lon="4.74785">
        <ele>371.62953</ele>
        <time>2022-08-11T15:23:11.000Z</time>
      </trkpt>
      <trkpt lat="45.82639" lon="4.74787">
        <ele>371.61356</ele>
        <time>2022-08-11T15:23:12.000Z</time>
      </trkpt>
      <trkpt lat="45.82637" lon="4.74789">
        <ele>371.56803</ele>
        <time>2022-08-11T15:23:13.000Z</time>
      </trkpt>
      <trkpt lat="45.82635" lon="4.7479">
        <ele>371.48419</ele>
        <time>2022-08-11T15:23:14.000Z</time>
      </trkpt>
      <trkpt lat="45.82632" lon="4.74792">
        <ele>371.36779</ele>
        <time>2022-08-11T15:23:15.000Z</time>
      </trkpt>
      <trkpt lat="45.8263" lon="4.74794">
        <ele>371.21285</ele>
        <time>2022-08-11T15:23:16.000Z</time>
      </trkpt>
      <trkpt lat="45.82627" lon="4.74796">
        <ele>371.07819</ele>
        <time>2022-08-11T15:23:17.000Z</time>
      </trkpt>
      <trkpt lat="45.82624" lon="4.74797">
        <ele>370.95656</ele>
        <time>2022-08-11T15:23:18.000Z</time>
      </trkpt>
      <trkpt lat="45.82621" lon="4.74798">
        <ele>370.92293</ele>
        <time>2022-08-11T15:23:19.000Z</time>
      </trkpt>
      <trkpt lat="45.82617" lon="4.74798">
        <ele>370.98574</ele>
        <time>2022-08-11T15:23:20.000Z</time>
      </trkpt>
      <trkpt lat="45.82614" lon="4.74798">
        <ele>371.08664</ele>
        <time>2022-08-11T15:23:21.000Z</time>
      </trkpt>
      <trkpt lat="45.82612" lon="4.74798">
        <ele>371.16329</ele>
        <time>2022-08-11T15:23:22.000Z</time>
      </trkpt>
      <trkpt lat="45.8261" lon="4.74798">
        <ele>371.20976</ele>
        <time>2022-08-11T15:23:23.000Z</time>
      </trkpt>
      <trkpt lat="45.82608" lon="4.74799">
        <ele>371.24429</ele>
        <time>2022-08-11T15:23:24.000Z</time>
      </trkpt>
      <trkpt lat="45.82605" lon="4.748">
        <ele>371.29596</ele>
        <time>2022-08-11T15:23:25.000Z</time>
      </trkpt>
      <trkpt lat="45.82603" lon="4.748">
        <ele>371.3634</ele>
        <time>2022-08-11T15:23:26.000Z</time>
      </trkpt>
      <trkpt lat="45.82601" lon="4.74802">
        <ele>371.3946</ele>
        <time>2022-08-11T15:23:28.000Z</time>
      </trkpt>
      <trkpt lat="45.82598" lon="4.74803">
        <ele>371.43386</ele>
        <time>2022-08-11T15:23:29.000Z</time>
      </trkpt>
      <trkpt lat="45.82596" lon="4.74804">
        <ele>371.44883</ele>
        <time>2022-08-11T15:23:30.000Z</time>
      </trkpt>
      <trkpt lat="45.82593" lon="4.74805">
        <ele>371.47126</ele>
        <time>2022-08-11T15:23:31.000Z</time>
      </trkpt>
      <trkpt lat="45.8259" lon="4.74806">
        <ele>371.65808</ele>
        <time>2022-08-11T15:23:32.000Z</time>
      </trkpt>
      <trkpt lat="45.82588" lon="4.74806">
        <ele>371.76094</ele>
        <time>2022-08-11T15:23:33.000Z</time>
      </trkpt>
      <trkpt lat="45.82585" lon="4.74808">
        <ele>371.83938</ele>
        <time>2022-08-11T15:23:35.000Z</time>
      </trkpt>
      <trkpt lat="45.82582" lon="4.74809">
        <ele>371.86964</ele>
        <time>2022-08-11T15:23:36.000Z</time>
      </trkpt>
      <trkpt lat="45.8258" lon="4.7481">
        <ele>371.94735</ele>
        <time>2022-08-11T15:23:37.000Z</time>
      </trkpt>
      <trkpt lat="45.82578" lon="4.7481">
        <ele>372.03832</ele>
        <time>2022-08-11T15:23:38.000Z</time>
      </trkpt>
      <trkpt lat="45.82574" lon="4.74808">
        <ele>372.47946</ele>
        <time>2022-08-11T15:23:40.000Z</time>
      </trkpt>
      <trkpt lat="45.82572" lon="4.74806">
        <ele>372.77084</ele>
        <time>2022-08-11T15:23:41.000Z</time>
      </trkpt>
      <trkpt lat="45.82572" lon="4.74806">
        <ele>372.77084</ele>
        <time>2022-08-11T15:23:41.000Z</time>
      </trkpt>
      <trkpt lat="45.82571" lon="4.74805">
        <ele>372.98156</ele>
        <time>2022-08-11T15:23:42.000Z</time>
      </trkpt>
      <trkpt lat="45.82569" lon="4.74805">
        <ele>373.06363</ele>
        <time>2022-08-11T15:23:46.000Z</time>
      </trkpt>
      <trkpt lat="45.82567" lon="4.74806">
        <ele>373.01547</ele>
        <time>2022-08-11T15:23:55.000Z</time>
      </trkpt>
      <trkpt lat="45.82565" lon="4.74807">
        <ele>373.0668</ele>
        <time>2022-08-11T15:30:20.000Z</time>
      </trkpt>
      <trkpt lat="45.82563" lon="4.74805">
        <ele>373.3199</ele>
        <time>2022-08-11T15:30:24.000Z</time>
      </trkpt>
      <trkpt lat="45.8256" lon="4.74803">
        <ele>373.57044</ele>
        <time>2022-08-11T15:30:25.000Z</time>
      </trkpt>
      <trkpt lat="45.82556" lon="4.74801">
        <ele>373.71266</ele>
        <time>2022-08-11T15:30:26.000Z</time>
      </trkpt>
      <trkpt lat="45.82552" lon="4.74799">
        <ele>373.75285</ele>
        <time>2022-08-11T15:30:27.000Z</time>
      </trkpt>
      <trkpt lat="45.82549" lon="4.74797">
        <ele>373.67753</ele>
        <time>2022-08-11T15:30:28.000Z</time>
      </trkpt>
      <trkpt lat="45.82545" lon="4.74795">
        <ele>373.55876</ele>
        <time>2022-08-11T15:30:29.000Z</time>
      </trkpt>
      <trkpt lat="45.82543" lon="4.74792">
        <ele>373.50935</ele>
        <time>2022-08-11T15:30:30.000Z</time>
      </trkpt>
      <trkpt lat="45.82541" lon="4.7479">
        <ele>373.5528</ele>
        <time>2022-08-11T15:30:31.000Z</time>
      </trkpt>
      <trkpt lat="45.8254" lon="4.74787">
        <ele>373.68251</ele>
        <time>2022-08-11T15:30:32.000Z</time>
      </trkpt>
      <trkpt lat="45.82539" lon="4.74785">
        <ele>373.84861</ele>
        <time>2022-08-11T15:30:33.000Z</time>
      </trkpt>
      <trkpt lat="45.82537" lon="4.74783">
        <ele>374.0979</ele>
        <time>2022-08-11T15:30:34.000Z</time>
      </trkpt>
      <trkpt lat="45.82535" lon="4.74781">
        <ele>374.43752</ele>
        <time>2022-08-11T15:30:35.000Z</time>
      </trkpt>
      <trkpt lat="45.82533" lon="4.74778">
        <ele>374.95176</ele>
        <time>2022-08-11T15:30:37.000Z</time>
      </trkpt>
      <trkpt lat="45.8253" lon="4.74778">
        <ele>375.31888</ele>
        <time>2022-08-11T15:30:42.000Z</time>
      </trkpt>
      <trkpt lat="45.82529" lon="4.74776">
        <ele>375.65922</ele>
        <time>2022-08-11T15:30:45.000Z</time>
      </trkpt>
      <trkpt lat="45.82527" lon="4.74774">
        <ele>376.0438</ele>
        <time>2022-08-11T15:30:51.000Z</time>
      </trkpt>
      <trkpt lat="45.82527" lon="4.74768">
        <ele>376.80247</ele>
        <time>2022-08-11T15:30:56.000Z</time>
      </trkpt>
      <trkpt lat="45.82528" lon="4.74765">
        <ele>377.01118</ele>
        <time>2022-08-11T15:30:57.000Z</time>
      </trkpt>
      <trkpt lat="45.82528" lon="4.74762">
        <ele>377.11066</ele>
        <time>2022-08-11T15:30:58.000Z</time>
      </trkpt>
      <trkpt lat="45.82529" lon="4.74759">
        <ele>377.12781</ele>
        <time>2022-08-11T15:30:59.000Z</time>
      </trkpt>
      <trkpt lat="45.8253" lon="4.74757">
        <ele>376.97317</ele>
        <time>2022-08-11T15:31:00.000Z</time>
      </trkpt>
      <trkpt lat="45.82532" lon="4.74759">
        <ele>376.70053</ele>
        <time>2022-08-11T15:31:02.000Z</time>
      </trkpt>
      <trkpt lat="45.82531" lon="4.74762">
        <ele>376.82164</ele>
        <time>2022-08-11T15:31:04.000Z</time>
      </trkpt>
      <trkpt lat="45.82528" lon="4.74763">
        <ele>377.0983</ele>
        <time>2022-08-11T15:31:06.000Z</time>
      </trkpt>
      <trkpt lat="45.82526" lon="4.74764">
        <ele>377.2779</ele>
        <time>2022-08-11T15:31:08.000Z</time>
      </trkpt>
      <trkpt lat="45.82525" lon="4.74766">
        <ele>377.19474</ele>
        <time>2022-08-11T15:31:10.000Z</time>
      </trkpt>
      <trkpt lat="45.82524" lon="4.74771">
        <ele>376.69407</ele>
        <time>2022-08-11T15:31:12.000Z</time>
      </trkpt>
      <trkpt lat="45.82524" lon="4.74774">
        <ele>376.31571</ele>
        <time>2022-08-11T15:31:13.000Z</time>
      </trkpt>
      <trkpt lat="45.82523" lon="4.74777">
        <ele>375.92359</ele>
        <time>2022-08-11T15:31:14.000Z</time>
      </trkpt>
      <trkpt lat="45.8252" lon="4.74779">
        <ele>375.48426</ele>
        <time>2022-08-11T15:31:16.000Z</time>
      </trkpt>
      <trkpt lat="45.82518" lon="4.74778">
        <ele>375.76913</ele>
        <time>2022-08-11T15:31:17.000Z</time>
      </trkpt>
      <trkpt lat="45.82517" lon="4.74776">
        <ele>376.24923</ele>
        <time>2022-08-11T15:31:18.000Z</time>
      </trkpt>
      <trkpt lat="45.82516" lon="4.74773">
        <ele>376.83068</ele>
        <time>2022-08-11T15:31:19.000Z</time>
      </trkpt>
      <trkpt lat="45.82514" lon="4.7477">
        <ele>377.34084</ele>
        <time>2022-08-11T15:31:20.000Z</time>
      </trkpt>
      <trkpt lat="45.82513" lon="4.74767">
        <ele>377.78246</ele>
        <time>2022-08-11T15:31:21.000Z</time>
      </trkpt>
      <trkpt lat="45.82512" lon="4.74764">
        <ele>378.08125</ele>
        <time>2022-08-11T15:31:22.000Z</time>
      </trkpt>
      <trkpt lat="45.82511" lon="4.7476">
        <ele>378.38751</ele>
        <time>2022-08-11T15:31:24.000Z</time>
      </trkpt>
      <trkpt lat="45.8251" lon="4.74755">
        <ele>378.50532</ele>
        <time>2022-08-11T15:31:26.000Z</time>
      </trkpt>
      <trkpt lat="45.82507" lon="4.74753">
        <ele>378.60498</ele>
        <time>2022-08-11T15:31:28.000Z</time>
      </trkpt>
      <trkpt lat="45.82505" lon="4.74753">
        <ele>378.64924</ele>
        <time>2022-08-11T15:31:29.000Z</time>
      </trkpt>
      <trkpt lat="45.82501" lon="4.74754">
        <ele>378.67319</ele>
        <time>2022-08-11T15:31:31.000Z</time>
      </trkpt>
      <trkpt lat="45.82499" lon="4.74754">
        <ele>378.66029</ele>
        <time>2022-08-11T15:31:32.000Z</time>
      </trkpt>
      <trkpt lat="45.82496" lon="4.74753">
        <ele>378.58972</ele>
        <time>2022-08-11T15:31:34.000Z</time>
      </trkpt>
      <trkpt lat="45.82494" lon="4.74752">
        <ele>378.5162</ele>
        <time>2022-08-11T15:31:35.000Z</time>
      </trkpt>
      <trkpt lat="45.82491" lon="4.74751">
        <ele>378.45436</ele>
        <time>2022-08-11T15:31:36.000Z</time>
      </trkpt>
      <trkpt lat="45.82488" lon="4.74751">
        <ele>378.41987</ele>
        <time>2022-08-11T15:31:37.000Z</time>
      </trkpt>
      <trkpt lat="45.82485" lon="4.74751">
        <ele>378.438</ele>
        <time>2022-08-11T15:31:38.000Z</time>
      </trkpt>
      <trkpt lat="45.82481" lon="4.74751">
        <ele>378.53063</ele>
        <time>2022-08-11T15:31:39.000Z</time>
      </trkpt>
      <trkpt lat="45.82478" lon="4.74751">
        <ele>378.63876</ele>
        <time>2022-08-11T15:31:40.000Z</time>
      </trkpt>
      <trkpt lat="45.82473" lon="4.74751">
        <ele>378.77708</ele>
        <time>2022-08-11T15:31:41.000Z</time>
      </trkpt>
      <trkpt lat="45.82469" lon="4.74751">
        <ele>378.92182</ele>
        <time>2022-08-11T15:31:42.000Z</time>
      </trkpt>
      <trkpt lat="45.82466" lon="4.74752">
        <ele>379.06092</ele>
        <time>2022-08-11T15:31:43.000Z</time>
      </trkpt>
      <trkpt lat="45.82462" lon="4.74752">
        <ele>379.2172</ele>
        <time>2022-08-11T15:31:44.000Z</time>
      </trkpt>
      <trkpt lat="45.82457" lon="4.74753">
        <ele>379.35975</ele>
        <time>2022-08-11T15:31:45.000Z</time>
      </trkpt>
      <trkpt lat="45.82454" lon="4.74753">
        <ele>379.46836</ele>
        <time>2022-08-11T15:31:46.000Z</time>
      </trkpt>
      <trkpt lat="45.8245" lon="4.74753">
        <ele>379.52185</ele>
        <time>2022-08-11T15:31:47.000Z</time>
      </trkpt>
      <trkpt lat="45.82447" lon="4.74752">
        <ele>379.55528</ele>
        <time>2022-08-11T15:31:48.000Z</time>
      </trkpt>
      <trkpt lat="45.82443" lon="4.74752">
        <ele>379.6801</ele>
        <time>2022-08-11T15:31:49.000Z</time>
      </trkpt>
      <trkpt lat="45.82438" lon="4.74752">
        <ele>379.98585</ele>
        <time>2022-08-11T15:31:50.000Z</time>
      </trkpt>
      <trkpt lat="45.82434" lon="4.74751">
        <ele>380.31298</ele>
        <time>2022-08-11T15:31:51.000Z</time>
      </trkpt>
      <trkpt lat="45.8243" lon="4.74751">
        <ele>380.71587</ele>
        <time>2022-08-11T15:31:52.000Z</time>
      </trkpt>
      <trkpt lat="45.82428" lon="4.7475">
        <ele>380.92589</ele>
        <time>2022-08-11T15:31:53.000Z</time>
      </trkpt>
      <trkpt lat="45.82426" lon="4.74749">
        <ele>381.1843</ele>
        <time>2022-08-11T15:31:55.000Z</time>
      </trkpt>
      <trkpt lat="45.82423" lon="4.74749">
        <ele>381.50764</ele>
        <time>2022-08-11T15:31:57.000Z</time>
      </trkpt>
      <trkpt lat="45.82421" lon="4.74747">
        <ele>381.51826</ele>
        <time>2022-08-11T15:31:58.000Z</time>
      </trkpt>
      <trkpt lat="45.8242" lon="4.74744">
        <ele>381.44776</ele>
        <time>2022-08-11T15:31:59.000Z</time>
      </trkpt>
      <trkpt lat="45.82419" lon="4.74742">
        <ele>381.42517</ele>
        <time>2022-08-11T15:32:00.000Z</time>
      </trkpt>
      <trkpt lat="45.82417" lon="4.74738">
        <ele>381.4379</ele>
        <time>2022-08-11T15:32:02.000Z</time>
      </trkpt>
      <trkpt lat="45.82415" lon="4.74735">
        <ele>381.4159</ele>
        <time>2022-08-11T15:32:03.000Z</time>
      </trkpt>
      <trkpt lat="45.82415" lon="4.74731">
        <ele>381.36264</ele>
        <time>2022-08-11T15:32:04.000Z</time>
      </trkpt>
      <trkpt lat="45.82414" lon="4.74727">
        <ele>381.32396</ele>
        <time>2022-08-11T15:32:05.000Z</time>
      </trkpt>
      <trkpt lat="45.82414" lon="4.74723">
        <ele>381.2705</ele>
        <time>2022-08-11T15:32:06.000Z</time>
      </trkpt>
      <trkpt lat="45.82414" lon="4.74719">
        <ele>381.21296</ele>
        <time>2022-08-11T15:32:07.000Z</time>
      </trkpt>
      <trkpt lat="45.82415" lon="4.74715">
        <ele>381.14058</ele>
        <time>2022-08-11T15:32:08.000Z</time>
      </trkpt>
      <trkpt lat="45.82416" lon="4.74711">
        <ele>381.09369</ele>
        <time>2022-08-11T15:32:09.000Z</time>
      </trkpt>
      <trkpt lat="45.82417" lon="4.74707">
        <ele>381.09361</ele>
        <time>2022-08-11T15:32:10.000Z</time>
      </trkpt>
      <trkpt lat="45.82418" lon="4.74704">
        <ele>381.13143</ele>
        <time>2022-08-11T15:32:11.000Z</time>
      </trkpt>
      <trkpt lat="45.82419" lon="4.747">
        <ele>381.15428</ele>
        <time>2022-08-11T15:32:12.000Z</time>
      </trkpt>
      <trkpt lat="45.8242" lon="4.74695">
        <ele>381.07859</ele>
        <time>2022-08-11T15:32:13.000Z</time>
      </trkpt>
      <trkpt lat="45.82421" lon="4.74691">
        <ele>380.86157</ele>
        <time>2022-08-11T15:32:14.000Z</time>
      </trkpt>
      <trkpt lat="45.82422" lon="4.74686">
        <ele>380.47219</ele>
        <time>2022-08-11T15:32:15.000Z</time>
      </trkpt>
      <trkpt lat="45.82423" lon="4.74683">
        <ele>379.99331</ele>
        <time>2022-08-11T15:32:16.000Z</time>
      </trkpt>
      <trkpt lat="45.82424" lon="4.7468">
        <ele>379.47785</ele>
        <time>2022-08-11T15:32:17.000Z</time>
      </trkpt>
      <trkpt lat="45.82425" lon="4.74676">
        <ele>378.70782</ele>
        <time>2022-08-11T15:32:18.000Z</time>
      </trkpt>
      <trkpt lat="45.82426" lon="4.74672">
        <ele>377.59181</ele>
        <time>2022-08-11T15:32:19.000Z</time>
      </trkpt>
      <trkpt lat="45.82427" lon="4.74668">
        <ele>376.63483</ele>
        <time>2022-08-11T15:32:20.000Z</time>
      </trkpt>
      <trkpt lat="45.82428" lon="4.74665">
        <ele>375.87843</ele>
        <time>2022-08-11T15:32:21.000Z</time>
      </trkpt>
      <trkpt lat="45.82429" lon="4.74662">
        <ele>375.32775</ele>
        <time>2022-08-11T15:32:22.000Z</time>
      </trkpt>
      <trkpt lat="45.82429" lon="4.74659">
        <ele>375.01981</ele>
        <time>2022-08-11T15:32:23.000Z</time>
      </trkpt>
      <trkpt lat="45.82429" lon="4.74655">
        <ele>374.65582</ele>
        <time>2022-08-11T15:32:24.000Z</time>
      </trkpt>
      <trkpt lat="45.8243" lon="4.7465">
        <ele>374.20669</ele>
        <time>2022-08-11T15:32:25.000Z</time>
      </trkpt>
      <trkpt lat="45.82431" lon="4.74647">
        <ele>373.84775</ele>
        <time>2022-08-11T15:32:26.000Z</time>
      </trkpt>
      <trkpt lat="45.82432" lon="4.74644">
        <ele>373.54335</ele>
        <time>2022-08-11T15:32:27.000Z</time>
      </trkpt>
      <trkpt lat="45.82433" lon="4.74641">
        <ele>373.34643</ele>
        <time>2022-08-11T15:32:28.000Z</time>
      </trkpt>
      <trkpt lat="45.82434" lon="4.74638">
        <ele>373.22799</ele>
        <time>2022-08-11T15:32:29.000Z</time>
      </trkpt>
      <trkpt lat="45.82435" lon="4.74635">
        <ele>373.17295</ele>
        <time>2022-08-11T15:32:30.000Z</time>
      </trkpt>
      <trkpt lat="45.82435" lon="4.74631">
        <ele>373.17015</ele>
        <time>2022-08-11T15:32:31.000Z</time>
      </trkpt>
      <trkpt lat="45.82436" lon="4.74628">
        <ele>373.28709</ele>
        <time>2022-08-11T15:32:32.000Z</time>
      </trkpt>
      <trkpt lat="45.82436" lon="4.74624">
        <ele>373.45805</ele>
        <time>2022-08-11T15:32:33.000Z</time>
      </trkpt>
      <trkpt lat="45.82436" lon="4.74621">
        <ele>373.6981</ele>
        <time>2022-08-11T15:32:34.000Z</time>
      </trkpt>
      <trkpt lat="45.82436" lon="4.74617">
        <ele>373.95317</ele>
        <time>2022-08-11T15:32:35.000Z</time>
      </trkpt>
      <trkpt lat="45.82436" lon="4.74613">
        <ele>374.195</ele>
        <time>2022-08-11T15:32:36.000Z</time>
      </trkpt>
      <trkpt lat="45.82435" lon="4.74609">
        <ele>374.38106</ele>
        <time>2022-08-11T15:32:37.000Z</time>
      </trkpt>
      <trkpt lat="45.82434" lon="4.74604">
        <ele>374.41968</ele>
        <time>2022-08-11T15:32:38.000Z</time>
      </trkpt>
      <trkpt lat="45.82433" lon="4.746">
        <ele>374.2567</ele>
        <time>2022-08-11T15:32:39.000Z</time>
      </trkpt>
      <trkpt lat="45.82432" lon="4.74595">
        <ele>374.01661</ele>
        <time>2022-08-11T15:32:40.000Z</time>
      </trkpt>
      <trkpt lat="45.82432" lon="4.74591">
        <ele>373.73138</ele>
        <time>2022-08-11T15:32:41.000Z</time>
      </trkpt>
      <trkpt lat="45.82432" lon="4.74586">
        <ele>373.38706</ele>
        <time>2022-08-11T15:32:42.000Z</time>
      </trkpt>
      <trkpt lat="45.82433" lon="4.74581">
        <ele>373.04281</ele>
        <time>2022-08-11T15:32:43.000Z</time>
      </trkpt>
      <trkpt lat="45.82434" lon="4.74576">
        <ele>372.69014</ele>
        <time>2022-08-11T15:32:44.000Z</time>
      </trkpt>
      <trkpt lat="45.82436" lon="4.74572">
        <ele>372.38579</ele>
        <time>2022-08-11T15:32:45.000Z</time>
      </trkpt>
      <trkpt lat="45.82438" lon="4.74567">
        <ele>372.14036</ele>
        <time>2022-08-11T15:32:46.000Z</time>
      </trkpt>
      <trkpt lat="45.8244" lon="4.74564">
        <ele>371.99242</ele>
        <time>2022-08-11T15:32:47.000Z</time>
      </trkpt>
      <trkpt lat="45.82443" lon="4.74561">
        <ele>371.96867</ele>
        <time>2022-08-11T15:32:48.000Z</time>
      </trkpt>
      <trkpt lat="45.82448" lon="4.74559">
        <ele>372.11761</ele>
        <time>2022-08-11T15:32:49.000Z</time>
      </trkpt>
      <trkpt lat="45.82452" lon="4.74558">
        <ele>372.43293</ele>
        <time>2022-08-11T15:32:50.000Z</time>
      </trkpt>
      <trkpt lat="45.82457" lon="4.74557">
        <ele>372.63187</ele>
        <time>2022-08-11T15:32:51.000Z</time>
      </trkpt>
      <trkpt lat="45.82461" lon="4.74556">
        <ele>372.70302</ele>
        <time>2022-08-11T15:32:52.000Z</time>
      </trkpt>
      <trkpt lat="45.82466" lon="4.74555">
        <ele>372.53765</ele>
        <time>2022-08-11T15:32:53.000Z</time>
      </trkpt>
      <trkpt lat="45.8247" lon="4.74555">
        <ele>372.06624</ele>
        <time>2022-08-11T15:32:54.000Z</time>
      </trkpt>
      <trkpt lat="45.82474" lon="4.74554">
        <ele>371.41859</ele>
        <time>2022-08-11T15:32:55.000Z</time>
      </trkpt>
      <trkpt lat="45.82477" lon="4.74553">
        <ele>370.81009</ele>
        <time>2022-08-11T15:32:56.000Z</time>
      </trkpt>
      <trkpt lat="45.82481" lon="4.74552">
        <ele>370.36696</ele>
        <time>2022-08-11T15:32:57.000Z</time>
      </trkpt>
      <trkpt lat="45.82484" lon="4.74551">
        <ele>370.11696</ele>
        <time>2022-08-11T15:32:58.000Z</time>
      </trkpt>
      <trkpt lat="45.82487" lon="4.7455">
        <ele>370.03574</ele>
        <time>2022-08-11T15:32:59.000Z</time>
      </trkpt>
      <trkpt lat="45.8249" lon="4.74549">
        <ele>370.10524</ele>
        <time>2022-08-11T15:33:00.000Z</time>
      </trkpt>
      <trkpt lat="45.82493" lon="4.74549">
        <ele>370.18125</ele>
        <time>2022-08-11T15:33:01.000Z</time>
      </trkpt>
      <trkpt lat="45.82496" lon="4.74547">
        <ele>370.49827</ele>
        <time>2022-08-11T15:33:03.000Z</time>
      </trkpt>
      <trkpt lat="45.82498" lon="4.74546">
        <ele>370.76302</ele>
        <time>2022-08-11T15:33:05.000Z</time>
      </trkpt>
      <trkpt lat="45.82498" lon="4.74543">
        <ele>371.00678</ele>
        <time>2022-08-11T15:33:20.000Z</time>
      </trkpt>
      <trkpt lat="45.825" lon="4.74541">
        <ele>371.15581</ele>
        <time>2022-08-11T15:33:37.000Z</time>
      </trkpt>
      <trkpt lat="45.82502" lon="4.74538">
        <ele>371.22493</ele>
        <time>2022-08-11T15:33:38.000Z</time>
      </trkpt>
      <trkpt lat="45.82506" lon="4.74535">
        <ele>371.18282</ele>
        <time>2022-08-11T15:33:39.000Z</time>
      </trkpt>
      <trkpt lat="45.82509" lon="4.74532">
        <ele>371.01265</ele>
        <time>2022-08-11T15:33:40.000Z</time>
      </trkpt>
      <trkpt lat="45.82517" lon="4.74525">
        <ele>370.65688</ele>
        <time>2022-08-11T15:33:41.000Z</time>
      </trkpt>
      <trkpt lat="45.82522" lon="4.74522">
        <ele>370.54122</ele>
        <time>2022-08-11T15:33:42.000Z</time>
      </trkpt>
      <trkpt lat="45.82527" lon="4.7452">
        <ele>370.48282</ele>
        <time>2022-08-11T15:33:43.000Z</time>
      </trkpt>
      <trkpt lat="45.82531" lon="4.74518">
        <ele>370.4108</ele>
        <time>2022-08-11T15:33:44.000Z</time>
      </trkpt>
      <trkpt lat="45.82534" lon="4.74516">
        <ele>370.26479</ele>
        <time>2022-08-11T15:33:45.000Z</time>
      </trkpt>
      <trkpt lat="45.82534" lon="4.74511">
        <ele>369.77254</ele>
        <time>2022-08-11T15:33:46.000Z</time>
      </trkpt>
      <trkpt lat="45.82537" lon="4.74509">
        <ele>369.7259</ele>
        <time>2022-08-11T15:33:47.000Z</time>
      </trkpt>
      <trkpt lat="45.82541" lon="4.74507">
        <ele>369.7323</ele>
        <time>2022-08-11T15:33:49.000Z</time>
      </trkpt>
      <trkpt lat="45.82543" lon="4.74502">
        <ele>369.43179</ele>
        <time>2022-08-11T15:33:50.000Z</time>
      </trkpt>
      <trkpt lat="45.82546" lon="4.74501">
        <ele>369.45903</ele>
        <time>2022-08-11T15:33:51.000Z</time>
      </trkpt>
      <trkpt lat="45.82549" lon="4.74499">
        <ele>369.47396</ele>
        <time>2022-08-11T15:33:52.000Z</time>
      </trkpt>
      <trkpt lat="45.82551" lon="4.74498">
        <ele>369.44215</ele>
        <time>2022-08-11T15:33:53.000Z</time>
      </trkpt>
      <trkpt lat="45.82553" lon="4.74496">
        <ele>369.29267</ele>
        <time>2022-08-11T15:33:55.000Z</time>
      </trkpt>
      <trkpt lat="45.82554" lon="4.74494">
        <ele>369.14739</ele>
        <time>2022-08-11T15:33:58.000Z</time>
      </trkpt>
      <trkpt lat="45.82557" lon="4.74494">
        <ele>369.18052</ele>
        <time>2022-08-11T15:34:02.000Z</time>
      </trkpt>
      <trkpt lat="45.82559" lon="4.74491">
        <ele>368.82276</ele>
        <time>2022-08-11T15:34:04.000Z</time>
      </trkpt>
      <trkpt lat="45.82559" lon="4.74488">
        <ele>368.47409</ele>
        <time>2022-08-11T15:34:05.000Z</time>
      </trkpt>
      <trkpt lat="45.82559" lon="4.74484">
        <ele>368.05392</ele>
        <time>2022-08-11T15:34:07.000Z</time>
      </trkpt>
      <trkpt lat="45.82562" lon="4.74481">
        <ele>367.79079</ele>
        <time>2022-08-11T15:34:09.000Z</time>
      </trkpt>
      <trkpt lat="45.82565" lon="4.7448">
        <ele>367.64771</ele>
        <time>2022-08-11T15:34:11.000Z</time>
      </trkpt>
      <trkpt lat="45.82568" lon="4.74477">
        <ele>367.48098</ele>
        <time>2022-08-11T15:34:13.000Z</time>
      </trkpt>
      <trkpt lat="45.82571" lon="4.74476">
        <ele>367.32775</ele>
        <time>2022-08-11T15:34:15.000Z</time>
      </trkpt>
      <trkpt lat="45.82573" lon="4.74472">
        <ele>367.0422</ele>
        <time>2022-08-11T15:34:17.000Z</time>
      </trkpt>
      <trkpt lat="45.82575" lon="4.74467">
        <ele>366.50423</ele>
        <time>2022-08-11T15:34:19.000Z</time>
      </trkpt>
      <trkpt lat="45.82575" lon="4.74462">
        <ele>366.01236</ele>
        <time>2022-08-11T15:34:20.000Z</time>
      </trkpt>
      <trkpt lat="45.82576" lon="4.74456">
        <ele>365.42769</ele>
        <time>2022-08-11T15:34:21.000Z</time>
      </trkpt>
      <trkpt lat="45.82576" lon="4.74449">
        <ele>364.83422</ele>
        <time>2022-08-11T15:34:22.000Z</time>
      </trkpt>
      <trkpt lat="45.82576" lon="4.74443">
        <ele>364.27053</ele>
        <time>2022-08-11T15:34:23.000Z</time>
      </trkpt>
      <trkpt lat="45.82576" lon="4.74437">
        <ele>363.71668</ele>
        <time>2022-08-11T15:34:24.000Z</time>
      </trkpt>
      <trkpt lat="45.82577" lon="4.7443">
        <ele>363.17014</ele>
        <time>2022-08-11T15:34:25.000Z</time>
      </trkpt>
      <trkpt lat="45.82577" lon="4.74424">
        <ele>362.63105</ele>
        <time>2022-08-11T15:34:26.000Z</time>
      </trkpt>
      <trkpt lat="45.82578" lon="4.74418">
        <ele>362.10129</ele>
        <time>2022-08-11T15:34:27.000Z</time>
      </trkpt>
      <trkpt lat="45.82581" lon="4.74407">
        <ele>360.81783</ele>
        <time>2022-08-11T15:34:28.000Z</time>
      </trkpt>
      <trkpt lat="45.82584" lon="4.74399">
        <ele>359.80146</ele>
        <time>2022-08-11T15:34:29.000Z</time>
      </trkpt>
      <trkpt lat="45.82583" lon="4.74392">
        <ele>358.94649</ele>
        <time>2022-08-11T15:34:30.000Z</time>
      </trkpt>
      <trkpt lat="45.82584" lon="4.74383">
        <ele>358.07701</ele>
        <time>2022-08-11T15:34:31.000Z</time>
      </trkpt>
      <trkpt lat="45.82585" lon="4.74373">
        <ele>357.40798</ele>
        <time>2022-08-11T15:34:32.000Z</time>
      </trkpt>
      <trkpt lat="45.82585" lon="4.74363">
        <ele>356.96992</ele>
        <time>2022-08-11T15:34:33.000Z</time>
      </trkpt>
      <trkpt lat="45.82586" lon="4.74351">
        <ele>356.54045</ele>
        <time>2022-08-11T15:34:34.000Z</time>
      </trkpt>
      <trkpt lat="45.82587" lon="4.7434">
        <ele>356.26611</ele>
        <time>2022-08-11T15:34:35.000Z</time>
      </trkpt>
      <trkpt lat="45.82588" lon="4.74328">
        <ele>356.09789</ele>
        <time>2022-08-11T15:34:36.000Z</time>
      </trkpt>
      <trkpt lat="45.82588" lon="4.74316">
        <ele>355.91295</ele>
        <time>2022-08-11T15:34:37.000Z</time>
      </trkpt>
      <trkpt lat="45.82591" lon="4.74306">
        <ele>355.64328</ele>
        <time>2022-08-11T15:34:38.000Z</time>
      </trkpt>
      <trkpt lat="45.82592" lon="4.74294">
        <ele>355.36835</ele>
        <time>2022-08-11T15:34:39.000Z</time>
      </trkpt>
      <trkpt lat="45.82594" lon="4.74284">
        <ele>355.14821</ele>
        <time>2022-08-11T15:34:40.000Z</time>
      </trkpt>
      <trkpt lat="45.82596" lon="4.74273">
        <ele>354.98921</ele>
        <time>2022-08-11T15:34:41.000Z</time>
      </trkpt>
      <trkpt lat="45.82598" lon="4.74264">
        <ele>354.89768</ele>
        <time>2022-08-11T15:34:42.000Z</time>
      </trkpt>
      <trkpt lat="45.82599" lon="4.74254">
        <ele>354.77138</ele>
        <time>2022-08-11T15:34:43.000Z</time>
      </trkpt>
      <trkpt lat="45.82601" lon="4.74246">
        <ele>354.61185</ele>
        <time>2022-08-11T15:34:44.000Z</time>
      </trkpt>
      <trkpt lat="45.82602" lon="4.74239">
        <ele>354.46476</ele>
        <time>2022-08-11T15:34:45.000Z</time>
      </trkpt>
      <trkpt lat="45.82604" lon="4.74232">
        <ele>354.31347</ele>
        <time>2022-08-11T15:34:46.000Z</time>
      </trkpt>
      <trkpt lat="45.82605" lon="4.74224">
        <ele>354.19257</ele>
        <time>2022-08-11T15:34:47.000Z</time>
      </trkpt>
      <trkpt lat="45.82607" lon="4.74218">
        <ele>354.09268</ele>
        <time>2022-08-11T15:34:48.000Z</time>
      </trkpt>
      <trkpt lat="45.82609" lon="4.7421">
        <ele>354.02692</ele>
        <time>2022-08-11T15:34:49.000Z</time>
      </trkpt>
      <trkpt lat="45.8261" lon="4.74204">
        <ele>353.99356</ele>
        <time>2022-08-11T15:34:50.000Z</time>
      </trkpt>
      <trkpt lat="45.82611" lon="4.74202">
        <ele>353.95808</ele>
        <time>2022-08-11T15:34:51.000Z</time>
      </trkpt>
      <trkpt lat="45.82613" lon="4.74201">
        <ele>353.89796</ele>
        <time>2022-08-11T15:34:52.000Z</time>
      </trkpt>
      <trkpt lat="45.82615" lon="4.7418">
        <ele>353.51648</ele>
        <time>2022-08-11T15:35:28.000Z</time>
      </trkpt>
      <trkpt lat="45.82616" lon="4.74173">
        <ele>353.23425</ele>
        <time>2022-08-11T15:35:29.000Z</time>
      </trkpt>
      <trkpt lat="45.82616" lon="4.74169">
        <ele>353.0953</ele>
        <time>2022-08-11T15:35:30.000Z</time>
      </trkpt>
      <trkpt lat="45.82616" lon="4.74165">
        <ele>352.92322</ele>
        <time>2022-08-11T15:35:31.000Z</time>
      </trkpt>
      <trkpt lat="45.82615" lon="4.74162">
        <ele>352.81097</ele>
        <time>2022-08-11T15:35:32.000Z</time>
      </trkpt>
      <trkpt lat="45.82615" lon="4.74158">
        <ele>352.66326</ele>
        <time>2022-08-11T15:35:33.000Z</time>
      </trkpt>
      <trkpt lat="45.82615" lon="4.74154">
        <ele>352.51921</ele>
        <time>2022-08-11T15:35:34.000Z</time>
      </trkpt>
      <trkpt lat="45.82615" lon="4.74151">
        <ele>352.36557</ele>
        <time>2022-08-11T15:35:35.000Z</time>
      </trkpt>
      <trkpt lat="45.82614" lon="4.74147">
        <ele>352.1986</ele>
        <time>2022-08-11T15:35:36.000Z</time>
      </trkpt>
      <trkpt lat="45.82614" lon="4.74143">
        <ele>352.02114</ele>
        <time>2022-08-11T15:35:37.000Z</time>
      </trkpt>
      <trkpt lat="45.82613" lon="4.74139">
        <ele>351.81635</ele>
        <time>2022-08-11T15:35:38.000Z</time>
      </trkpt>
      <trkpt lat="45.82613" lon="4.74134">
        <ele>351.57973</ele>
        <time>2022-08-11T15:35:39.000Z</time>
      </trkpt>
      <trkpt lat="45.82613" lon="4.7413">
        <ele>351.334</ele>
        <time>2022-08-11T15:35:40.000Z</time>
      </trkpt>
      <trkpt lat="45.82613" lon="4.74126">
        <ele>351.10133</ele>
        <time>2022-08-11T15:35:41.000Z</time>
      </trkpt>
      <trkpt lat="45.82613" lon="4.74122">
        <ele>350.87626</ele>
        <time>2022-08-11T15:35:42.000Z</time>
      </trkpt>
      <trkpt lat="45.82613" lon="4.74119">
        <ele>350.64239</ele>
        <time>2022-08-11T15:35:43.000Z</time>
      </trkpt>
      <trkpt lat="45.82613" lon="4.74115">
        <ele>350.39874</ele>
        <time>2022-08-11T15:35:44.000Z</time>
      </trkpt>
      <trkpt lat="45.82612" lon="4.74111">
        <ele>350.14911</ele>
        <time>2022-08-11T15:35:45.000Z</time>
      </trkpt>
      <trkpt lat="45.82612" lon="4.74108">
        <ele>349.92322</ele>
        <time>2022-08-11T15:35:46.000Z</time>
      </trkpt>
      <trkpt lat="45.82612" lon="4.74104">
        <ele>349.70094</ele>
        <time>2022-08-11T15:35:47.000Z</time>
      </trkpt>
      <trkpt lat="45.82612" lon="4.74101">
        <ele>349.46629</ele>
        <time>2022-08-11T15:35:48.000Z</time>
      </trkpt>
      <trkpt lat="45.82612" lon="4.74097">
        <ele>349.22276</ele>
        <time>2022-08-11T15:35:49.000Z</time>
      </trkpt>
      <trkpt lat="45.82611" lon="4.74094">
        <ele>348.95761</ele>
        <time>2022-08-11T15:35:50.000Z</time>
      </trkpt>
      <trkpt lat="45.82611" lon="4.74089">
        <ele>348.63948</ele>
        <time>2022-08-11T15:35:51.000Z</time>
      </trkpt>
      <trkpt lat="45.82611" lon="4.74084">
        <ele>348.27283</ele>
        <time>2022-08-11T15:35:52.000Z</time>
      </trkpt>
      <trkpt lat="45.82611" lon="4.74079">
        <ele>347.92366</ele>
        <time>2022-08-11T15:35:53.000Z</time>
      </trkpt>
      <trkpt lat="45.82611" lon="4.74074">
        <ele>347.55036</ele>
        <time>2022-08-11T15:35:54.000Z</time>
      </trkpt>
      <trkpt lat="45.82611" lon="4.74069">
        <ele>347.18879</ele>
        <time>2022-08-11T15:35:55.000Z</time>
      </trkpt>
      <trkpt lat="45.8261" lon="4.74063">
        <ele>346.82149</ele>
        <time>2022-08-11T15:35:56.000Z</time>
      </trkpt>
      <trkpt lat="45.8261" lon="4.74058">
        <ele>346.44164</ele>
        <time>2022-08-11T15:35:57.000Z</time>
      </trkpt>
      <trkpt lat="45.8261" lon="4.74052">
        <ele>346.05746</ele>
        <time>2022-08-11T15:35:58.000Z</time>
      </trkpt>
      <trkpt lat="45.8261" lon="4.74046">
        <ele>345.67406</ele>
        <time>2022-08-11T15:35:59.000Z</time>
      </trkpt>
      <trkpt lat="45.8261" lon="4.7404">
        <ele>345.30862</ele>
        <time>2022-08-11T15:36:00.000Z</time>
      </trkpt>
      <trkpt lat="45.8261" lon="4.74035">
        <ele>344.9748</ele>
        <time>2022-08-11T15:36:01.000Z</time>
      </trkpt>
      <trkpt lat="45.8261" lon="4.74029">
        <ele>344.66081</ele>
        <time>2022-08-11T15:36:02.000Z</time>
      </trkpt>
      <trkpt lat="45.8261" lon="4.74023">
        <ele>344.32938</ele>
        <time>2022-08-11T15:36:03.000Z</time>
      </trkpt>
      <trkpt lat="45.8261" lon="4.74017">
        <ele>344.00003</ele>
        <time>2022-08-11T15:36:04.000Z</time>
      </trkpt>
      <trkpt lat="45.8261" lon="4.74011">
        <ele>343.66803</ele>
        <time>2022-08-11T15:36:05.000Z</time>
      </trkpt>
      <trkpt lat="45.82609" lon="4.74007">
        <ele>343.42365</ele>
        <time>2022-08-11T15:36:06.000Z</time>
      </trkpt>
      <trkpt lat="45.82607" lon="4.73999">
        <ele>342.9478</ele>
        <time>2022-08-11T15:36:07.000Z</time>
      </trkpt>
      <trkpt lat="45.82605" lon="4.73991">
        <ele>342.46183</ele>
        <time>2022-08-11T15:36:08.000Z</time>
      </trkpt>
      <trkpt lat="45.82602" lon="4.73983">
        <ele>341.95471</ele>
        <time>2022-08-11T15:36:09.000Z</time>
      </trkpt>
      <trkpt lat="45.82603" lon="4.73975">
        <ele>341.52741</ele>
        <time>2022-08-11T15:36:10.000Z</time>
      </trkpt>
      <trkpt lat="45.82601" lon="4.73967">
        <ele>341.16426</ele>
        <time>2022-08-11T15:36:11.000Z</time>
      </trkpt>
      <trkpt lat="45.82598" lon="4.73959">
        <ele>340.84302</ele>
        <time>2022-08-11T15:36:12.000Z</time>
      </trkpt>
      <trkpt lat="45.82596" lon="4.73952">
        <ele>340.53781</ele>
        <time>2022-08-11T15:36:13.000Z</time>
      </trkpt>
      <trkpt lat="45.82595" lon="4.73943">
        <ele>340.1864</ele>
        <time>2022-08-11T15:36:14.000Z</time>
      </trkpt>
      <trkpt lat="45.82593" lon="4.73937">
        <ele>339.98559</ele>
        <time>2022-08-11T15:36:15.000Z</time>
      </trkpt>
      <trkpt lat="45.82592" lon="4.73929">
        <ele>339.67682</ele>
        <time>2022-08-11T15:36:16.000Z</time>
      </trkpt>
      <trkpt lat="45.8259" lon="4.73921">
        <ele>339.35143</ele>
        <time>2022-08-11T15:36:17.000Z</time>
      </trkpt>
      <trkpt lat="45.82588" lon="4.73914">
        <ele>339.00202</ele>
        <time>2022-08-11T15:36:18.000Z</time>
      </trkpt>
      <trkpt lat="45.82587" lon="4.73905">
        <ele>338.72557</ele>
        <time>2022-08-11T15:36:19.000Z</time>
      </trkpt>
      <trkpt lat="45.82585" lon="4.73897">
        <ele>338.6764</ele>
        <time>2022-08-11T15:36:20.000Z</time>
      </trkpt>
      <trkpt lat="45.82582" lon="4.7389">
        <ele>338.8533</ele>
        <time>2022-08-11T15:36:21.000Z</time>
      </trkpt>
      <trkpt lat="45.82581" lon="4.73884">
        <ele>339.00525</ele>
        <time>2022-08-11T15:36:22.000Z</time>
      </trkpt>
      <trkpt lat="45.82579" lon="4.73877">
        <ele>339.11472</ele>
        <time>2022-08-11T15:36:23.000Z</time>
      </trkpt>
      <trkpt lat="45.82578" lon="4.73871">
        <ele>339.09932</ele>
        <time>2022-08-11T15:36:24.000Z</time>
      </trkpt>
      <trkpt lat="45.82577" lon="4.73866">
        <ele>338.96547</ele>
        <time>2022-08-11T15:36:25.000Z</time>
      </trkpt>
      <trkpt lat="45.82575" lon="4.7386">
        <ele>338.74995</ele>
        <time>2022-08-11T15:36:26.000Z</time>
      </trkpt>
      <trkpt lat="45.82573" lon="4.73857">
        <ele>338.64792</ele>
        <time>2022-08-11T15:36:27.000Z</time>
      </trkpt>
      <trkpt lat="45.82572" lon="4.73854">
        <ele>338.57057</ele>
        <time>2022-08-11T15:36:28.000Z</time>
      </trkpt>
      <trkpt lat="45.8257" lon="4.73852">
        <ele>338.52136</ele>
        <time>2022-08-11T15:36:29.000Z</time>
      </trkpt>
      <trkpt lat="45.8257" lon="4.73849">
        <ele>338.55306</ele>
        <time>2022-08-11T15:36:31.000Z</time>
      </trkpt>
      <trkpt lat="45.82568" lon="4.73848">
        <ele>338.52855</ele>
        <time>2022-08-11T15:37:13.000Z</time>
      </trkpt>
      <trkpt lat="45.82566" lon="4.73846">
        <ele>338.5079</ele>
        <time>2022-08-11T15:37:14.000Z</time>
      </trkpt>
      <trkpt lat="45.82564" lon="4.73843">
        <ele>338.45248</ele>
        <time>2022-08-11T15:37:15.000Z</time>
      </trkpt>
      <trkpt lat="45.82563" lon="4.73839">
        <ele>338.35862</ele>
        <time>2022-08-11T15:37:16.000Z</time>
      </trkpt>
      <trkpt lat="45.82562" lon="4.73834">
        <ele>338.21831</ele>
        <time>2022-08-11T15:37:17.000Z</time>
      </trkpt>
      <trkpt lat="45.82562" lon="4.73828">
        <ele>338.08869</ele>
        <time>2022-08-11T15:37:18.000Z</time>
      </trkpt>
      <trkpt lat="45.82563" lon="4.73822">
        <ele>337.98709</ele>
        <time>2022-08-11T15:37:19.000Z</time>
      </trkpt>
      <trkpt lat="45.82568" lon="4.73811">
        <ele>337.87001</ele>
        <time>2022-08-11T15:37:20.000Z</time>
      </trkpt>
      <trkpt lat="45.8257" lon="4.73803">
        <ele>337.60996</ele>
        <time>2022-08-11T15:37:21.000Z</time>
      </trkpt>
      <trkpt lat="45.82571" lon="4.73796">
        <ele>337.30095</ele>
        <time>2022-08-11T15:37:22.000Z</time>
      </trkpt>
      <trkpt lat="45.82573" lon="4.7379">
        <ele>336.94314</ele>
        <time>2022-08-11T15:37:23.000Z</time>
      </trkpt>
      <trkpt lat="45.82575" lon="4.73784">
        <ele>336.60962</ele>
        <time>2022-08-11T15:37:24.000Z</time>
      </trkpt>
      <trkpt lat="45.82583" lon="4.7376">
        <ele>336.97297</ele>
        <time>2022-08-11T15:37:30.000Z</time>
      </trkpt>
      <trkpt lat="45.8258" lon="4.73755">
        <ele>336.38754</ele>
        <time>2022-08-11T15:37:31.000Z</time>
      </trkpt>
      <trkpt lat="45.82584" lon="4.73746">
        <ele>337.14603</ele>
        <time>2022-08-11T15:37:33.000Z</time>
      </trkpt>
      <trkpt lat="45.82588" lon="4.73741">
        <ele>337.7487</ele>
        <time>2022-08-11T15:37:34.000Z</time>
      </trkpt>
      <trkpt lat="45.82592" lon="4.73736">
        <ele>337.93675</ele>
        <time>2022-08-11T15:37:35.000Z</time>
      </trkpt>
      <trkpt lat="45.82595" lon="4.73733">
        <ele>337.98345</ele>
        <time>2022-08-11T15:37:36.000Z</time>
      </trkpt>
      <trkpt lat="45.82599" lon="4.7373">
        <ele>338.03616</ele>
        <time>2022-08-11T15:37:37.000Z</time>
      </trkpt>
      <trkpt lat="45.82603" lon="4.73726">
        <ele>338.14686</ele>
        <time>2022-08-11T15:37:38.000Z</time>
      </trkpt>
      <trkpt lat="45.82606" lon="4.73725">
        <ele>338.38411</ele>
        <time>2022-08-11T15:37:39.000Z</time>
      </trkpt>
      <trkpt lat="45.8261" lon="4.73725">
        <ele>338.64411</ele>
        <time>2022-08-11T15:37:40.000Z</time>
      </trkpt>
      <trkpt lat="45.82614" lon="4.73726">
        <ele>338.80265</ele>
        <time>2022-08-11T15:37:41.000Z</time>
      </trkpt>
      <trkpt lat="45.82618" lon="4.73726">
        <ele>338.86612</ele>
        <time>2022-08-11T15:37:42.000Z</time>
      </trkpt>
      <trkpt lat="45.82622" lon="4.73726">
        <ele>338.8708</ele>
        <time>2022-08-11T15:37:43.000Z</time>
      </trkpt>
      <trkpt lat="45.82626" lon="4.73724">
        <ele>338.8675</ele>
        <time>2022-08-11T15:37:44.000Z</time>
      </trkpt>
      <trkpt lat="45.82629" lon="4.73724">
        <ele>338.84486</ele>
        <time>2022-08-11T15:37:45.000Z</time>
      </trkpt>
      <trkpt lat="45.82634" lon="4.73723">
        <ele>338.83233</ele>
        <time>2022-08-11T15:37:46.000Z</time>
      </trkpt>
      <trkpt lat="45.82638" lon="4.73723">
        <ele>338.8512</ele>
        <time>2022-08-11T15:37:47.000Z</time>
      </trkpt>
      <trkpt lat="45.82641" lon="4.73723">
        <ele>338.88027</ele>
        <time>2022-08-11T15:37:48.000Z</time>
      </trkpt>
      <trkpt lat="45.82644" lon="4.73723">
        <ele>338.92815</ele>
        <time>2022-08-11T15:37:49.000Z</time>
      </trkpt>
      <trkpt lat="45.82648" lon="4.73723">
        <ele>338.9821</ele>
        <time>2022-08-11T15:37:50.000Z</time>
      </trkpt>
      <trkpt lat="45.82651" lon="4.73724">
        <ele>339.05223</ele>
        <time>2022-08-11T15:37:51.000Z</time>
      </trkpt>
      <trkpt lat="45.82655" lon="4.73723">
        <ele>339.15428</ele>
        <time>2022-08-11T15:37:52.000Z</time>
      </trkpt>
      <trkpt lat="45.82658" lon="4.73722">
        <ele>339.28358</ele>
        <time>2022-08-11T15:37:53.000Z</time>
      </trkpt>
      <trkpt lat="45.82662" lon="4.7372">
        <ele>339.46465</ele>
        <time>2022-08-11T15:37:54.000Z</time>
      </trkpt>
      <trkpt lat="45.82666" lon="4.73716">
        <ele>339.69091</ele>
        <time>2022-08-11T15:37:55.000Z</time>
      </trkpt>
      <trkpt lat="45.8267" lon="4.73713">
        <ele>339.94115</ele>
        <time>2022-08-11T15:37:56.000Z</time>
      </trkpt>
      <trkpt lat="45.82674" lon="4.73709">
        <ele>340.18448</ele>
        <time>2022-08-11T15:37:57.000Z</time>
      </trkpt>
      <trkpt lat="45.82678" lon="4.73704">
        <ele>340.51341</ele>
        <time>2022-08-11T15:37:58.000Z</time>
      </trkpt>
      <trkpt lat="45.82682" lon="4.73701">
        <ele>340.66243</ele>
        <time>2022-08-11T15:37:59.000Z</time>
      </trkpt>
      <trkpt lat="45.82686" lon="4.73697">
        <ele>340.80523</ele>
        <time>2022-08-11T15:38:00.000Z</time>
      </trkpt>
      <trkpt lat="45.8269" lon="4.73693">
        <ele>340.96321</ele>
        <time>2022-08-11T15:38:01.000Z</time>
      </trkpt>
      <trkpt lat="45.82694" lon="4.7369">
        <ele>341.0319</ele>
        <time>2022-08-11T15:38:02.000Z</time>
      </trkpt>
      <trkpt lat="45.82697" lon="4.73688">
        <ele>341.06428</ele>
        <time>2022-08-11T15:38:03.000Z</time>
      </trkpt>
      <trkpt lat="45.82701" lon="4.73684">
        <ele>341.08478</ele>
        <time>2022-08-11T15:38:04.000Z</time>
      </trkpt>
      <trkpt lat="45.82704" lon="4.73682">
        <ele>341.05218</ele>
        <time>2022-08-11T15:38:05.000Z</time>
      </trkpt>
      <trkpt lat="45.82708" lon="4.73679">
        <ele>341.02071</ele>
        <time>2022-08-11T15:38:06.000Z</time>
      </trkpt>
      <trkpt lat="45.82711" lon="4.73676">
        <ele>340.98286</ele>
        <time>2022-08-11T15:38:07.000Z</time>
      </trkpt>
      <trkpt lat="45.82714" lon="4.73673">
        <ele>340.9693</ele>
        <time>2022-08-11T15:38:08.000Z</time>
      </trkpt>
      <trkpt lat="45.82718" lon="4.73669">
        <ele>340.93432</ele>
        <time>2022-08-11T15:38:09.000Z</time>
      </trkpt>
      <trkpt lat="45.82721" lon="4.73665">
        <ele>340.89109</ele>
        <time>2022-08-11T15:38:10.000Z</time>
      </trkpt>
      <trkpt lat="45.82724" lon="4.73661">
        <ele>340.88333</ele>
        <time>2022-08-11T15:38:11.000Z</time>
      </trkpt>
      <trkpt lat="45.82728" lon="4.73658">
        <ele>340.75901</ele>
        <time>2022-08-11T15:38:12.000Z</time>
      </trkpt>
      <trkpt lat="45.82732" lon="4.73654">
        <ele>340.59735</ele>
        <time>2022-08-11T15:38:13.000Z</time>
      </trkpt>
      <trkpt lat="45.82735" lon="4.73651">
        <ele>340.39997</ele>
        <time>2022-08-11T15:38:14.000Z</time>
      </trkpt>
      <trkpt lat="45.82738" lon="4.73648">
        <ele>340.2031</ele>
        <time>2022-08-11T15:38:15.000Z</time>
      </trkpt>
      <trkpt lat="45.82741" lon="4.73645">
        <ele>339.98843</ele>
        <time>2022-08-11T15:38:16.000Z</time>
      </trkpt>
      <trkpt lat="45.82744" lon="4.73642">
        <ele>339.81732</ele>
        <time>2022-08-11T15:38:17.000Z</time>
      </trkpt>
      <trkpt lat="45.82747" lon="4.73639">
        <ele>339.68913</ele>
        <time>2022-08-11T15:38:18.000Z</time>
      </trkpt>
      <trkpt lat="45.82749" lon="4.73637">
        <ele>339.6189</ele>
        <time>2022-08-11T15:38:19.000Z</time>
      </trkpt>
      <trkpt lat="45.82751" lon="4.73634">
        <ele>339.54547</ele>
        <time>2022-08-11T15:38:20.000Z</time>
      </trkpt>
      <trkpt lat="45.82753" lon="4.73632">
        <ele>339.43534</ele>
        <time>2022-08-11T15:38:21.000Z</time>
      </trkpt>
      <trkpt lat="45.82755" lon="4.7363">
        <ele>339.30144</ele>
        <time>2022-08-11T15:38:22.000Z</time>
      </trkpt>
      <trkpt lat="45.82758" lon="4.73627">
        <ele>339.13315</ele>
        <time>2022-08-11T15:38:23.000Z</time>
      </trkpt>
      <trkpt lat="45.82761" lon="4.73624">
        <ele>338.89636</ele>
        <time>2022-08-11T15:38:24.000Z</time>
      </trkpt>
      <trkpt lat="45.82764" lon="4.73621">
        <ele>338.56019</ele>
        <time>2022-08-11T15:38:25.000Z</time>
      </trkpt>
      <trkpt lat="45.82768" lon="4.73618">
        <ele>338.13787</ele>
        <time>2022-08-11T15:38:26.000Z</time>
      </trkpt>
      <trkpt lat="45.82771" lon="4.73614">
        <ele>337.72605</ele>
        <time>2022-08-11T15:38:27.000Z</time>
      </trkpt>
      <trkpt lat="45.82775" lon="4.7361">
        <ele>337.35937</ele>
        <time>2022-08-11T15:38:28.000Z</time>
      </trkpt>
      <trkpt lat="45.82778" lon="4.73603">
        <ele>337.17711</ele>
        <time>2022-08-11T15:38:29.000Z</time>
      </trkpt>
      <trkpt lat="45.82782" lon="4.73599">
        <ele>336.88206</ele>
        <time>2022-08-11T15:38:30.000Z</time>
      </trkpt>
      <trkpt lat="45.82785" lon="4.73595">
        <ele>336.56359</ele>
        <time>2022-08-11T15:38:31.000Z</time>
      </trkpt>
      <trkpt lat="45.82788" lon="4.73592">
        <ele>336.27723</ele>
        <time>2022-08-11T15:38:32.000Z</time>
      </trkpt>
      <trkpt lat="45.82791" lon="4.7359">
        <ele>335.88123</ele>
        <time>2022-08-11T15:38:33.000Z</time>
      </trkpt>
      <trkpt lat="45.82793" lon="4.73586">
        <ele>335.69489</ele>
        <time>2022-08-11T15:38:34.000Z</time>
      </trkpt>
      <trkpt lat="45.82796" lon="4.73582">
        <ele>335.42797</ele>
        <time>2022-08-11T15:38:35.000Z</time>
      </trkpt>
      <trkpt lat="45.82799" lon="4.73578">
        <ele>335.09307</ele>
        <time>2022-08-11T15:38:36.000Z</time>
      </trkpt>
      <trkpt lat="45.82803" lon="4.73574">
        <ele>334.69325</ele>
        <time>2022-08-11T15:38:37.000Z</time>
      </trkpt>
      <trkpt lat="45.82806" lon="4.73569">
        <ele>334.45253</ele>
        <time>2022-08-11T15:38:38.000Z</time>
      </trkpt>
      <trkpt lat="45.8281" lon="4.73567">
        <ele>333.91018</ele>
        <time>2022-08-11T15:38:39.000Z</time>
      </trkpt>
      <trkpt lat="45.82812" lon="4.73565">
        <ele>333.68978</ele>
        <time>2022-08-11T15:38:40.000Z</time>
      </trkpt>
      <trkpt lat="45.82814" lon="4.73563">
        <ele>333.47714</ele>
        <time>2022-08-11T15:38:41.000Z</time>
      </trkpt>
      <trkpt lat="45.82816" lon="4.73562">
        <ele>333.23576</ele>
        <time>2022-08-11T15:38:42.000Z</time>
      </trkpt>
      <trkpt lat="45.82818" lon="4.7356">
        <ele>332.97516</ele>
        <time>2022-08-11T15:38:43.000Z</time>
      </trkpt>
      <trkpt lat="45.8282" lon="4.73558">
        <ele>332.65084</ele>
        <time>2022-08-11T15:38:44.000Z</time>
      </trkpt>
      <trkpt lat="45.82823" lon="4.73556">
        <ele>332.33464</ele>
        <time>2022-08-11T15:38:45.000Z</time>
      </trkpt>
      <trkpt lat="45.82826" lon="4.73553">
        <ele>331.99698</ele>
        <time>2022-08-11T15:38:46.000Z</time>
      </trkpt>
      <trkpt lat="45.82829" lon="4.7355">
        <ele>331.65898</ele>
        <time>2022-08-11T15:38:47.000Z</time>
      </trkpt>
      <trkpt lat="45.82832" lon="4.73546">
        <ele>331.32812</ele>
        <time>2022-08-11T15:38:48.000Z</time>
      </trkpt>
      <trkpt lat="45.82835" lon="4.73541">
        <ele>331.07435</ele>
        <time>2022-08-11T15:38:49.000Z</time>
      </trkpt>
      <trkpt lat="45.82838" lon="4.73537">
        <ele>330.80006</ele>
        <time>2022-08-11T15:38:50.000Z</time>
      </trkpt>
      <trkpt lat="45.8284" lon="4.73533">
        <ele>330.54094</ele>
        <time>2022-08-11T15:38:51.000Z</time>
      </trkpt>
      <trkpt lat="45.82843" lon="4.73531">
        <ele>330.29684</ele>
        <time>2022-08-11T15:38:52.000Z</time>
      </trkpt>
      <trkpt lat="45.82846" lon="4.73528">
        <ele>329.97643</ele>
        <time>2022-08-11T15:38:53.000Z</time>
      </trkpt>
      <trkpt lat="45.82849" lon="4.73524">
        <ele>329.65479</ele>
        <time>2022-08-11T15:38:54.000Z</time>
      </trkpt>
      <trkpt lat="45.82852" lon="4.73521">
        <ele>329.29384</ele>
        <time>2022-08-11T15:38:55.000Z</time>
      </trkpt>
      <trkpt lat="45.82854" lon="4.73517">
        <ele>328.92998</ele>
        <time>2022-08-11T15:38:56.000Z</time>
      </trkpt>
      <trkpt lat="45.82858" lon="4.73513">
        <ele>328.51501</ele>
        <time>2022-08-11T15:38:57.000Z</time>
      </trkpt>
      <trkpt lat="45.82862" lon="4.73509">
        <ele>328.12838</ele>
        <time>2022-08-11T15:38:58.000Z</time>
      </trkpt>
      <trkpt lat="45.82865" lon="4.73505">
        <ele>327.756</ele>
        <time>2022-08-11T15:38:59.000Z</time>
      </trkpt>
      <trkpt lat="45.8287" lon="4.73501">
        <ele>327.34347</ele>
        <time>2022-08-11T15:39:00.000Z</time>
      </trkpt>
      <trkpt lat="45.82873" lon="4.73496">
        <ele>326.93754</ele>
        <time>2022-08-11T15:39:01.000Z</time>
      </trkpt>
      <trkpt lat="45.82877" lon="4.73492">
        <ele>326.5106</ele>
        <time>2022-08-11T15:39:02.000Z</time>
      </trkpt>
      <trkpt lat="45.8288" lon="4.73489">
        <ele>326.13866</ele>
        <time>2022-08-11T15:39:03.000Z</time>
      </trkpt>
      <trkpt lat="45.82883" lon="4.73486">
        <ele>325.77251</ele>
        <time>2022-08-11T15:39:04.000Z</time>
      </trkpt>
      <trkpt lat="45.82885" lon="4.73484">
        <ele>325.43756</ele>
        <time>2022-08-11T15:39:05.000Z</time>
      </trkpt>
      <trkpt lat="45.82888" lon="4.73483">
        <ele>325.1109</ele>
        <time>2022-08-11T15:39:06.000Z</time>
      </trkpt>
      <trkpt lat="45.82891" lon="4.7348">
        <ele>324.69916</ele>
        <time>2022-08-11T15:39:07.000Z</time>
      </trkpt>
      <trkpt lat="45.82895" lon="4.73477">
        <ele>324.31832</ele>
        <time>2022-08-11T15:39:08.000Z</time>
      </trkpt>
      <trkpt lat="45.82898" lon="4.73474">
        <ele>323.95969</ele>
        <time>2022-08-11T15:39:09.000Z</time>
      </trkpt>
      <trkpt lat="45.82901" lon="4.7347">
        <ele>323.61989</ele>
        <time>2022-08-11T15:39:10.000Z</time>
      </trkpt>
      <trkpt lat="45.82904" lon="4.73467">
        <ele>323.25358</ele>
        <time>2022-08-11T15:39:11.000Z</time>
      </trkpt>
      <trkpt lat="45.82906" lon="4.73462">
        <ele>322.98382</ele>
        <time>2022-08-11T15:39:12.000Z</time>
      </trkpt>
      <trkpt lat="45.82909" lon="4.73458">
        <ele>322.68509</ele>
        <time>2022-08-11T15:39:13.000Z</time>
      </trkpt>
      <trkpt lat="45.82912" lon="4.73454">
        <ele>322.31669</ele>
        <time>2022-08-11T15:39:14.000Z</time>
      </trkpt>
      <trkpt lat="45.82916" lon="4.7345">
        <ele>321.95154</ele>
        <time>2022-08-11T15:39:15.000Z</time>
      </trkpt>
      <trkpt lat="45.82919" lon="4.73446">
        <ele>321.60099</ele>
        <time>2022-08-11T15:39:16.000Z</time>
      </trkpt>
      <trkpt lat="45.82922" lon="4.73442">
        <ele>321.22787</ele>
        <time>2022-08-11T15:39:17.000Z</time>
      </trkpt>
      <trkpt lat="45.82926" lon="4.73439">
        <ele>320.89735</ele>
        <time>2022-08-11T15:39:18.000Z</time>
      </trkpt>
      <trkpt lat="45.82931" lon="4.73431">
        <ele>320.37278</ele>
        <time>2022-08-11T15:39:19.000Z</time>
      </trkpt>
      <trkpt lat="45.82935" lon="4.73428">
        <ele>320.01527</ele>
        <time>2022-08-11T15:39:20.000Z</time>
      </trkpt>
      <trkpt lat="45.8294" lon="4.73424">
        <ele>319.58313</ele>
        <time>2022-08-11T15:39:21.000Z</time>
      </trkpt>
      <trkpt lat="45.82944" lon="4.7342">
        <ele>319.27067</ele>
        <time>2022-08-11T15:39:22.000Z</time>
      </trkpt>
      <trkpt lat="45.82948" lon="4.73416">
        <ele>318.95604</ele>
        <time>2022-08-11T15:39:23.000Z</time>
      </trkpt>
      <trkpt lat="45.82954" lon="4.73413">
        <ele>318.52863</ele>
        <time>2022-08-11T15:39:24.000Z</time>
      </trkpt>
      <trkpt lat="45.8296" lon="4.73408">
        <ele>318.18992</ele>
        <time>2022-08-11T15:39:25.000Z</time>
      </trkpt>
      <trkpt lat="45.82965" lon="4.73403">
        <ele>317.87681</ele>
        <time>2022-08-11T15:39:26.000Z</time>
      </trkpt>
      <trkpt lat="45.82971" lon="4.734">
        <ele>317.55695</ele>
        <time>2022-08-11T15:39:27.000Z</time>
      </trkpt>
      <trkpt lat="45.82972" lon="4.73398">
        <ele>317.46943</ele>
        <time>2022-08-11T15:39:28.000Z</time>
      </trkpt>
      <trkpt lat="45.82975" lon="4.73395">
        <ele>317.24568</ele>
        <time>2022-08-11T15:39:29.000Z</time>
      </trkpt>
      <trkpt lat="45.82978" lon="4.73392">
        <ele>316.98951</ele>
        <time>2022-08-11T15:39:30.000Z</time>
      </trkpt>
      <trkpt lat="45.82983" lon="4.73387">
        <ele>316.49651</ele>
        <time>2022-08-11T15:39:31.000Z</time>
      </trkpt>
      <trkpt lat="45.82989" lon="4.73385">
        <ele>315.99452</ele>
        <time>2022-08-11T15:39:32.000Z</time>
      </trkpt>
      <trkpt lat="45.82995" lon="4.73382">
        <ele>315.52743</ele>
        <time>2022-08-11T15:39:33.000Z</time>
      </trkpt>
      <trkpt lat="45.82997" lon="4.73378">
        <ele>315.29376</ele>
        <time>2022-08-11T15:39:34.000Z</time>
      </trkpt>
      <trkpt lat="45.83001" lon="4.73376">
        <ele>315.03123</ele>
        <time>2022-08-11T15:39:35.000Z</time>
      </trkpt>
      <trkpt lat="45.83003" lon="4.73374">
        <ele>314.86984</ele>
        <time>2022-08-11T15:39:36.000Z</time>
      </trkpt>
      <trkpt lat="45.83007" lon="4.73371">
        <ele>314.6228</ele>
        <time>2022-08-11T15:39:37.000Z</time>
      </trkpt>
      <trkpt lat="45.8301" lon="4.73367">
        <ele>314.36558</ele>
        <time>2022-08-11T15:39:38.000Z</time>
      </trkpt>
      <trkpt lat="45.83014" lon="4.73364">
        <ele>314.11103</ele>
        <time>2022-08-11T15:39:39.000Z</time>
      </trkpt>
      <trkpt lat="45.83017" lon="4.7336">
        <ele>313.81748</ele>
        <time>2022-08-11T15:39:40.000Z</time>
      </trkpt>
      <trkpt lat="45.8302" lon="4.73356">
        <ele>313.48488</ele>
        <time>2022-08-11T15:39:41.000Z</time>
      </trkpt>
      <trkpt lat="45.83026" lon="4.73354">
        <ele>313.05695</ele>
        <time>2022-08-11T15:39:42.000Z</time>
      </trkpt>
      <trkpt lat="45.83031" lon="4.7335">
        <ele>312.52403</ele>
        <time>2022-08-11T15:39:43.000Z</time>
      </trkpt>
      <trkpt lat="45.83036" lon="4.73347">
        <ele>312.03959</ele>
        <time>2022-08-11T15:39:44.000Z</time>
      </trkpt>
      <trkpt lat="45.83041" lon="4.73343">
        <ele>311.60061</ele>
        <time>2022-08-11T15:39:45.000Z</time>
      </trkpt>
      <trkpt lat="45.83045" lon="4.73339">
        <ele>311.24327</ele>
        <time>2022-08-11T15:39:46.000Z</time>
      </trkpt>
      <trkpt lat="45.83047" lon="4.73335">
        <ele>310.97643</ele>
        <time>2022-08-11T15:39:47.000Z</time>
      </trkpt>
      <trkpt lat="45.83051" lon="4.73331">
        <ele>310.59529</ele>
        <time>2022-08-11T15:39:48.000Z</time>
      </trkpt>
      <trkpt lat="45.83056" lon="4.73328">
        <ele>310.11516</ele>
        <time>2022-08-11T15:39:49.000Z</time>
      </trkpt>
      <trkpt lat="45.83061" lon="4.73322">
        <ele>309.5455</ele>
        <time>2022-08-11T15:39:50.000Z</time>
      </trkpt>
      <trkpt lat="45.83065" lon="4.73319">
        <ele>309.14843</ele>
        <time>2022-08-11T15:39:51.000Z</time>
      </trkpt>
      <trkpt lat="45.83068" lon="4.73316">
        <ele>308.80161</ele>
        <time>2022-08-11T15:39:52.000Z</time>
      </trkpt>
      <trkpt lat="45.83071" lon="4.73313">
        <ele>308.44538</ele>
        <time>2022-08-11T15:39:53.000Z</time>
      </trkpt>
      <trkpt lat="45.83076" lon="4.73309">
        <ele>308.00033</ele>
        <time>2022-08-11T15:39:54.000Z</time>
      </trkpt>
      <trkpt lat="45.8308" lon="4.73303">
        <ele>307.51248</ele>
        <time>2022-08-11T15:39:55.000Z</time>
      </trkpt>
      <trkpt lat="45.83083" lon="4.73298">
        <ele>307.05661</ele>
        <time>2022-08-11T15:39:56.000Z</time>
      </trkpt>
      <trkpt lat="45.83088" lon="4.73293">
        <ele>306.46616</ele>
        <time>2022-08-11T15:39:57.000Z</time>
      </trkpt>
      <trkpt lat="45.83092" lon="4.73291">
        <ele>306.1353</ele>
        <time>2022-08-11T15:39:58.000Z</time>
      </trkpt>
      <trkpt lat="45.83095" lon="4.73288">
        <ele>305.73046</ele>
        <time>2022-08-11T15:39:59.000Z</time>
      </trkpt>
      <trkpt lat="45.831" lon="4.73284">
        <ele>305.2308</ele>
        <time>2022-08-11T15:40:00.000Z</time>
      </trkpt>
      <trkpt lat="45.83104" lon="4.73282">
        <ele>304.85471</ele>
        <time>2022-08-11T15:40:01.000Z</time>
      </trkpt>
      <trkpt lat="45.83108" lon="4.73277">
        <ele>304.43456</ele>
        <time>2022-08-11T15:40:02.000Z</time>
      </trkpt>
      <trkpt lat="45.83111" lon="4.73274">
        <ele>304.18885</ele>
        <time>2022-08-11T15:40:03.000Z</time>
      </trkpt>
      <trkpt lat="45.83114" lon="4.7327">
        <ele>303.85505</ele>
        <time>2022-08-11T15:40:04.000Z</time>
      </trkpt>
      <trkpt lat="45.83118" lon="4.73266">
        <ele>303.42058</ele>
        <time>2022-08-11T15:40:05.000Z</time>
      </trkpt>
      <trkpt lat="45.8312" lon="4.73263">
        <ele>303.10294</ele>
        <time>2022-08-11T15:40:06.000Z</time>
      </trkpt>
      <trkpt lat="45.83122" lon="4.7326">
        <ele>302.80486</ele>
        <time>2022-08-11T15:40:07.000Z</time>
      </trkpt>
      <trkpt lat="45.83125" lon="4.73257">
        <ele>302.47823</ele>
        <time>2022-08-11T15:40:08.000Z</time>
      </trkpt>
      <trkpt lat="45.83128" lon="4.73253">
        <ele>302.08498</ele>
        <time>2022-08-11T15:40:09.000Z</time>
      </trkpt>
      <trkpt lat="45.83132" lon="4.73249">
        <ele>301.67403</ele>
        <time>2022-08-11T15:40:10.000Z</time>
      </trkpt>
      <trkpt lat="45.83136" lon="4.73246">
        <ele>301.29181</ele>
        <time>2022-08-11T15:40:11.000Z</time>
      </trkpt>
      <trkpt lat="45.83139" lon="4.73244">
        <ele>300.96789</ele>
        <time>2022-08-11T15:40:12.000Z</time>
      </trkpt>
      <trkpt lat="45.83142" lon="4.73241">
        <ele>300.68342</ele>
        <time>2022-08-11T15:40:13.000Z</time>
      </trkpt>
      <trkpt lat="45.83145" lon="4.73238">
        <ele>300.34048</ele>
        <time>2022-08-11T15:40:14.000Z</time>
      </trkpt>
      <trkpt lat="45.83149" lon="4.73235">
        <ele>299.92402</ele>
        <time>2022-08-11T15:40:15.000Z</time>
      </trkpt>
      <trkpt lat="45.83153" lon="4.73231">
        <ele>299.50465</ele>
        <time>2022-08-11T15:40:16.000Z</time>
      </trkpt>
      <trkpt lat="45.8316" lon="4.73226">
        <ele>298.85818</ele>
        <time>2022-08-11T15:40:17.000Z</time>
      </trkpt>
      <trkpt lat="45.83164" lon="4.73223">
        <ele>298.4895</ele>
        <time>2022-08-11T15:40:18.000Z</time>
      </trkpt>
      <trkpt lat="45.83167" lon="4.7322">
        <ele>298.22318</ele>
        <time>2022-08-11T15:40:19.000Z</time>
      </trkpt>
      <trkpt lat="45.83173" lon="4.73214">
        <ele>297.80469</ele>
        <time>2022-08-11T15:40:20.000Z</time>
      </trkpt>
      <trkpt lat="45.83175" lon="4.73211">
        <ele>297.61494</ele>
        <time>2022-08-11T15:40:21.000Z</time>
      </trkpt>
      <trkpt lat="45.83179" lon="4.73209">
        <ele>297.38217</ele>
        <time>2022-08-11T15:40:22.000Z</time>
      </trkpt>
      <trkpt lat="45.83181" lon="4.73205">
        <ele>297.17936</ele>
        <time>2022-08-11T15:40:23.000Z</time>
      </trkpt>
      <trkpt lat="45.83183" lon="4.732">
        <ele>296.987</ele>
        <time>2022-08-11T15:40:24.000Z</time>
      </trkpt>
      <trkpt lat="45.83186" lon="4.73195">
        <ele>296.7681</ele>
        <time>2022-08-11T15:40:25.000Z</time>
      </trkpt>
      <trkpt lat="45.8319" lon="4.73192">
        <ele>296.5773</ele>
        <time>2022-08-11T15:40:26.000Z</time>
      </trkpt>
      <trkpt lat="45.83191" lon="4.73189">
        <ele>296.50167</ele>
        <time>2022-08-11T15:40:27.000Z</time>
      </trkpt>
      <trkpt lat="45.83192" lon="4.73184">
        <ele>296.36793</ele>
        <time>2022-08-11T15:40:28.000Z</time>
      </trkpt>
      <trkpt lat="45.83193" lon="4.73179">
        <ele>296.20668</ele>
        <time>2022-08-11T15:40:29.000Z</time>
      </trkpt>
      <trkpt lat="45.83194" lon="4.73174">
        <ele>296.04618</ele>
        <time>2022-08-11T15:40:30.000Z</time>
      </trkpt>
      <trkpt lat="45.83196" lon="4.73169">
        <ele>295.88206</ele>
        <time>2022-08-11T15:40:31.000Z</time>
      </trkpt>
      <trkpt lat="45.83197" lon="4.73164">
        <ele>295.70459</ele>
        <time>2022-08-11T15:40:32.000Z</time>
      </trkpt>
      <trkpt lat="45.832" lon="4.73153">
        <ele>295.41549</ele>
        <time>2022-08-11T15:40:33.000Z</time>
      </trkpt>
      <trkpt lat="45.83202" lon="4.73144">
        <ele>295.18582</ele>
        <time>2022-08-11T15:40:34.000Z</time>
      </trkpt>
      <trkpt lat="45.83204" lon="4.73138">
        <ele>295.0033</ele>
        <time>2022-08-11T15:40:35.000Z</time>
      </trkpt>
      <trkpt lat="45.83205" lon="4.73131">
        <ele>294.75506</ele>
        <time>2022-08-11T15:40:36.000Z</time>
      </trkpt>
      <trkpt lat="45.83205" lon="4.73123">
        <ele>294.44614</ele>
        <time>2022-08-11T15:40:37.000Z</time>
      </trkpt>
      <trkpt lat="45.83207" lon="4.73116">
        <ele>294.18669</ele>
        <time>2022-08-11T15:40:38.000Z</time>
      </trkpt>
      <trkpt lat="45.83208" lon="4.73109">
        <ele>293.94986</ele>
        <time>2022-08-11T15:40:39.000Z</time>
      </trkpt>
      <trkpt lat="45.83211" lon="4.73102">
        <ele>293.71631</ele>
        <time>2022-08-11T15:40:40.000Z</time>
      </trkpt>
      <trkpt lat="45.83213" lon="4.73097">
        <ele>293.54916</ele>
        <time>2022-08-11T15:40:41.000Z</time>
      </trkpt>
      <trkpt lat="45.83216" lon="4.73093">
        <ele>293.47641</ele>
        <time>2022-08-11T15:40:42.000Z</time>
      </trkpt>
      <trkpt lat="45.83218" lon="4.73087">
        <ele>293.32794</ele>
        <time>2022-08-11T15:40:43.000Z</time>
      </trkpt>
      <trkpt lat="45.83222" lon="4.73084">
        <ele>293.36152</ele>
        <time>2022-08-11T15:40:44.000Z</time>
      </trkpt>
      <trkpt lat="45.83224" lon="4.73081">
        <ele>293.34225</ele>
        <time>2022-08-11T15:40:45.000Z</time>
      </trkpt>
      <trkpt lat="45.83225" lon="4.73074">
        <ele>293.21812</ele>
        <time>2022-08-11T15:40:46.000Z</time>
      </trkpt>
      <trkpt lat="45.83229" lon="4.73069">
        <ele>293.21795</ele>
        <time>2022-08-11T15:40:47.000Z</time>
      </trkpt>
      <trkpt lat="45.83234" lon="4.73062">
        <ele>293.20416</ele>
        <time>2022-08-11T15:40:48.000Z</time>
      </trkpt>
      <trkpt lat="45.83237" lon="4.73054">
        <ele>293.15438</ele>
        <time>2022-08-11T15:40:49.000Z</time>
      </trkpt>
      <trkpt lat="45.83241" lon="4.73048">
        <ele>293.12431</ele>
        <time>2022-08-11T15:40:50.000Z</time>
      </trkpt>
      <trkpt lat="45.83244" lon="4.73041">
        <ele>293.09654</ele>
        <time>2022-08-11T15:40:51.000Z</time>
      </trkpt>
      <trkpt lat="45.83246" lon="4.73034">
        <ele>293.09307</ele>
        <time>2022-08-11T15:40:52.000Z</time>
      </trkpt>
      <trkpt lat="45.8325" lon="4.73025">
        <ele>293.01518</ele>
        <time>2022-08-11T15:40:53.000Z</time>
      </trkpt>
      <trkpt lat="45.83252" lon="4.73022">
        <ele>292.98265</ele>
        <time>2022-08-11T15:40:54.000Z</time>
      </trkpt>
      <trkpt lat="45.83254" lon="4.73017">
        <ele>292.93218</ele>
        <time>2022-08-11T15:40:55.000Z</time>
      </trkpt>
      <trkpt lat="45.83256" lon="4.73013">
        <ele>292.8936</ele>
        <time>2022-08-11T15:40:56.000Z</time>
      </trkpt>
      <trkpt lat="45.83259" lon="4.73006">
        <ele>292.81881</ele>
        <time>2022-08-11T15:40:57.000Z</time>
      </trkpt>
      <trkpt lat="45.83261" lon="4.73">
        <ele>292.73937</ele>
        <time>2022-08-11T15:40:58.000Z</time>
      </trkpt>
      <trkpt lat="45.83262" lon="4.72993">
        <ele>292.65087</ele>
        <time>2022-08-11T15:40:59.000Z</time>
      </trkpt>
      <trkpt lat="45.83265" lon="4.72988">
        <ele>292.46228</ele>
        <time>2022-08-11T15:41:00.000Z</time>
      </trkpt>
      <trkpt lat="45.83267" lon="4.72981">
        <ele>292.19851</ele>
        <time>2022-08-11T15:41:01.000Z</time>
      </trkpt>
      <trkpt lat="45.83269" lon="4.72977">
        <ele>291.97021</ele>
        <time>2022-08-11T15:41:02.000Z</time>
      </trkpt>
      <trkpt lat="45.83271" lon="4.72972">
        <ele>291.7061</ele>
        <time>2022-08-11T15:41:03.000Z</time>
      </trkpt>
      <trkpt lat="45.83273" lon="4.72968">
        <ele>291.43362</ele>
        <time>2022-08-11T15:41:04.000Z</time>
      </trkpt>
      <trkpt lat="45.83275" lon="4.72963">
        <ele>291.0945</ele>
        <time>2022-08-11T15:41:05.000Z</time>
      </trkpt>
      <trkpt lat="45.83278" lon="4.72957">
        <ele>290.71097</ele>
        <time>2022-08-11T15:41:06.000Z</time>
      </trkpt>
      <trkpt lat="45.83279" lon="4.72952">
        <ele>290.3561</ele>
        <time>2022-08-11T15:41:07.000Z</time>
      </trkpt>
      <trkpt lat="45.83281" lon="4.72948">
        <ele>290.05925</ele>
        <time>2022-08-11T15:41:08.000Z</time>
      </trkpt>
      <trkpt lat="45.83282" lon="4.72944">
        <ele>289.80104</ele>
        <time>2022-08-11T15:41:09.000Z</time>
      </trkpt>
      <trkpt lat="45.83283" lon="4.7294">
        <ele>289.5648</ele>
        <time>2022-08-11T15:41:10.000Z</time>
      </trkpt>
      <trkpt lat="45.83284" lon="4.72936">
        <ele>289.30056</ele>
        <time>2022-08-11T15:41:11.000Z</time>
      </trkpt>
      <trkpt lat="45.83286" lon="4.72932">
        <ele>289.00437</ele>
        <time>2022-08-11T15:41:12.000Z</time>
      </trkpt>
      <trkpt lat="45.83288" lon="4.72927">
        <ele>288.64354</ele>
        <time>2022-08-11T15:41:13.000Z</time>
      </trkpt>
      <trkpt lat="45.8329" lon="4.72921">
        <ele>288.21387</ele>
        <time>2022-08-11T15:41:14.000Z</time>
      </trkpt>
      <trkpt lat="45.83292" lon="4.72916">
        <ele>287.74934</ele>
        <time>2022-08-11T15:41:15.000Z</time>
      </trkpt>
      <trkpt lat="45.83293" lon="4.72911">
        <ele>287.36607</ele>
        <time>2022-08-11T15:41:16.000Z</time>
      </trkpt>
      <trkpt lat="45.83294" lon="4.72907">
        <ele>287.08275</ele>
        <time>2022-08-11T15:41:17.000Z</time>
      </trkpt>
      <trkpt lat="45.83295" lon="4.72905">
        <ele>286.86172</ele>
        <time>2022-08-11T15:41:18.000Z</time>
      </trkpt>
      <trkpt lat="45.83297" lon="4.729">
        <ele>286.4326</ele>
        <time>2022-08-11T15:41:20.000Z</time>
      </trkpt>
      <trkpt lat="45.83298" lon="4.72898">
        <ele>286.18279</ele>
        <time>2022-08-11T15:41:21.000Z</time>
      </trkpt>
      <trkpt lat="45.83299" lon="4.72896">
        <ele>285.92716</ele>
        <time>2022-08-11T15:41:35.000Z</time>
      </trkpt>
      <trkpt lat="45.83299" lon="4.72893">
        <ele>285.72213</ele>
        <time>2022-08-11T15:41:40.000Z</time>
      </trkpt>
      <trkpt lat="45.83298" lon="4.7289">
        <ele>285.47456</ele>
        <time>2022-08-11T15:41:41.000Z</time>
      </trkpt>
      <trkpt lat="45.83296" lon="4.72887">
        <ele>285.26105</ele>
        <time>2022-08-11T15:41:42.000Z</time>
      </trkpt>
      <trkpt lat="45.83295" lon="4.72884">
        <ele>284.96908</ele>
        <time>2022-08-11T15:41:43.000Z</time>
      </trkpt>
      <trkpt lat="45.83293" lon="4.72881">
        <ele>284.63033</ele>
        <time>2022-08-11T15:41:44.000Z</time>
      </trkpt>
      <trkpt lat="45.83291" lon="4.72877">
        <ele>284.18924</ele>
        <time>2022-08-11T15:41:45.000Z</time>
      </trkpt>
      <trkpt lat="45.83289" lon="4.72873">
        <ele>283.67126</ele>
        <time>2022-08-11T15:41:46.000Z</time>
      </trkpt>
      <trkpt lat="45.83287" lon="4.72869">
        <ele>283.16711</ele>
        <time>2022-08-11T15:41:47.000Z</time>
      </trkpt>
      <trkpt lat="45.83285" lon="4.72865">
        <ele>282.6703</ele>
        <time>2022-08-11T15:41:48.000Z</time>
      </trkpt>
      <trkpt lat="45.83282" lon="4.72861">
        <ele>282.26065</ele>
        <time>2022-08-11T15:41:49.000Z</time>
      </trkpt>
      <trkpt lat="45.83279" lon="4.72858">
        <ele>281.91589</ele>
        <time>2022-08-11T15:41:50.000Z</time>
      </trkpt>
      <trkpt lat="45.83275" lon="4.72856">
        <ele>281.5951</ele>
        <time>2022-08-11T15:41:51.000Z</time>
      </trkpt>
      <trkpt lat="45.83272" lon="4.72853">
        <ele>281.27034</ele>
        <time>2022-08-11T15:41:52.000Z</time>
      </trkpt>
      <trkpt lat="45.83269" lon="4.7285">
        <ele>280.84697</ele>
        <time>2022-08-11T15:41:53.000Z</time>
      </trkpt>
      <trkpt lat="45.83265" lon="4.72848">
        <ele>280.37705</ele>
        <time>2022-08-11T15:41:54.000Z</time>
      </trkpt>
      <trkpt lat="45.83262" lon="4.72845">
        <ele>279.80241</ele>
        <time>2022-08-11T15:41:55.000Z</time>
      </trkpt>
      <trkpt lat="45.83258" lon="4.72843">
        <ele>279.11746</ele>
        <time>2022-08-11T15:41:56.000Z</time>
      </trkpt>
      <trkpt lat="45.83255" lon="4.7284">
        <ele>278.32685</ele>
        <time>2022-08-11T15:41:57.000Z</time>
      </trkpt>
      <trkpt lat="45.83251" lon="4.72838">
        <ele>277.50008</ele>
        <time>2022-08-11T15:41:58.000Z</time>
      </trkpt>
      <trkpt lat="45.83247" lon="4.72835">
        <ele>276.64532</ele>
        <time>2022-08-11T15:41:59.000Z</time>
      </trkpt>
      <trkpt lat="45.83244" lon="4.72833">
        <ele>276.08755</ele>
        <time>2022-08-11T15:42:00.000Z</time>
      </trkpt>
      <trkpt lat="45.83242" lon="4.72832">
        <ele>275.71193</ele>
        <time>2022-08-11T15:42:01.000Z</time>
      </trkpt>
      <trkpt lat="45.83239" lon="4.72831">
        <ele>275.42802</ele>
        <time>2022-08-11T15:42:02.000Z</time>
      </trkpt>
      <trkpt lat="45.83236" lon="4.72829">
        <ele>275.11534</ele>
        <time>2022-08-11T15:42:03.000Z</time>
      </trkpt>
      <trkpt lat="45.83233" lon="4.72828">
        <ele>274.78205</ele>
        <time>2022-08-11T15:42:04.000Z</time>
      </trkpt>
      <trkpt lat="45.8323" lon="4.72825">
        <ele>274.40917</ele>
        <time>2022-08-11T15:42:05.000Z</time>
      </trkpt>
      <trkpt lat="45.83226" lon="4.72822">
        <ele>274.02386</ele>
        <time>2022-08-11T15:42:06.000Z</time>
      </trkpt>
      <trkpt lat="45.83223" lon="4.72819">
        <ele>273.69529</ele>
        <time>2022-08-11T15:42:07.000Z</time>
      </trkpt>
      <trkpt lat="45.83221" lon="4.72816">
        <ele>273.42688</ele>
        <time>2022-08-11T15:42:08.000Z</time>
      </trkpt>
      <trkpt lat="45.8322" lon="4.72813">
        <ele>273.23883</ele>
        <time>2022-08-11T15:42:09.000Z</time>
      </trkpt>
      <trkpt lat="45.83219" lon="4.72809">
        <ele>273.06718</ele>
        <time>2022-08-11T15:42:10.000Z</time>
      </trkpt>
      <trkpt lat="45.83218" lon="4.72805">
        <ele>272.93172</ele>
        <time>2022-08-11T15:42:11.000Z</time>
      </trkpt>
      <trkpt lat="45.83218" lon="4.72801">
        <ele>272.83431</ele>
        <time>2022-08-11T15:42:12.000Z</time>
      </trkpt>
      <trkpt lat="45.83218" lon="4.72797">
        <ele>272.77485</ele>
        <time>2022-08-11T15:42:13.000Z</time>
      </trkpt>
      <trkpt lat="45.83219" lon="4.72792">
        <ele>272.74225</ele>
        <time>2022-08-11T15:42:14.000Z</time>
      </trkpt>
      <trkpt lat="45.8322" lon="4.72787">
        <ele>272.73323</ele>
        <time>2022-08-11T15:42:15.000Z</time>
      </trkpt>
      <trkpt lat="45.83221" lon="4.72782">
        <ele>272.79985</ele>
        <time>2022-08-11T15:42:16.000Z</time>
      </trkpt>
      <trkpt lat="45.83223" lon="4.72776">
        <ele>272.94458</ele>
        <time>2022-08-11T15:42:17.000Z</time>
      </trkpt>
      <trkpt lat="45.83224" lon="4.72771">
        <ele>273.17986</ele>
        <time>2022-08-11T15:42:18.000Z</time>
      </trkpt>
      <trkpt lat="45.83225" lon="4.72766">
        <ele>273.46206</ele>
        <time>2022-08-11T15:42:19.000Z</time>
      </trkpt>
      <trkpt lat="45.83227" lon="4.72762">
        <ele>273.75077</ele>
        <time>2022-08-11T15:42:20.000Z</time>
      </trkpt>
      <trkpt lat="45.83229" lon="4.72758">
        <ele>274.04174</ele>
        <time>2022-08-11T15:42:21.000Z</time>
      </trkpt>
      <trkpt lat="45.83231" lon="4.72754">
        <ele>274.49456</ele>
        <time>2022-08-11T15:42:22.000Z</time>
      </trkpt>
      <trkpt lat="45.83234" lon="4.7275">
        <ele>275.01384</ele>
        <time>2022-08-11T15:42:23.000Z</time>
      </trkpt>
      <trkpt lat="45.83236" lon="4.72747">
        <ele>275.55436</ele>
        <time>2022-08-11T15:42:24.000Z</time>
      </trkpt>
      <trkpt lat="45.8324" lon="4.72744">
        <ele>276.13096</ele>
        <time>2022-08-11T15:42:25.000Z</time>
      </trkpt>
      <trkpt lat="45.83243" lon="4.72742">
        <ele>276.63418</ele>
        <time>2022-08-11T15:42:26.000Z</time>
      </trkpt>
      <trkpt lat="45.83247" lon="4.72739">
        <ele>277.29018</ele>
        <time>2022-08-11T15:42:27.000Z</time>
      </trkpt>
      <trkpt lat="45.83251" lon="4.72738">
        <ele>277.81886</ele>
        <time>2022-08-11T15:42:28.000Z</time>
      </trkpt>
      <trkpt lat="45.83254" lon="4.72737">
        <ele>278.30352</ele>
        <time>2022-08-11T15:42:29.000Z</time>
      </trkpt>
      <trkpt lat="45.83257" lon="4.72736">
        <ele>278.60802</ele>
        <time>2022-08-11T15:42:30.000Z</time>
      </trkpt>
      <trkpt lat="45.83259" lon="4.72735">
        <ele>278.91641</ele>
        <time>2022-08-11T15:42:32.000Z</time>
      </trkpt>
      <trkpt lat="45.83258" lon="4.72733">
        <ele>279.59698</ele>
        <time>2022-08-11T15:42:35.000Z</time>
      </trkpt>
      <trkpt lat="45.83256" lon="4.72731">
        <ele>280.0286</ele>
        <time>2022-08-11T15:42:39.000Z</time>
      </trkpt>
      <trkpt lat="45.83253" lon="4.72731">
        <ele>279.81369</ele>
        <time>2022-08-11T15:42:42.000Z</time>
      </trkpt>
      <trkpt lat="45.83249" lon="4.72731">
        <ele>279.54555</ele>
        <time>2022-08-11T15:42:43.000Z</time>
      </trkpt>
      <trkpt lat="45.83246" lon="4.72731">
        <ele>279.31414</ele>
        <time>2022-08-11T15:42:44.000Z</time>
      </trkpt>
      <trkpt lat="45.83243" lon="4.72731">
        <ele>279.16257</ele>
        <time>2022-08-11T15:42:45.000Z</time>
      </trkpt>
      <trkpt lat="45.8324" lon="4.72731">
        <ele>279.09209</ele>
        <time>2022-08-11T15:42:46.000Z</time>
      </trkpt>
      <trkpt lat="45.83238" lon="4.72731">
        <ele>279.05739</ele>
        <time>2022-08-11T15:42:47.000Z</time>
      </trkpt>
      <trkpt lat="45.83236" lon="4.72731">
        <ele>279.06723</ele>
        <time>2022-08-11T15:42:48.000Z</time>
      </trkpt>
      <trkpt lat="45.83234" lon="4.72731">
        <ele>279.10729</ele>
        <time>2022-08-11T15:42:49.000Z</time>
      </trkpt>
      <trkpt lat="45.83231" lon="4.7273">
        <ele>279.21149</ele>
        <time>2022-08-11T15:42:50.000Z</time>
      </trkpt>
      <trkpt lat="45.83229" lon="4.72729">
        <ele>279.34177</ele>
        <time>2022-08-11T15:42:51.000Z</time>
      </trkpt>
      <trkpt lat="45.83226" lon="4.72729">
        <ele>279.46774</ele>
        <time>2022-08-11T15:42:52.000Z</time>
      </trkpt>
      <trkpt lat="45.83224" lon="4.72728">
        <ele>279.67958</ele>
        <time>2022-08-11T15:42:53.000Z</time>
      </trkpt>
      <trkpt lat="45.83222" lon="4.72727">
        <ele>279.83953</ele>
        <time>2022-08-11T15:42:54.000Z</time>
      </trkpt>
      <trkpt lat="45.8322" lon="4.72726">
        <ele>279.99091</ele>
        <time>2022-08-11T15:42:55.000Z</time>
      </trkpt>
      <trkpt lat="45.83218" lon="4.72726">
        <ele>280.13141</ele>
        <time>2022-08-11T15:42:56.000Z</time>
      </trkpt>
      <trkpt lat="45.83216" lon="4.72725">
        <ele>280.31935</ele>
        <time>2022-08-11T15:42:57.000Z</time>
      </trkpt>
      <trkpt lat="45.83214" lon="4.72724">
        <ele>280.57416</ele>
        <time>2022-08-11T15:42:58.000Z</time>
      </trkpt>
      <trkpt lat="45.83212" lon="4.72722">
        <ele>280.95752</ele>
        <time>2022-08-11T15:42:59.000Z</time>
      </trkpt>
      <trkpt lat="45.83211" lon="4.72719">
        <ele>281.32871</ele>
        <time>2022-08-11T15:43:00.000Z</time>
      </trkpt>
      <trkpt lat="45.83211" lon="4.72717">
        <ele>281.73906</ele>
        <time>2022-08-11T15:43:01.000Z</time>
      </trkpt>
      <trkpt lat="45.83211" lon="4.72713">
        <ele>282.18166</ele>
        <time>2022-08-11T15:43:02.000Z</time>
      </trkpt>
      <trkpt lat="45.83211" lon="4.72709">
        <ele>282.7416</ele>
        <time>2022-08-11T15:43:03.000Z</time>
      </trkpt>
      <trkpt lat="45.83211" lon="4.72704">
        <ele>283.25364</ele>
        <time>2022-08-11T15:43:04.000Z</time>
      </trkpt>
      <trkpt lat="45.83212" lon="4.727">
        <ele>283.66101</ele>
        <time>2022-08-11T15:43:05.000Z</time>
      </trkpt>
      <trkpt lat="45.83212" lon="4.72697">
        <ele>283.98674</ele>
        <time>2022-08-11T15:43:06.000Z</time>
      </trkpt>
      <trkpt lat="45.83213" lon="4.72693">
        <ele>284.2476</ele>
        <time>2022-08-11T15:43:07.000Z</time>
      </trkpt>
      <trkpt lat="45.83214" lon="4.72689">
        <ele>284.5264</ele>
        <time>2022-08-11T15:43:08.000Z</time>
      </trkpt>
      <trkpt lat="45.83214" lon="4.72686">
        <ele>284.73286</ele>
        <time>2022-08-11T15:43:09.000Z</time>
      </trkpt>
      <trkpt lat="45.83215" lon="4.72683">
        <ele>284.8976</ele>
        <time>2022-08-11T15:43:10.000Z</time>
      </trkpt>
      <trkpt lat="45.83215" lon="4.72679">
        <ele>285.0856</ele>
        <time>2022-08-11T15:43:11.000Z</time>
      </trkpt>
      <trkpt lat="45.83215" lon="4.72675">
        <ele>285.23207</ele>
        <time>2022-08-11T15:43:12.000Z</time>
      </trkpt>
      <trkpt lat="45.83216" lon="4.72672">
        <ele>285.35729</ele>
        <time>2022-08-11T15:43:13.000Z</time>
      </trkpt>
      <trkpt lat="45.83216" lon="4.72669">
        <ele>285.45277</ele>
        <time>2022-08-11T15:43:14.000Z</time>
      </trkpt>
      <trkpt lat="45.83216" lon="4.72665">
        <ele>285.52336</ele>
        <time>2022-08-11T15:43:15.000Z</time>
      </trkpt>
      <trkpt lat="45.83216" lon="4.72662">
        <ele>285.57098</ele>
        <time>2022-08-11T15:43:16.000Z</time>
      </trkpt>
      <trkpt lat="45.83217" lon="4.72659">
        <ele>285.59098</ele>
        <time>2022-08-11T15:43:17.000Z</time>
      </trkpt>
      <trkpt lat="45.83217" lon="4.72655">
        <ele>285.56815</ele>
        <time>2022-08-11T15:43:18.000Z</time>
      </trkpt>
      <trkpt lat="45.83217" lon="4.72651">
        <ele>285.49654</ele>
        <time>2022-08-11T15:43:19.000Z</time>
      </trkpt>
      <trkpt lat="45.83217" lon="4.72647">
        <ele>285.38897</ele>
        <time>2022-08-11T15:43:20.000Z</time>
      </trkpt>
      <trkpt lat="45.83218" lon="4.72643">
        <ele>285.25672</ele>
        <time>2022-08-11T15:43:21.000Z</time>
      </trkpt>
      <trkpt lat="45.83218" lon="4.72638">
        <ele>285.11859</ele>
        <time>2022-08-11T15:43:22.000Z</time>
      </trkpt>
      <trkpt lat="45.83219" lon="4.72633">
        <ele>284.98978</ele>
        <time>2022-08-11T15:43:23.000Z</time>
      </trkpt>
      <trkpt lat="45.8322" lon="4.72626">
        <ele>284.924</ele>
        <time>2022-08-11T15:43:24.000Z</time>
      </trkpt>
      <trkpt lat="45.83219" lon="4.72615">
        <ele>284.94634</ele>
        <time>2022-08-11T15:43:25.000Z</time>
      </trkpt>
      <trkpt lat="45.83221" lon="4.72608">
        <ele>284.95507</ele>
        <time>2022-08-11T15:43:26.000Z</time>
      </trkpt>
      <trkpt lat="45.83222" lon="4.726">
        <ele>284.9017</ele>
        <time>2022-08-11T15:43:27.000Z</time>
      </trkpt>
      <trkpt lat="45.83224" lon="4.72592">
        <ele>284.70513</ele>
        <time>2022-08-11T15:43:28.000Z</time>
      </trkpt>
      <trkpt lat="45.83226" lon="4.72582">
        <ele>284.3073</ele>
        <time>2022-08-11T15:43:29.000Z</time>
      </trkpt>
      <trkpt lat="45.83228" lon="4.72574">
        <ele>283.85703</ele>
        <time>2022-08-11T15:43:30.000Z</time>
      </trkpt>
      <trkpt lat="45.83231" lon="4.72566">
        <ele>283.31415</ele>
        <time>2022-08-11T15:43:31.000Z</time>
      </trkpt>
      <trkpt lat="45.83232" lon="4.72558">
        <ele>282.74273</ele>
        <time>2022-08-11T15:43:32.000Z</time>
      </trkpt>
      <trkpt lat="45.83234" lon="4.72546">
        <ele>281.78727</ele>
        <time>2022-08-11T15:43:33.000Z</time>
      </trkpt>
      <trkpt lat="45.83236" lon="4.72536">
        <ele>281.14225</ele>
        <time>2022-08-11T15:43:34.000Z</time>
      </trkpt>
      <trkpt lat="45.83237" lon="4.72525">
        <ele>280.68279</ele>
        <time>2022-08-11T15:43:35.000Z</time>
      </trkpt>
      <trkpt lat="45.83239" lon="4.72513">
        <ele>280.28279</ele>
        <time>2022-08-11T15:43:36.000Z</time>
      </trkpt>
      <trkpt lat="45.83242" lon="4.72506">
        <ele>279.87798</ele>
        <time>2022-08-11T15:43:37.000Z</time>
      </trkpt>
      <trkpt lat="45.83244" lon="4.72497">
        <ele>279.5041</ele>
        <time>2022-08-11T15:43:38.000Z</time>
      </trkpt>
      <trkpt lat="45.83244" lon="4.72485">
        <ele>279.41537</ele>
        <time>2022-08-11T15:43:39.000Z</time>
      </trkpt>
      <trkpt lat="45.83244" lon="4.72476">
        <ele>279.5596</ele>
        <time>2022-08-11T15:43:40.000Z</time>
      </trkpt>
      <trkpt lat="45.83243" lon="4.72467">
        <ele>279.66389</ele>
        <time>2022-08-11T15:43:41.000Z</time>
      </trkpt>
      <trkpt lat="45.83242" lon="4.72461">
        <ele>279.75766</ele>
        <time>2022-08-11T15:43:42.000Z</time>
      </trkpt>
      <trkpt lat="45.83241" lon="4.72451">
        <ele>279.70333</ele>
        <time>2022-08-11T15:43:43.000Z</time>
      </trkpt>
      <trkpt lat="45.8324" lon="4.72441">
        <ele>279.87007</ele>
        <time>2022-08-11T15:43:44.000Z</time>
      </trkpt>
      <trkpt lat="45.83238" lon="4.72432">
        <ele>280.4395</ele>
        <time>2022-08-11T15:43:45.000Z</time>
      </trkpt>
      <trkpt lat="45.83238" lon="4.72424">
        <ele>281.22983</ele>
        <time>2022-08-11T15:43:46.000Z</time>
      </trkpt>
      <trkpt lat="45.83237" lon="4.72417">
        <ele>281.98693</ele>
        <time>2022-08-11T15:43:47.000Z</time>
      </trkpt>
      <trkpt lat="45.83236" lon="4.72412">
        <ele>282.63828</ele>
        <time>2022-08-11T15:43:48.000Z</time>
      </trkpt>
      <trkpt lat="45.83234" lon="4.72403">
        <ele>283.7434</ele>
        <time>2022-08-11T15:43:49.000Z</time>
      </trkpt>
      <trkpt lat="45.83233" lon="4.72395">
        <ele>284.61766</ele>
        <time>2022-08-11T15:43:50.000Z</time>
      </trkpt>
      <trkpt lat="45.83232" lon="4.72389">
        <ele>285.23611</ele>
        <time>2022-08-11T15:43:51.000Z</time>
      </trkpt>
      <trkpt lat="45.83231" lon="4.72384">
        <ele>285.7858</ele>
        <time>2022-08-11T15:43:52.000Z</time>
      </trkpt>
      <trkpt lat="45.8323" lon="4.72378">
        <ele>286.35589</ele>
        <time>2022-08-11T15:43:53.000Z</time>
      </trkpt>
      <trkpt lat="45.83229" lon="4.72373">
        <ele>286.71041</ele>
        <time>2022-08-11T15:43:54.000Z</time>
      </trkpt>
      <trkpt lat="45.83228" lon="4.72368">
        <ele>286.98399</ele>
        <time>2022-08-11T15:43:55.000Z</time>
      </trkpt>
      <trkpt lat="45.83228" lon="4.72363">
        <ele>287.1233</ele>
        <time>2022-08-11T15:43:56.000Z</time>
      </trkpt>
      <trkpt lat="45.83227" lon="4.72358">
        <ele>287.22832</ele>
        <time>2022-08-11T15:43:57.000Z</time>
      </trkpt>
      <trkpt lat="45.83225" lon="4.7235">
        <ele>287.31521</ele>
        <time>2022-08-11T15:43:58.000Z</time>
      </trkpt>
      <trkpt lat="45.83224" lon="4.72345">
        <ele>287.40242</ele>
        <time>2022-08-11T15:43:59.000Z</time>
      </trkpt>
      <trkpt lat="45.83223" lon="4.72339">
        <ele>287.64408</ele>
        <time>2022-08-11T15:44:00.000Z</time>
      </trkpt>
      <trkpt lat="45.83223" lon="4.72332">
        <ele>287.83109</ele>
        <time>2022-08-11T15:44:01.000Z</time>
      </trkpt>
      <trkpt lat="45.83223" lon="4.72326">
        <ele>288.13077</ele>
        <time>2022-08-11T15:44:02.000Z</time>
      </trkpt>
      <trkpt lat="45.83222" lon="4.72321">
        <ele>288.38642</ele>
        <time>2022-08-11T15:44:03.000Z</time>
      </trkpt>
      <trkpt lat="45.83222" lon="4.72317">
        <ele>288.61957</ele>
        <time>2022-08-11T15:44:04.000Z</time>
      </trkpt>
      <trkpt lat="45.83221" lon="4.72313">
        <ele>288.82354</ele>
        <time>2022-08-11T15:44:05.000Z</time>
      </trkpt>
      <trkpt lat="45.8322" lon="4.72309">
        <ele>288.97953</ele>
        <time>2022-08-11T15:44:06.000Z</time>
      </trkpt>
      <trkpt lat="45.8322" lon="4.72306">
        <ele>289.10212</ele>
        <time>2022-08-11T15:44:07.000Z</time>
      </trkpt>
      <trkpt lat="45.8322" lon="4.72302">
        <ele>289.1878</ele>
        <time>2022-08-11T15:44:08.000Z</time>
      </trkpt>
      <trkpt lat="45.83222" lon="4.72301">
        <ele>289.16034</ele>
        <time>2022-08-11T15:44:38.000Z</time>
      </trkpt>
      <trkpt lat="45.83224" lon="4.723">
        <ele>289.10922</ele>
        <time>2022-08-11T15:44:39.000Z</time>
      </trkpt>
      <trkpt lat="45.83225" lon="4.72299">
        <ele>289.04647</ele>
        <time>2022-08-11T15:44:40.000Z</time>
      </trkpt>
      <trkpt lat="45.83227" lon="4.72298">
        <ele>288.96256</ele>
        <time>2022-08-11T15:44:41.000Z</time>
      </trkpt>
      <trkpt lat="45.83229" lon="4.72297">
        <ele>288.88631</ele>
        <time>2022-08-11T15:44:42.000Z</time>
      </trkpt>
      <trkpt lat="45.83232" lon="4.72296">
        <ele>288.79785</ele>
        <time>2022-08-11T15:44:43.000Z</time>
      </trkpt>
      <trkpt lat="45.83234" lon="4.72295">
        <ele>288.68391</ele>
        <time>2022-08-11T15:44:44.000Z</time>
      </trkpt>
      <trkpt lat="45.83237" lon="4.72294">
        <ele>288.57108</ele>
        <time>2022-08-11T15:44:45.000Z</time>
      </trkpt>
      <trkpt lat="45.83239" lon="4.72292">
        <ele>288.47391</ele>
        <time>2022-08-11T15:44:46.000Z</time>
      </trkpt>
      <trkpt lat="45.83242" lon="4.72291">
        <ele>288.38489</ele>
        <time>2022-08-11T15:44:47.000Z</time>
      </trkpt>
      <trkpt lat="45.83244" lon="4.72289">
        <ele>288.31182</ele>
        <time>2022-08-11T15:44:48.000Z</time>
      </trkpt>
      <trkpt lat="45.83247" lon="4.72288">
        <ele>288.23416</ele>
        <time>2022-08-11T15:44:49.000Z</time>
      </trkpt>
      <trkpt lat="45.8325" lon="4.72286">
        <ele>288.1614</ele>
        <time>2022-08-11T15:44:50.000Z</time>
      </trkpt>
      <trkpt lat="45.83252" lon="4.72284">
        <ele>288.10037</ele>
        <time>2022-08-11T15:44:51.000Z</time>
      </trkpt>
      <trkpt lat="45.83255" lon="4.72281">
        <ele>288.02487</ele>
        <time>2022-08-11T15:44:52.000Z</time>
      </trkpt>
      <trkpt lat="45.83258" lon="4.72278">
        <ele>287.9425</ele>
        <time>2022-08-11T15:44:53.000Z</time>
      </trkpt>
      <trkpt lat="45.8326" lon="4.72275">
        <ele>287.85906</ele>
        <time>2022-08-11T15:44:54.000Z</time>
      </trkpt>
      <trkpt lat="45.83263" lon="4.72272">
        <ele>287.76839</ele>
        <time>2022-08-11T15:44:55.000Z</time>
      </trkpt>
      <trkpt lat="45.83266" lon="4.72268">
        <ele>287.67436</ele>
        <time>2022-08-11T15:44:56.000Z</time>
      </trkpt>
      <trkpt lat="45.8327" lon="4.72265">
        <ele>287.58145</ele>
        <time>2022-08-11T15:44:57.000Z</time>
      </trkpt>
      <trkpt lat="45.83273" lon="4.72262">
        <ele>287.49173</ele>
        <time>2022-08-11T15:44:58.000Z</time>
      </trkpt>
      <trkpt lat="45.83277" lon="4.72258">
        <ele>287.39278</ele>
        <time>2022-08-11T15:44:59.000Z</time>
      </trkpt>
      <trkpt lat="45.8328" lon="4.72255">
        <ele>287.28162</ele>
        <time>2022-08-11T15:45:00.000Z</time>
      </trkpt>
      <trkpt lat="45.83284" lon="4.72253">
        <ele>287.16357</ele>
        <time>2022-08-11T15:45:01.000Z</time>
      </trkpt>
      <trkpt lat="45.83287" lon="4.7225">
        <ele>287.03359</ele>
        <time>2022-08-11T15:45:02.000Z</time>
      </trkpt>
      <trkpt lat="45.8329" lon="4.72247">
        <ele>286.90009</ele>
        <time>2022-08-11T15:45:03.000Z</time>
      </trkpt>
      <trkpt lat="45.83293" lon="4.72243">
        <ele>286.76889</ele>
        <time>2022-08-11T15:45:04.000Z</time>
      </trkpt>
      <trkpt lat="45.83297" lon="4.72239">
        <ele>286.62513</ele>
        <time>2022-08-11T15:45:05.000Z</time>
      </trkpt>
      <trkpt lat="45.83302" lon="4.72234">
        <ele>286.40169</ele>
        <time>2022-08-11T15:45:06.000Z</time>
      </trkpt>
      <trkpt lat="45.83307" lon="4.72231">
        <ele>286.20248</ele>
        <time>2022-08-11T15:45:07.000Z</time>
      </trkpt>
      <trkpt lat="45.83311" lon="4.72228">
        <ele>285.9848</ele>
        <time>2022-08-11T15:45:08.000Z</time>
      </trkpt>
      <trkpt lat="45.83316" lon="4.72224">
        <ele>285.7808</ele>
        <time>2022-08-11T15:45:09.000Z</time>
      </trkpt>
      <trkpt lat="45.8332" lon="4.7222">
        <ele>285.63847</ele>
        <time>2022-08-11T15:45:10.000Z</time>
      </trkpt>
      <trkpt lat="45.83325" lon="4.72216">
        <ele>285.54447</ele>
        <time>2022-08-11T15:45:11.000Z</time>
      </trkpt>
      <trkpt lat="45.83329" lon="4.72213">
        <ele>285.47383</ele>
        <time>2022-08-11T15:45:12.000Z</time>
      </trkpt>
      <trkpt lat="45.83334" lon="4.72208">
        <ele>285.3132</ele>
        <time>2022-08-11T15:45:13.000Z</time>
      </trkpt>
      <trkpt lat="45.83339" lon="4.72204">
        <ele>285.01693</ele>
        <time>2022-08-11T15:45:14.000Z</time>
      </trkpt>
      <trkpt lat="45.83342" lon="4.72199">
        <ele>284.67647</ele>
        <time>2022-08-11T15:45:15.000Z</time>
      </trkpt>
      <trkpt lat="45.83349" lon="4.72196">
        <ele>284.33778</ele>
        <time>2022-08-11T15:45:16.000Z</time>
      </trkpt>
      <trkpt lat="45.83354" lon="4.72192">
        <ele>283.89218</ele>
        <time>2022-08-11T15:45:17.000Z</time>
      </trkpt>
      <trkpt lat="45.83359" lon="4.72187">
        <ele>283.52272</ele>
        <time>2022-08-11T15:45:18.000Z</time>
      </trkpt>
      <trkpt lat="45.83364" lon="4.72184">
        <ele>283.22488</ele>
        <time>2022-08-11T15:45:19.000Z</time>
      </trkpt>
      <trkpt lat="45.83368" lon="4.7218">
        <ele>282.95075</ele>
        <time>2022-08-11T15:45:20.000Z</time>
      </trkpt>
      <trkpt lat="45.83373" lon="4.72176">
        <ele>282.69697</ele>
        <time>2022-08-11T15:45:21.000Z</time>
      </trkpt>
      <trkpt lat="45.83379" lon="4.7217">
        <ele>282.4067</ele>
        <time>2022-08-11T15:45:22.000Z</time>
      </trkpt>
      <trkpt lat="45.83385" lon="4.72168">
        <ele>282.21576</ele>
        <time>2022-08-11T15:45:23.000Z</time>
      </trkpt>
      <trkpt lat="45.8339" lon="4.72164">
        <ele>282.03663</ele>
        <time>2022-08-11T15:45:24.000Z</time>
      </trkpt>
      <trkpt lat="45.83394" lon="4.7216">
        <ele>281.81521</ele>
        <time>2022-08-11T15:45:25.000Z</time>
      </trkpt>
      <trkpt lat="45.834" lon="4.72156">
        <ele>281.57628</ele>
        <time>2022-08-11T15:45:26.000Z</time>
      </trkpt>
      <trkpt lat="45.83405" lon="4.7215">
        <ele>281.30544</ele>
        <time>2022-08-11T15:45:27.000Z</time>
      </trkpt>
      <trkpt lat="45.83409" lon="4.72145">
        <ele>281.08866</ele>
        <time>2022-08-11T15:45:28.000Z</time>
      </trkpt>
      <trkpt lat="45.83412" lon="4.72138">
        <ele>280.82771</ele>
        <time>2022-08-11T15:45:29.000Z</time>
      </trkpt>
      <trkpt lat="45.83415" lon="4.72131">
        <ele>280.51672</ele>
        <time>2022-08-11T15:45:30.000Z</time>
      </trkpt>
      <trkpt lat="45.83417" lon="4.72126">
        <ele>280.25346</ele>
        <time>2022-08-11T15:45:31.000Z</time>
      </trkpt>
      <trkpt lat="45.83419" lon="4.7212">
        <ele>279.97288</ele>
        <time>2022-08-11T15:45:32.000Z</time>
      </trkpt>
      <trkpt lat="45.83421" lon="4.72115">
        <ele>279.75699</ele>
        <time>2022-08-11T15:45:33.000Z</time>
      </trkpt>
      <trkpt lat="45.83423" lon="4.7211">
        <ele>279.53573</ele>
        <time>2022-08-11T15:45:34.000Z</time>
      </trkpt>
      <trkpt lat="45.83424" lon="4.72106">
        <ele>279.37231</ele>
        <time>2022-08-11T15:45:35.000Z</time>
      </trkpt>
      <trkpt lat="45.83426" lon="4.72101">
        <ele>279.22695</ele>
        <time>2022-08-11T15:45:36.000Z</time>
      </trkpt>
      <trkpt lat="45.83427" lon="4.72094">
        <ele>279.05968</ele>
        <time>2022-08-11T15:45:37.000Z</time>
      </trkpt>
      <trkpt lat="45.83428" lon="4.72086">
        <ele>278.92115</ele>
        <time>2022-08-11T15:45:38.000Z</time>
      </trkpt>
      <trkpt lat="45.8343" lon="4.7208">
        <ele>278.80976</ele>
        <time>2022-08-11T15:45:39.000Z</time>
      </trkpt>
      <trkpt lat="45.83433" lon="4.72076">
        <ele>278.66891</ele>
        <time>2022-08-11T15:45:40.000Z</time>
      </trkpt>
      <trkpt lat="45.83435" lon="4.72072">
        <ele>278.57423</ele>
        <time>2022-08-11T15:45:41.000Z</time>
      </trkpt>
      <trkpt lat="45.83437" lon="4.72067">
        <ele>278.4629</ele>
        <time>2022-08-11T15:45:42.000Z</time>
      </trkpt>
      <trkpt lat="45.83439" lon="4.72062">
        <ele>278.33321</ele>
        <time>2022-08-11T15:45:43.000Z</time>
      </trkpt>
      <trkpt lat="45.83441" lon="4.72059">
        <ele>278.2265</ele>
        <time>2022-08-11T15:45:44.000Z</time>
      </trkpt>
      <trkpt lat="45.83444" lon="4.72059">
        <ele>278.15209</ele>
        <time>2022-08-11T15:45:46.000Z</time>
      </trkpt>
      <trkpt lat="45.83446" lon="4.72058">
        <ele>278.08069</ele>
        <time>2022-08-11T15:45:48.000Z</time>
      </trkpt>
      <trkpt lat="45.83448" lon="4.72058">
        <ele>278.02629</ele>
        <time>2022-08-11T15:45:49.000Z</time>
      </trkpt>
      <trkpt lat="45.8345" lon="4.72057">
        <ele>277.98057</ele>
        <time>2022-08-11T15:45:50.000Z</time>
      </trkpt>
      <trkpt lat="45.83452" lon="4.72058">
        <ele>277.95282</ele>
        <time>2022-08-11T15:45:51.000Z</time>
      </trkpt>
      <trkpt lat="45.83455" lon="4.72058">
        <ele>277.93205</ele>
        <time>2022-08-11T15:45:52.000Z</time>
      </trkpt>
      <trkpt lat="45.83457" lon="4.72059">
        <ele>277.92043</ele>
        <time>2022-08-11T15:45:53.000Z</time>
      </trkpt>
      <trkpt lat="45.83461" lon="4.72061">
        <ele>277.91969</ele>
        <time>2022-08-11T15:45:54.000Z</time>
      </trkpt>
      <trkpt lat="45.83464" lon="4.72062">
        <ele>277.92607</ele>
        <time>2022-08-11T15:45:55.000Z</time>
      </trkpt>
      <trkpt lat="45.83467" lon="4.72063">
        <ele>277.93438</ele>
        <time>2022-08-11T15:45:56.000Z</time>
      </trkpt>
      <trkpt lat="45.83471" lon="4.72065">
        <ele>277.93738</ele>
        <time>2022-08-11T15:45:57.000Z</time>
      </trkpt>
      <trkpt lat="45.83475" lon="4.72066">
        <ele>277.92985</ele>
        <time>2022-08-11T15:45:58.000Z</time>
      </trkpt>
      <trkpt lat="45.83479" lon="4.72067">
        <ele>277.92461</ele>
        <time>2022-08-11T15:45:59.000Z</time>
      </trkpt>
      <trkpt lat="45.83484" lon="4.72067">
        <ele>277.91523</ele>
        <time>2022-08-11T15:46:00.000Z</time>
      </trkpt>
      <trkpt lat="45.83488" lon="4.72067">
        <ele>277.89098</ele>
        <time>2022-08-11T15:46:01.000Z</time>
      </trkpt>
      <trkpt lat="45.83492" lon="4.72067">
        <ele>277.8506</ele>
        <time>2022-08-11T15:46:02.000Z</time>
      </trkpt>
      <trkpt lat="45.83497" lon="4.72067">
        <ele>277.79305</ele>
        <time>2022-08-11T15:46:03.000Z</time>
      </trkpt>
      <trkpt lat="45.83501" lon="4.72067">
        <ele>277.71533</ele>
        <time>2022-08-11T15:46:04.000Z</time>
      </trkpt>
      <trkpt lat="45.83505" lon="4.72067">
        <ele>277.62015</ele>
        <time>2022-08-11T15:46:05.000Z</time>
      </trkpt>
      <trkpt lat="45.83509" lon="4.72066">
        <ele>277.51713</ele>
        <time>2022-08-11T15:46:06.000Z</time>
      </trkpt>
      <trkpt lat="45.83513" lon="4.72064">
        <ele>277.38527</ele>
        <time>2022-08-11T15:46:07.000Z</time>
      </trkpt>
      <trkpt lat="45.83519" lon="4.72063">
        <ele>277.26975</ele>
        <time>2022-08-11T15:46:08.000Z</time>
      </trkpt>
      <trkpt lat="45.83523" lon="4.72062">
        <ele>277.17809</ele>
        <time>2022-08-11T15:46:09.000Z</time>
      </trkpt>
      <trkpt lat="45.83529" lon="4.72062">
        <ele>277.08821</ele>
        <time>2022-08-11T15:46:10.000Z</time>
      </trkpt>
      <trkpt lat="45.83533" lon="4.7206">
        <ele>277.01708</ele>
        <time>2022-08-11T15:46:11.000Z</time>
      </trkpt>
      <trkpt lat="45.83538" lon="4.72059">
        <ele>276.93954</ele>
        <time>2022-08-11T15:46:12.000Z</time>
      </trkpt>
      <trkpt lat="45.83543" lon="4.72058">
        <ele>276.85129</ele>
        <time>2022-08-11T15:46:13.000Z</time>
      </trkpt>
      <trkpt lat="45.83548" lon="4.72058">
        <ele>276.71284</ele>
        <time>2022-08-11T15:46:14.000Z</time>
      </trkpt>
      <trkpt lat="45.83555" lon="4.72056">
        <ele>276.57356</ele>
        <time>2022-08-11T15:46:15.000Z</time>
      </trkpt>
      <trkpt lat="45.8356" lon="4.72054">
        <ele>276.51954</ele>
        <time>2022-08-11T15:46:16.000Z</time>
      </trkpt>
      <trkpt lat="45.83565" lon="4.72054">
        <ele>276.44634</ele>
        <time>2022-08-11T15:46:17.000Z</time>
      </trkpt>
      <trkpt lat="45.83569" lon="4.72053">
        <ele>276.39367</ele>
        <time>2022-08-11T15:46:18.000Z</time>
      </trkpt>
      <trkpt lat="45.83573" lon="4.72051">
        <ele>276.39213</ele>
        <time>2022-08-11T15:46:19.000Z</time>
      </trkpt>
      <trkpt lat="45.83581" lon="4.72054">
        <ele>276.18843</ele>
        <time>2022-08-11T15:46:20.000Z</time>
      </trkpt>
      <trkpt lat="45.83586" lon="4.72055">
        <ele>276.13127</ele>
        <time>2022-08-11T15:46:21.000Z</time>
      </trkpt>
      <trkpt lat="45.83591" lon="4.72053">
        <ele>276.12715</ele>
        <time>2022-08-11T15:46:22.000Z</time>
      </trkpt>
      <trkpt lat="45.83596" lon="4.72052">
        <ele>276.13637</ele>
        <time>2022-08-11T15:46:23.000Z</time>
      </trkpt>
      <trkpt lat="45.83601" lon="4.72052">
        <ele>276.08943</ele>
        <time>2022-08-11T15:46:24.000Z</time>
      </trkpt>
      <trkpt lat="45.83606" lon="4.7205">
        <ele>276.11194</ele>
        <time>2022-08-11T15:46:25.000Z</time>
      </trkpt>
      <trkpt lat="45.83611" lon="4.72049">
        <ele>276.08032</ele>
        <time>2022-08-11T15:46:26.000Z</time>
      </trkpt>
      <trkpt lat="45.83616" lon="4.72049">
        <ele>276.03415</ele>
        <time>2022-08-11T15:46:27.000Z</time>
      </trkpt>
      <trkpt lat="45.8362" lon="4.72049">
        <ele>275.96393</ele>
        <time>2022-08-11T15:46:28.000Z</time>
      </trkpt>
      <trkpt lat="45.83625" lon="4.7205">
        <ele>275.84238</ele>
        <time>2022-08-11T15:46:29.000Z</time>
      </trkpt>
      <trkpt lat="45.83629" lon="4.72049">
        <ele>275.79219</ele>
        <time>2022-08-11T15:46:30.000Z</time>
      </trkpt>
      <trkpt lat="45.83634" lon="4.72047">
        <ele>275.71083</ele>
        <time>2022-08-11T15:46:31.000Z</time>
      </trkpt>
      <trkpt lat="45.83637" lon="4.72045">
        <ele>275.63571</ele>
        <time>2022-08-11T15:46:32.000Z</time>
      </trkpt>
      <trkpt lat="45.83642" lon="4.72047">
        <ele>275.42343</ele>
        <time>2022-08-11T15:46:33.000Z</time>
      </trkpt>
      <trkpt lat="45.83646" lon="4.72046">
        <ele>275.28016</ele>
        <time>2022-08-11T15:46:34.000Z</time>
      </trkpt>
      <trkpt lat="45.8365" lon="4.72045">
        <ele>275.13726</ele>
        <time>2022-08-11T15:46:35.000Z</time>
      </trkpt>
      <trkpt lat="45.83654" lon="4.72045">
        <ele>275.01092</ele>
        <time>2022-08-11T15:46:36.000Z</time>
      </trkpt>
      <trkpt lat="45.83657" lon="4.72043">
        <ele>274.92137</ele>
        <time>2022-08-11T15:46:37.000Z</time>
      </trkpt>
      <trkpt lat="45.83659" lon="4.7204">
        <ele>274.8795</ele>
        <time>2022-08-11T15:46:38.000Z</time>
      </trkpt>
      <trkpt lat="45.83661" lon="4.72036">
        <ele>274.86827</ele>
        <time>2022-08-11T15:46:39.000Z</time>
      </trkpt>
      <trkpt lat="45.83662" lon="4.72032">
        <ele>274.93451</ele>
        <time>2022-08-11T15:46:40.000Z</time>
      </trkpt>
      <trkpt lat="45.83662" lon="4.72027">
        <ele>275.09376</ele>
        <time>2022-08-11T15:46:41.000Z</time>
      </trkpt>
      <trkpt lat="45.83662" lon="4.72022">
        <ele>275.27242</ele>
        <time>2022-08-11T15:46:42.000Z</time>
      </trkpt>
      <trkpt lat="45.83661" lon="4.72017">
        <ele>275.46242</ele>
        <time>2022-08-11T15:46:43.000Z</time>
      </trkpt>
      <trkpt lat="45.8366" lon="4.72013">
        <ele>275.65932</ele>
        <time>2022-08-11T15:46:44.000Z</time>
      </trkpt>
      <trkpt lat="45.83659" lon="4.72008">
        <ele>275.85801</ele>
        <time>2022-08-11T15:46:45.000Z</time>
      </trkpt>
      <trkpt lat="45.83659" lon="4.72003">
        <ele>276.04248</ele>
        <time>2022-08-11T15:46:46.000Z</time>
      </trkpt>
      <trkpt lat="45.83658" lon="4.71999">
        <ele>276.19172</ele>
        <time>2022-08-11T15:46:47.000Z</time>
      </trkpt>
      <trkpt lat="45.83658" lon="4.71995">
        <ele>276.32238</ele>
        <time>2022-08-11T15:46:48.000Z</time>
      </trkpt>
      <trkpt lat="45.83658" lon="4.71991">
        <ele>276.43757</ele>
        <time>2022-08-11T15:46:49.000Z</time>
      </trkpt>
      <trkpt lat="45.83657" lon="4.71988">
        <ele>276.55501</ele>
        <time>2022-08-11T15:46:50.000Z</time>
      </trkpt>
      <trkpt lat="45.83657" lon="4.71983">
        <ele>276.68997</ele>
        <time>2022-08-11T15:46:51.000Z</time>
      </trkpt>
      <trkpt lat="45.83656" lon="4.71979">
        <ele>276.83373</ele>
        <time>2022-08-11T15:46:52.000Z</time>
      </trkpt>
      <trkpt lat="45.83656" lon="4.71974">
        <ele>276.98109</ele>
        <time>2022-08-11T15:46:53.000Z</time>
      </trkpt>
      <trkpt lat="45.83656" lon="4.71969">
        <ele>277.12003</ele>
        <time>2022-08-11T15:46:54.000Z</time>
      </trkpt>
      <trkpt lat="45.83656" lon="4.71965">
        <ele>277.24115</ele>
        <time>2022-08-11T15:46:55.000Z</time>
      </trkpt>
      <trkpt lat="45.83655" lon="4.7196">
        <ele>277.35839</ele>
        <time>2022-08-11T15:46:56.000Z</time>
      </trkpt>
      <trkpt lat="45.83654" lon="4.71955">
        <ele>277.47474</ele>
        <time>2022-08-11T15:46:57.000Z</time>
      </trkpt>
      <trkpt lat="45.83654" lon="4.7195">
        <ele>277.58948</ele>
        <time>2022-08-11T15:46:58.000Z</time>
      </trkpt>
      <trkpt lat="45.83653" lon="4.71945">
        <ele>277.70867</ele>
        <time>2022-08-11T15:46:59.000Z</time>
      </trkpt>
      <trkpt lat="45.83653" lon="4.7194">
        <ele>277.82834</ele>
        <time>2022-08-11T15:47:00.000Z</time>
      </trkpt>
      <trkpt lat="45.83653" lon="4.71935">
        <ele>277.9519</ele>
        <time>2022-08-11T15:47:01.000Z</time>
      </trkpt>
      <trkpt lat="45.83653" lon="4.7193">
        <ele>278.1004</ele>
        <time>2022-08-11T15:47:02.000Z</time>
      </trkpt>
      <trkpt lat="45.83652" lon="4.71926">
        <ele>278.25335</ele>
        <time>2022-08-11T15:47:03.000Z</time>
      </trkpt>
      <trkpt lat="45.83652" lon="4.71922">
        <ele>278.38941</ele>
        <time>2022-08-11T15:47:04.000Z</time>
      </trkpt>
      <trkpt lat="45.83652" lon="4.71922">
        <ele>278.38941</ele>
        <time>2022-08-11T15:47:04.000Z</time>
      </trkpt>
      <trkpt lat="45.83652" lon="4.71918">
        <ele>278.52276</ele>
        <time>2022-08-11T15:47:05.000Z</time>
      </trkpt>
      <trkpt lat="45.83652" lon="4.71915">
        <ele>278.62742</ele>
        <time>2022-08-11T15:47:06.000Z</time>
      </trkpt>
      <trkpt lat="45.83652" lon="4.71913">
        <ele>278.71586</ele>
        <time>2022-08-11T15:47:07.000Z</time>
      </trkpt>
      <trkpt lat="45.83652" lon="4.7191">
        <ele>278.80453</ele>
        <time>2022-08-11T15:47:08.000Z</time>
      </trkpt>
      <trkpt lat="45.83652" lon="4.71907">
        <ele>278.8966</ele>
        <time>2022-08-11T15:47:09.000Z</time>
      </trkpt>
      <trkpt lat="45.83651" lon="4.71903">
        <ele>278.99275</ele>
        <time>2022-08-11T15:47:10.000Z</time>
      </trkpt>
      <trkpt lat="45.83651" lon="4.71899">
        <ele>279.10046</ele>
        <time>2022-08-11T15:47:11.000Z</time>
      </trkpt>
      <trkpt lat="45.83651" lon="4.71896">
        <ele>279.21041</ele>
        <time>2022-08-11T15:47:12.000Z</time>
      </trkpt>
      <trkpt lat="45.8365" lon="4.71892">
        <ele>279.31849</ele>
        <time>2022-08-11T15:47:13.000Z</time>
      </trkpt>
      <trkpt lat="45.8365" lon="4.71888">
        <ele>279.42882</ele>
        <time>2022-08-11T15:47:14.000Z</time>
      </trkpt>
      <trkpt lat="45.8365" lon="4.71885">
        <ele>279.52064</ele>
        <time>2022-08-11T15:47:15.000Z</time>
      </trkpt>
      <trkpt lat="45.8365" lon="4.71882">
        <ele>279.59369</ele>
        <time>2022-08-11T15:47:16.000Z</time>
      </trkpt>
      <trkpt lat="45.83651" lon="4.71877">
        <ele>279.66822</ele>
        <time>2022-08-11T15:47:18.000Z</time>
      </trkpt>
      <trkpt lat="45.8365" lon="4.71874">
        <ele>279.68714</ele>
        <time>2022-08-11T15:47:20.000Z</time>
      </trkpt>
      <trkpt lat="45.83649" lon="4.71871">
        <ele>279.66558</ele>
        <time>2022-08-11T15:47:22.000Z</time>
      </trkpt>
      <trkpt lat="45.83647" lon="4.71868">
        <ele>279.60015</ele>
        <time>2022-08-11T15:47:23.000Z</time>
      </trkpt>
      <trkpt lat="45.83644" lon="4.71865">
        <ele>279.4962</ele>
        <time>2022-08-11T15:47:24.000Z</time>
      </trkpt>
      <trkpt lat="45.83641" lon="4.71862">
        <ele>279.35603</ele>
        <time>2022-08-11T15:47:25.000Z</time>
      </trkpt>
      <trkpt lat="45.83638" lon="4.71859">
        <ele>279.20046</ele>
        <time>2022-08-11T15:47:26.000Z</time>
      </trkpt>
      <trkpt lat="45.83636" lon="4.71856">
        <ele>279.03931</ele>
        <time>2022-08-11T15:47:27.000Z</time>
      </trkpt>
      <trkpt lat="45.83634" lon="4.71854">
        <ele>278.87125</ele>
        <time>2022-08-11T15:47:28.000Z</time>
      </trkpt>
      <trkpt lat="45.83632" lon="4.71851">
        <ele>278.69881</ele>
        <time>2022-08-11T15:47:29.000Z</time>
      </trkpt>
      <trkpt lat="45.8363" lon="4.71849">
        <ele>278.58076</ele>
        <time>2022-08-11T15:47:30.000Z</time>
      </trkpt>
      <trkpt lat="45.83628" lon="4.71848">
        <ele>278.47271</ele>
        <time>2022-08-11T15:47:31.000Z</time>
      </trkpt>
      <trkpt lat="45.83626" lon="4.71845">
        <ele>278.3285</ele>
        <time>2022-08-11T15:47:32.000Z</time>
      </trkpt>
      <trkpt lat="45.83624" lon="4.7184">
        <ele>278.11886</ele>
        <time>2022-08-11T15:47:33.000Z</time>
      </trkpt>
      <trkpt lat="45.83622" lon="4.71835">
        <ele>277.89959</ele>
        <time>2022-08-11T15:47:34.000Z</time>
      </trkpt>
      <trkpt lat="45.8362" lon="4.7183">
        <ele>277.72364</ele>
        <time>2022-08-11T15:47:35.000Z</time>
      </trkpt>
      <trkpt lat="45.83618" lon="4.71824">
        <ele>277.55005</ele>
        <time>2022-08-11T15:47:36.000Z</time>
      </trkpt>
      <trkpt lat="45.83617" lon="4.7182">
        <ele>277.40881</ele>
        <time>2022-08-11T15:47:37.000Z</time>
      </trkpt>
      <trkpt lat="45.83615" lon="4.71817">
        <ele>277.2688</ele>
        <time>2022-08-11T15:47:38.000Z</time>
      </trkpt>
      <trkpt lat="45.83614" lon="4.71813">
        <ele>277.11744</ele>
        <time>2022-08-11T15:47:39.000Z</time>
      </trkpt>
      <trkpt lat="45.83613" lon="4.7181">
        <ele>276.9027</ele>
        <time>2022-08-11T15:47:40.000Z</time>
      </trkpt>
      <trkpt lat="45.83611" lon="4.71806">
        <ele>276.65008</ele>
        <time>2022-08-11T15:47:41.000Z</time>
      </trkpt>
      <trkpt lat="45.83609" lon="4.71803">
        <ele>276.45467</ele>
        <time>2022-08-11T15:47:42.000Z</time>
      </trkpt>
      <trkpt lat="45.83608" lon="4.71801">
        <ele>276.37762</ele>
        <time>2022-08-11T15:47:43.000Z</time>
      </trkpt>
      <trkpt lat="45.83606" lon="4.71799">
        <ele>276.30614</ele>
        <time>2022-08-11T15:47:46.000Z</time>
      </trkpt>
      <trkpt lat="45.8361" lon="4.718">
        <ele>276.10054</ele>
        <time>2022-08-11T15:48:37.000Z</time>
      </trkpt>
      <trkpt lat="45.83613" lon="4.71799">
        <ele>275.72457</ele>
        <time>2022-08-11T15:48:39.000Z</time>
      </trkpt>
      <trkpt lat="45.83616" lon="4.718">
        <ele>275.53677</ele>
        <time>2022-08-11T15:48:41.000Z</time>
      </trkpt>
      <trkpt lat="45.83619" lon="4.718">
        <ele>275.26006</ele>
        <time>2022-08-11T15:48:43.000Z</time>
      </trkpt>
      <trkpt lat="45.83622" lon="4.71798">
        <ele>274.73009</ele>
        <time>2022-08-11T15:48:45.000Z</time>
      </trkpt>
      <trkpt lat="45.83624" lon="4.71797">
        <ele>274.26759</ele>
        <time>2022-08-11T15:48:46.000Z</time>
      </trkpt>
      <trkpt lat="45.83626" lon="4.71796">
        <ele>273.92231</ele>
        <time>2022-08-11T15:48:47.000Z</time>
      </trkpt>
      <trkpt lat="45.83628" lon="4.71795">
        <ele>273.65543</ele>
        <time>2022-08-11T15:48:48.000Z</time>
      </trkpt>
      <trkpt lat="45.8363" lon="4.71794">
        <ele>273.29749</ele>
        <time>2022-08-11T15:48:49.000Z</time>
      </trkpt>
      <trkpt lat="45.83632" lon="4.71794">
        <ele>273.00118</ele>
        <time>2022-08-11T15:48:50.000Z</time>
      </trkpt>
      <trkpt lat="45.83636" lon="4.71793">
        <ele>272.61057</ele>
        <time>2022-08-11T15:48:52.000Z</time>
      </trkpt>
      <trkpt lat="45.83637" lon="4.71793">
        <ele>272.48278</ele>
        <time>2022-08-11T15:48:53.000Z</time>
      </trkpt>
      <trkpt lat="45.8364" lon="4.71792">
        <ele>272.35277</ele>
        <time>2022-08-11T15:48:55.000Z</time>
      </trkpt>
      <trkpt lat="45.83643" lon="4.71792">
        <ele>272.192</ele>
        <time>2022-08-11T15:48:57.000Z</time>
      </trkpt>
      <trkpt lat="45.83645" lon="4.71791">
        <ele>271.87494</ele>
        <time>2022-08-11T15:48:58.000Z</time>
      </trkpt>
      <trkpt lat="45.83647" lon="4.71789">
        <ele>271.5054</ele>
        <time>2022-08-11T15:48:59.000Z</time>
      </trkpt>
      <trkpt lat="45.83649" lon="4.71788">
        <ele>271.14151</ele>
        <time>2022-08-11T15:49:00.000Z</time>
      </trkpt>
      <trkpt lat="45.83651" lon="4.71786">
        <ele>270.73893</ele>
        <time>2022-08-11T15:49:01.000Z</time>
      </trkpt>
      <trkpt lat="45.83652" lon="4.71784">
        <ele>270.22253</ele>
        <time>2022-08-11T15:49:02.000Z</time>
      </trkpt>
      <trkpt lat="45.83654" lon="4.7178">
        <ele>269.19075</ele>
        <time>2022-08-11T15:49:04.000Z</time>
      </trkpt>
      <trkpt lat="45.83655" lon="4.71777">
        <ele>268.49798</ele>
        <time>2022-08-11T15:49:05.000Z</time>
      </trkpt>
      <trkpt lat="45.83657" lon="4.71773">
        <ele>267.80528</ele>
        <time>2022-08-11T15:49:07.000Z</time>
      </trkpt>
      <trkpt lat="45.8366" lon="4.71771">
        <ele>267.402</ele>
        <time>2022-08-11T15:49:08.000Z</time>
      </trkpt>
      <trkpt lat="45.83663" lon="4.7177">
        <ele>267.1205</ele>
        <time>2022-08-11T15:49:09.000Z</time>
      </trkpt>
      <trkpt lat="45.83667" lon="4.71768">
        <ele>266.9335</ele>
        <time>2022-08-11T15:49:10.000Z</time>
      </trkpt>
      <trkpt lat="45.8367" lon="4.71767">
        <ele>266.81352</ele>
        <time>2022-08-11T15:49:11.000Z</time>
      </trkpt>
      <trkpt lat="45.83674" lon="4.71765">
        <ele>266.71798</ele>
        <time>2022-08-11T15:49:12.000Z</time>
      </trkpt>
      <trkpt lat="45.83677" lon="4.71762">
        <ele>266.35913</ele>
        <time>2022-08-11T15:49:13.000Z</time>
      </trkpt>
      <trkpt lat="45.8368" lon="4.71759">
        <ele>265.91201</ele>
        <time>2022-08-11T15:49:14.000Z</time>
      </trkpt>
      <trkpt lat="45.83684" lon="4.71755">
        <ele>265.34322</ele>
        <time>2022-08-11T15:49:15.000Z</time>
      </trkpt>
      <trkpt lat="45.83687" lon="4.7175">
        <ele>264.72897</ele>
        <time>2022-08-11T15:49:16.000Z</time>
      </trkpt>
      <trkpt lat="45.8369" lon="4.71746">
        <ele>264.12419</ele>
        <time>2022-08-11T15:49:17.000Z</time>
      </trkpt>
      <trkpt lat="45.83693" lon="4.71741">
        <ele>263.48201</ele>
        <time>2022-08-11T15:49:18.000Z</time>
      </trkpt>
      <trkpt lat="45.83696" lon="4.71736">
        <ele>262.82282</ele>
        <time>2022-08-11T15:49:19.000Z</time>
      </trkpt>
      <trkpt lat="45.83699" lon="4.71731">
        <ele>262.22098</ele>
        <time>2022-08-11T15:49:20.000Z</time>
      </trkpt>
      <trkpt lat="45.83702" lon="4.71727">
        <ele>261.62779</ele>
        <time>2022-08-11T15:49:21.000Z</time>
      </trkpt>
      <trkpt lat="45.83704" lon="4.71723">
        <ele>261.14562</ele>
        <time>2022-08-11T15:49:22.000Z</time>
      </trkpt>
      <trkpt lat="45.83706" lon="4.71721">
        <ele>260.91567</ele>
        <time>2022-08-11T15:49:23.000Z</time>
      </trkpt>
      <trkpt lat="45.83708" lon="4.71719">
        <ele>260.70464</ele>
        <time>2022-08-11T15:49:24.000Z</time>
      </trkpt>
      <trkpt lat="45.8371" lon="4.71716">
        <ele>260.4879</ele>
        <time>2022-08-11T15:49:25.000Z</time>
      </trkpt>
      <trkpt lat="45.83712" lon="4.71714">
        <ele>260.21265</ele>
        <time>2022-08-11T15:49:26.000Z</time>
      </trkpt>
      <trkpt lat="45.83714" lon="4.71711">
        <ele>259.86269</ele>
        <time>2022-08-11T15:49:27.000Z</time>
      </trkpt>
      <trkpt lat="45.83715" lon="4.71708">
        <ele>259.49284</ele>
        <time>2022-08-11T15:49:28.000Z</time>
      </trkpt>
      <trkpt lat="45.83715" lon="4.71703">
        <ele>258.72751</ele>
        <time>2022-08-11T15:49:29.000Z</time>
      </trkpt>
      <trkpt lat="45.83715" lon="4.71698">
        <ele>257.9458</ele>
        <time>2022-08-11T15:49:30.000Z</time>
      </trkpt>
      <trkpt lat="45.83714" lon="4.71692">
        <ele>257.26206</ele>
        <time>2022-08-11T15:49:31.000Z</time>
      </trkpt>
      <trkpt lat="45.83713" lon="4.71687">
        <ele>256.76979</ele>
        <time>2022-08-11T15:49:32.000Z</time>
      </trkpt>
      <trkpt lat="45.83711" lon="4.71681">
        <ele>256.55028</ele>
        <time>2022-08-11T15:49:33.000Z</time>
      </trkpt>
      <trkpt lat="45.83709" lon="4.71676">
        <ele>256.62592</ele>
        <time>2022-08-11T15:49:34.000Z</time>
      </trkpt>
      <trkpt lat="45.83708" lon="4.71671">
        <ele>256.9852</ele>
        <time>2022-08-11T15:49:35.000Z</time>
      </trkpt>
      <trkpt lat="45.83706" lon="4.71665">
        <ele>257.67384</ele>
        <time>2022-08-11T15:49:36.000Z</time>
      </trkpt>
      <trkpt lat="45.83704" lon="4.7166">
        <ele>258.56756</ele>
        <time>2022-08-11T15:49:37.000Z</time>
      </trkpt>
      <trkpt lat="45.83703" lon="4.71655">
        <ele>259.56858</ele>
        <time>2022-08-11T15:49:38.000Z</time>
      </trkpt>
      <trkpt lat="45.83701" lon="4.71651">
        <ele>260.7052</ele>
        <time>2022-08-11T15:49:39.000Z</time>
      </trkpt>
      <trkpt lat="45.83699" lon="4.71649">
        <ele>261.76742</ele>
        <time>2022-08-11T15:49:40.000Z</time>
      </trkpt>
      <trkpt lat="45.83697" lon="4.71648">
        <ele>262.49949</ele>
        <time>2022-08-11T15:49:41.000Z</time>
      </trkpt>
      <trkpt lat="45.83694" lon="4.71649">
        <ele>263.02726</ele>
        <time>2022-08-11T15:49:42.000Z</time>
      </trkpt>
      <trkpt lat="45.83691" lon="4.7165">
        <ele>263.45745</ele>
        <time>2022-08-11T15:49:43.000Z</time>
      </trkpt>
      <trkpt lat="45.83689" lon="4.71651">
        <ele>263.72591</ele>
        <time>2022-08-11T15:49:44.000Z</time>
      </trkpt>
      <trkpt lat="45.83687" lon="4.71652">
        <ele>264.01211</ele>
        <time>2022-08-11T15:49:45.000Z</time>
      </trkpt>
      <trkpt lat="45.83685" lon="4.71653">
        <ele>264.28764</ele>
        <time>2022-08-11T15:49:46.000Z</time>
      </trkpt>
      <trkpt lat="45.83682" lon="4.71653">
        <ele>264.54451</ele>
        <time>2022-08-11T15:49:47.000Z</time>
      </trkpt>
      <trkpt lat="45.8368" lon="4.71654">
        <ele>264.80935</ele>
        <time>2022-08-11T15:49:48.000Z</time>
      </trkpt>
      <trkpt lat="45.83677" lon="4.71654">
        <ele>265.14967</ele>
        <time>2022-08-11T15:49:49.000Z</time>
      </trkpt>
      <trkpt lat="45.83673" lon="4.71655">
        <ele>265.65357</ele>
        <time>2022-08-11T15:49:50.000Z</time>
      </trkpt>
      <trkpt lat="45.83669" lon="4.71655">
        <ele>266.27766</ele>
        <time>2022-08-11T15:49:51.000Z</time>
      </trkpt>
      <trkpt lat="45.83666" lon="4.71654">
        <ele>266.98832</ele>
        <time>2022-08-11T15:49:52.000Z</time>
      </trkpt>
      <trkpt lat="45.83662" lon="4.71652">
        <ele>267.95078</ele>
        <time>2022-08-11T15:49:53.000Z</time>
      </trkpt>
      <trkpt lat="45.83659" lon="4.7165">
        <ele>269.07426</ele>
        <time>2022-08-11T15:49:54.000Z</time>
      </trkpt>
      <trkpt lat="45.83655" lon="4.71648">
        <ele>270.24705</ele>
        <time>2022-08-11T15:49:55.000Z</time>
      </trkpt>
      <trkpt lat="45.83651" lon="4.71645">
        <ele>271.22962</ele>
        <time>2022-08-11T15:49:56.000Z</time>
      </trkpt>
      <trkpt lat="45.83647" lon="4.71643">
        <ele>272.07786</ele>
        <time>2022-08-11T15:49:57.000Z</time>
      </trkpt>
      <trkpt lat="45.83642" lon="4.71641">
        <ele>272.69546</ele>
        <time>2022-08-11T15:49:58.000Z</time>
      </trkpt>
      <trkpt lat="45.83638" lon="4.71639">
        <ele>273.11519</ele>
        <time>2022-08-11T15:49:59.000Z</time>
      </trkpt>
      <trkpt lat="45.83633" lon="4.71636">
        <ele>273.484</ele>
        <time>2022-08-11T15:50:00.000Z</time>
      </trkpt>
      <trkpt lat="45.83631" lon="4.71633">
        <ele>274.01392</ele>
        <time>2022-08-11T15:50:01.000Z</time>
      </trkpt>
      <trkpt lat="45.83629" lon="4.7163">
        <ele>274.59783</ele>
        <time>2022-08-11T15:50:02.000Z</time>
      </trkpt>
      <trkpt lat="45.8363" lon="4.71627">
        <ele>275.36046</ele>
        <time>2022-08-11T15:50:05.000Z</time>
      </trkpt>
      <trkpt lat="45.83631" lon="4.71626">
        <ele>276.03234</ele>
        <time>2022-08-11T15:50:09.000Z</time>
      </trkpt>
      <trkpt lat="45.8363" lon="4.71624">
        <ele>276.42138</ele>
        <time>2022-08-11T15:50:13.000Z</time>
      </trkpt>
      <trkpt lat="45.83631" lon="4.71627">
        <ele>275.68648</ele>
        <time>2022-08-11T15:50:31.000Z</time>
      </trkpt>
      <trkpt lat="45.83629" lon="4.71622">
        <ele>276.68598</ele>
        <time>2022-08-11T15:54:54.000Z</time>
      </trkpt>
      <trkpt lat="45.83629" lon="4.7162">
        <ele>277.23409</ele>
        <time>2022-08-11T15:54:55.000Z</time>
      </trkpt>
      <trkpt lat="45.83628" lon="4.71617">
        <ele>277.82244</ele>
        <time>2022-08-11T15:54:56.000Z</time>
      </trkpt>
      <trkpt lat="45.83627" lon="4.71614">
        <ele>278.21578</ele>
        <time>2022-08-11T15:54:57.000Z</time>
      </trkpt>
      <trkpt lat="45.83626" lon="4.71611">
        <ele>278.53258</ele>
        <time>2022-08-11T15:54:58.000Z</time>
      </trkpt>
      <trkpt lat="45.83625" lon="4.71609">
        <ele>278.85705</ele>
        <time>2022-08-11T15:54:59.000Z</time>
      </trkpt>
      <trkpt lat="45.83624" lon="4.71606">
        <ele>279.24623</ele>
        <time>2022-08-11T15:55:01.000Z</time>
      </trkpt>
      <trkpt lat="45.83623" lon="4.71603">
        <ele>279.63687</ele>
        <time>2022-08-11T15:55:03.000Z</time>
      </trkpt>
      <trkpt lat="45.83623" lon="4.716">
        <ele>280.23539</ele>
        <time>2022-08-11T15:55:05.000Z</time>
      </trkpt>
      <trkpt lat="45.83624" lon="4.71597">
        <ele>280.73635</ele>
        <time>2022-08-11T15:55:07.000Z</time>
      </trkpt>
      <trkpt lat="45.83623" lon="4.71594">
        <ele>281.16979</ele>
        <time>2022-08-11T15:55:09.000Z</time>
      </trkpt>
      <trkpt lat="45.83623" lon="4.71589">
        <ele>281.73008</ele>
        <time>2022-08-11T15:55:11.000Z</time>
      </trkpt>
      <trkpt lat="45.83623" lon="4.71587">
        <ele>282.10869</ele>
        <time>2022-08-11T15:55:12.000Z</time>
      </trkpt>
      <trkpt lat="45.83623" lon="4.71584">
        <ele>282.4795</ele>
        <time>2022-08-11T15:55:13.000Z</time>
      </trkpt>
      <trkpt lat="45.83623" lon="4.7158">
        <ele>282.99637</ele>
        <time>2022-08-11T15:55:15.000Z</time>
      </trkpt>
      <trkpt lat="45.83623" lon="4.71576">
        <ele>283.57929</ele>
        <time>2022-08-11T15:55:17.000Z</time>
      </trkpt>
      <trkpt lat="45.83623" lon="4.71572">
        <ele>284.07027</ele>
        <time>2022-08-11T15:55:19.000Z</time>
      </trkpt>
      <trkpt lat="45.83622" lon="4.71568">
        <ele>284.355</ele>
        <time>2022-08-11T15:55:21.000Z</time>
      </trkpt>
      <trkpt lat="45.83622" lon="4.71565">
        <ele>284.56629</ele>
        <time>2022-08-11T15:55:23.000Z</time>
      </trkpt>
      <trkpt lat="45.83621" lon="4.71562">
        <ele>284.8737</ele>
        <time>2022-08-11T15:55:26.000Z</time>
      </trkpt>
      <trkpt lat="45.8362" lon="4.71564">
        <ele>284.45907</ele>
        <time>2022-08-11T15:55:37.000Z</time>
      </trkpt>
      <trkpt lat="45.83619" lon="4.71561">
        <ele>284.79615</ele>
        <time>2022-08-11T15:56:14.000Z</time>
      </trkpt>
      <trkpt lat="45.83619" lon="4.71555">
        <ele>285.36581</ele>
        <time>2022-08-11T15:56:16.000Z</time>
      </trkpt>
      <trkpt lat="45.8362" lon="4.71553">
        <ele>285.68116</ele>
        <time>2022-08-11T15:56:17.000Z</time>
      </trkpt>
      <trkpt lat="45.83621" lon="4.7155">
        <ele>285.99687</ele>
        <time>2022-08-11T15:56:18.000Z</time>
      </trkpt>
      <trkpt lat="45.83623" lon="4.71546">
        <ele>286.40743</ele>
        <time>2022-08-11T15:56:20.000Z</time>
      </trkpt>
      <trkpt lat="45.83623" lon="4.71543">
        <ele>286.66751</ele>
        <time>2022-08-11T15:56:22.000Z</time>
      </trkpt>
      <trkpt lat="45.83623" lon="4.7154">
        <ele>286.87566</ele>
        <time>2022-08-11T15:56:25.000Z</time>
      </trkpt>
      <trkpt lat="45.83624" lon="4.71537">
        <ele>287.04802</ele>
        <time>2022-08-11T15:56:40.000Z</time>
      </trkpt>
      <trkpt lat="45.83622" lon="4.71533">
        <ele>287.22987</ele>
        <time>2022-08-11T15:57:33.000Z</time>
      </trkpt>
      <trkpt lat="45.83621" lon="4.7153">
        <ele>287.33808</ele>
        <time>2022-08-11T15:57:34.000Z</time>
      </trkpt>
      <trkpt lat="45.83619" lon="4.71527">
        <ele>287.45557</ele>
        <time>2022-08-11T15:57:35.000Z</time>
      </trkpt>
      <trkpt lat="45.83618" lon="4.71524">
        <ele>287.58501</ele>
        <time>2022-08-11T15:57:36.000Z</time>
      </trkpt>
      <trkpt lat="45.83617" lon="4.71521">
        <ele>287.73332</ele>
        <time>2022-08-11T15:57:37.000Z</time>
      </trkpt>
      <trkpt lat="45.83616" lon="4.71519">
        <ele>287.87106</ele>
        <time>2022-08-11T15:57:38.000Z</time>
      </trkpt>
      <trkpt lat="45.83616" lon="4.71516">
        <ele>288.00509</ele>
        <time>2022-08-11T15:57:39.000Z</time>
      </trkpt>
      <trkpt lat="45.83614" lon="4.71512">
        <ele>288.25397</ele>
        <time>2022-08-11T15:57:41.000Z</time>
      </trkpt>
      <trkpt lat="45.83613" lon="4.71509">
        <ele>288.42901</ele>
        <time>2022-08-11T15:57:42.000Z</time>
      </trkpt>
      <trkpt lat="45.83612" lon="4.71506">
        <ele>288.58979</ele>
        <time>2022-08-11T15:57:43.000Z</time>
      </trkpt>
      <trkpt lat="45.83611" lon="4.71503">
        <ele>288.74567</ele>
        <time>2022-08-11T15:57:44.000Z</time>
      </trkpt>
      <trkpt lat="45.8361" lon="4.71501">
        <ele>288.90049</ele>
        <time>2022-08-11T15:57:45.000Z</time>
      </trkpt>
      <trkpt lat="45.83609" lon="4.71496">
        <ele>289.16194</ele>
        <time>2022-08-11T15:57:47.000Z</time>
      </trkpt>
      <trkpt lat="45.83608" lon="4.71492">
        <ele>289.38938</ele>
        <time>2022-08-11T15:57:49.000Z</time>
      </trkpt>
      <trkpt lat="45.83609" lon="4.7149">
        <ele>289.49391</ele>
        <time>2022-08-11T15:57:50.000Z</time>
      </trkpt>
      <trkpt lat="45.8361" lon="4.71487">
        <ele>289.55336</ele>
        <time>2022-08-11T15:57:51.000Z</time>
      </trkpt>
      <trkpt lat="45.83612" lon="4.71485">
        <ele>289.54692</ele>
        <time>2022-08-11T15:57:52.000Z</time>
      </trkpt>
      <trkpt lat="45.83614" lon="4.71483">
        <ele>289.54704</ele>
        <time>2022-08-11T15:57:53.000Z</time>
      </trkpt>
      <trkpt lat="45.83617" lon="4.7148">
        <ele>289.53043</ele>
        <time>2022-08-11T15:57:54.000Z</time>
      </trkpt>
      <trkpt lat="45.83619" lon="4.71478">
        <ele>289.50184</ele>
        <time>2022-08-11T15:57:55.000Z</time>
      </trkpt>
      <trkpt lat="45.83621" lon="4.71476">
        <ele>289.45412</ele>
        <time>2022-08-11T15:57:56.000Z</time>
      </trkpt>
      <trkpt lat="45.83623" lon="4.71474">
        <ele>289.4029</ele>
        <time>2022-08-11T15:57:57.000Z</time>
      </trkpt>
      <trkpt lat="45.83624" lon="4.71472">
        <ele>289.3712</ele>
        <time>2022-08-11T15:57:58.000Z</time>
      </trkpt>
      <trkpt lat="45.83626" lon="4.71468">
        <ele>289.35049</ele>
        <time>2022-08-11T15:57:59.000Z</time>
      </trkpt>
      <trkpt lat="45.83627" lon="4.71464">
        <ele>289.33957</ele>
        <time>2022-08-11T15:58:00.000Z</time>
      </trkpt>
      <trkpt lat="45.83628" lon="4.7146">
        <ele>289.32713</ele>
        <time>2022-08-11T15:58:01.000Z</time>
      </trkpt>
      <trkpt lat="45.83629" lon="4.71456">
        <ele>289.31171</ele>
        <time>2022-08-11T15:58:02.000Z</time>
      </trkpt>
      <trkpt lat="45.8363" lon="4.71453">
        <ele>289.29483</ele>
        <time>2022-08-11T15:58:03.000Z</time>
      </trkpt>
      <trkpt lat="45.83632" lon="4.71448">
        <ele>289.28145</ele>
        <time>2022-08-11T15:58:04.000Z</time>
      </trkpt>
      <trkpt lat="45.83633" lon="4.71443">
        <ele>289.27465</ele>
        <time>2022-08-11T15:58:05.000Z</time>
      </trkpt>
      <trkpt lat="45.83634" lon="4.71439">
        <ele>289.27655</ele>
        <time>2022-08-11T15:58:06.000Z</time>
      </trkpt>
      <trkpt lat="45.83635" lon="4.71434">
        <ele>289.28047</ele>
        <time>2022-08-11T15:58:07.000Z</time>
      </trkpt>
      <trkpt lat="45.83637" lon="4.71429">
        <ele>289.28858</ele>
        <time>2022-08-11T15:58:08.000Z</time>
      </trkpt>
      <trkpt lat="45.83638" lon="4.71424">
        <ele>289.30373</ele>
        <time>2022-08-11T15:58:09.000Z</time>
      </trkpt>
      <trkpt lat="45.83639" lon="4.71419">
        <ele>289.30881</ele>
        <time>2022-08-11T15:58:10.000Z</time>
      </trkpt>
      <trkpt lat="45.8364" lon="4.71413">
        <ele>289.30804</ele>
        <time>2022-08-11T15:58:11.000Z</time>
      </trkpt>
      <trkpt lat="45.83642" lon="4.71408">
        <ele>289.30366</ele>
        <time>2022-08-11T15:58:12.000Z</time>
      </trkpt>
      <trkpt lat="45.83643" lon="4.71402">
        <ele>289.28544</ele>
        <time>2022-08-11T15:58:13.000Z</time>
      </trkpt>
      <trkpt lat="45.83645" lon="4.71396">
        <ele>289.26501</ele>
        <time>2022-08-11T15:58:14.000Z</time>
      </trkpt>
      <trkpt lat="45.83646" lon="4.71391">
        <ele>289.23235</ele>
        <time>2022-08-11T15:58:15.000Z</time>
      </trkpt>
      <trkpt lat="45.83648" lon="4.71386">
        <ele>289.19218</ele>
        <time>2022-08-11T15:58:16.000Z</time>
      </trkpt>
      <trkpt lat="45.83649" lon="4.7138">
        <ele>289.1511</ele>
        <time>2022-08-11T15:58:17.000Z</time>
      </trkpt>
      <trkpt lat="45.8365" lon="4.71375">
        <ele>289.12442</ele>
        <time>2022-08-11T15:58:18.000Z</time>
      </trkpt>
      <trkpt lat="45.83651" lon="4.71371">
        <ele>289.13817</ele>
        <time>2022-08-11T15:58:19.000Z</time>
      </trkpt>
      <trkpt lat="45.83651" lon="4.71367">
        <ele>289.1761</ele>
        <time>2022-08-11T15:58:20.000Z</time>
      </trkpt>
      <trkpt lat="45.83651" lon="4.71362">
        <ele>289.23508</ele>
        <time>2022-08-11T15:58:21.000Z</time>
      </trkpt>
      <trkpt lat="45.83651" lon="4.71358">
        <ele>289.30517</ele>
        <time>2022-08-11T15:58:22.000Z</time>
      </trkpt>
      <trkpt lat="45.8365" lon="4.71353">
        <ele>289.37766</ele>
        <time>2022-08-11T15:58:23.000Z</time>
      </trkpt>
      <trkpt lat="45.83651" lon="4.71349">
        <ele>289.4591</ele>
        <time>2022-08-11T15:58:24.000Z</time>
      </trkpt>
      <trkpt lat="45.83652" lon="4.71344">
        <ele>289.53303</ele>
        <time>2022-08-11T15:58:25.000Z</time>
      </trkpt>
      <trkpt lat="45.83653" lon="4.7134">
        <ele>289.60307</ele>
        <time>2022-08-11T15:58:26.000Z</time>
      </trkpt>
      <trkpt lat="45.83654" lon="4.71335">
        <ele>289.66591</ele>
        <time>2022-08-11T15:58:27.000Z</time>
      </trkpt>
      <trkpt lat="45.83655" lon="4.71331">
        <ele>289.71125</ele>
        <time>2022-08-11T15:58:28.000Z</time>
      </trkpt>
      <trkpt lat="45.83656" lon="4.71327">
        <ele>289.73751</ele>
        <time>2022-08-11T15:58:29.000Z</time>
      </trkpt>
      <trkpt lat="45.83658" lon="4.71322">
        <ele>289.74295</ele>
        <time>2022-08-11T15:58:30.000Z</time>
      </trkpt>
      <trkpt lat="45.83659" lon="4.71317">
        <ele>289.74874</ele>
        <time>2022-08-11T15:58:31.000Z</time>
      </trkpt>
      <trkpt lat="45.8366" lon="4.71312">
        <ele>289.75346</ele>
        <time>2022-08-11T15:58:32.000Z</time>
      </trkpt>
      <trkpt lat="45.83661" lon="4.71307">
        <ele>289.7465</ele>
        <time>2022-08-11T15:58:33.000Z</time>
      </trkpt>
      <trkpt lat="45.83662" lon="4.71302">
        <ele>289.75148</ele>
        <time>2022-08-11T15:58:34.000Z</time>
      </trkpt>
      <trkpt lat="45.83662" lon="4.71297">
        <ele>289.75072</ele>
        <time>2022-08-11T15:58:35.000Z</time>
      </trkpt>
      <trkpt lat="45.83663" lon="4.71292">
        <ele>289.74395</ele>
        <time>2022-08-11T15:58:36.000Z</time>
      </trkpt>
      <trkpt lat="45.83664" lon="4.71287">
        <ele>289.72833</ele>
        <time>2022-08-11T15:58:37.000Z</time>
      </trkpt>
      <trkpt lat="45.83665" lon="4.71283">
        <ele>289.69442</ele>
        <time>2022-08-11T15:58:38.000Z</time>
      </trkpt>
      <trkpt lat="45.83666" lon="4.71278">
        <ele>289.66046</ele>
        <time>2022-08-11T15:58:39.000Z</time>
      </trkpt>
      <trkpt lat="45.83668" lon="4.71274">
        <ele>289.61962</ele>
        <time>2022-08-11T15:58:40.000Z</time>
      </trkpt>
      <trkpt lat="45.83669" lon="4.71269">
        <ele>289.59224</ele>
        <time>2022-08-11T15:58:41.000Z</time>
      </trkpt>
      <trkpt lat="45.8367" lon="4.71265">
        <ele>289.57145</ele>
        <time>2022-08-11T15:58:42.000Z</time>
      </trkpt>
      <trkpt lat="45.83671" lon="4.71262">
        <ele>289.57382</ele>
        <time>2022-08-11T15:58:43.000Z</time>
      </trkpt>
      <trkpt lat="45.83671" lon="4.71257">
        <ele>289.60957</ele>
        <time>2022-08-11T15:58:44.000Z</time>
      </trkpt>
      <trkpt lat="45.83671" lon="4.71253">
        <ele>289.65132</ele>
        <time>2022-08-11T15:58:45.000Z</time>
      </trkpt>
      <trkpt lat="45.83672" lon="4.71249">
        <ele>289.70852</ele>
        <time>2022-08-11T15:58:46.000Z</time>
      </trkpt>
      <trkpt lat="45.83672" lon="4.71244">
        <ele>289.77422</ele>
        <time>2022-08-11T15:58:47.000Z</time>
      </trkpt>
      <trkpt lat="45.83673" lon="4.7124">
        <ele>289.83587</ele>
        <time>2022-08-11T15:58:48.000Z</time>
      </trkpt>
      <trkpt lat="45.83673" lon="4.71236">
        <ele>289.88863</ele>
        <time>2022-08-11T15:58:49.000Z</time>
      </trkpt>
      <trkpt lat="45.83674" lon="4.71231">
        <ele>289.94828</ele>
        <time>2022-08-11T15:58:50.000Z</time>
      </trkpt>
      <trkpt lat="45.83676" lon="4.71226">
        <ele>290.0232</ele>
        <time>2022-08-11T15:58:51.000Z</time>
      </trkpt>
      <trkpt lat="45.83676" lon="4.71223">
        <ele>290.09117</ele>
        <time>2022-08-11T15:58:52.000Z</time>
      </trkpt>
      <trkpt lat="45.83675" lon="4.71219">
        <ele>290.22186</ele>
        <time>2022-08-11T15:58:54.000Z</time>
      </trkpt>
      <trkpt lat="45.83673" lon="4.71217">
        <ele>290.30195</ele>
        <time>2022-08-11T15:58:55.000Z</time>
      </trkpt>
      <trkpt lat="45.83671" lon="4.71216">
        <ele>290.39103</ele>
        <time>2022-08-11T15:58:56.000Z</time>
      </trkpt>
      <trkpt lat="45.8367" lon="4.71214">
        <ele>290.49182</ele>
        <time>2022-08-11T15:58:57.000Z</time>
      </trkpt>
      <trkpt lat="45.83668" lon="4.71212">
        <ele>290.59129</ele>
        <time>2022-08-11T15:58:59.000Z</time>
      </trkpt>
      <trkpt lat="45.83667" lon="4.7121">
        <ele>290.7176</ele>
        <time>2022-08-11T15:59:02.000Z</time>
      </trkpt>
      <trkpt lat="45.83664" lon="4.71208">
        <ele>290.89135</ele>
        <time>2022-08-11T15:59:04.000Z</time>
      </trkpt>
      <trkpt lat="45.83662" lon="4.71207">
        <ele>291.00912</ele>
        <time>2022-08-11T15:59:05.000Z</time>
      </trkpt>
      <trkpt lat="45.83659" lon="4.71206">
        <ele>291.15788</ele>
        <time>2022-08-11T15:59:06.000Z</time>
      </trkpt>
      <trkpt lat="45.83657" lon="4.71205">
        <ele>291.31945</ele>
        <time>2022-08-11T15:59:07.000Z</time>
      </trkpt>
      <trkpt lat="45.83654" lon="4.71204">
        <ele>291.49788</ele>
        <time>2022-08-11T15:59:08.000Z</time>
      </trkpt>
      <trkpt lat="45.83652" lon="4.71203">
        <ele>291.65863</ele>
        <time>2022-08-11T15:59:09.000Z</time>
      </trkpt>
      <trkpt lat="45.8365" lon="4.71201">
        <ele>291.80073</ele>
        <time>2022-08-11T15:59:10.000Z</time>
      </trkpt>
      <trkpt lat="45.83648" lon="4.712">
        <ele>291.95333</ele>
        <time>2022-08-11T15:59:11.000Z</time>
      </trkpt>
      <trkpt lat="45.83645" lon="4.71199">
        <ele>292.12137</ele>
        <time>2022-08-11T15:59:12.000Z</time>
      </trkpt>
      <trkpt lat="45.83643" lon="4.71197">
        <ele>292.28953</ele>
        <time>2022-08-11T15:59:13.000Z</time>
      </trkpt>
      <trkpt lat="45.8364" lon="4.71196">
        <ele>292.44662</ele>
        <time>2022-08-11T15:59:14.000Z</time>
      </trkpt>
      <trkpt lat="45.83638" lon="4.71194">
        <ele>292.61414</ele>
        <time>2022-08-11T15:59:15.000Z</time>
      </trkpt>
      <trkpt lat="45.83636" lon="4.71192">
        <ele>292.7725</ele>
        <time>2022-08-11T15:59:16.000Z</time>
      </trkpt>
      <trkpt lat="45.83633" lon="4.71189">
        <ele>292.95061</ele>
        <time>2022-08-11T15:59:17.000Z</time>
      </trkpt>
      <trkpt lat="45.83629" lon="4.71186">
        <ele>293.13902</ele>
        <time>2022-08-11T15:59:18.000Z</time>
      </trkpt>
      <trkpt lat="45.83626" lon="4.71184">
        <ele>293.31078</ele>
        <time>2022-08-11T15:59:19.000Z</time>
      </trkpt>
      <trkpt lat="45.83623" lon="4.71182">
        <ele>293.4698</ele>
        <time>2022-08-11T15:59:20.000Z</time>
      </trkpt>
      <trkpt lat="45.83619" lon="4.71179">
        <ele>293.63994</ele>
        <time>2022-08-11T15:59:21.000Z</time>
      </trkpt>
      <trkpt lat="45.83616" lon="4.71177">
        <ele>293.80657</ele>
        <time>2022-08-11T15:59:22.000Z</time>
      </trkpt>
      <trkpt lat="45.83613" lon="4.71174">
        <ele>293.98123</ele>
        <time>2022-08-11T15:59:23.000Z</time>
      </trkpt>
      <trkpt lat="45.83609" lon="4.71172">
        <ele>294.17165</ele>
        <time>2022-08-11T15:59:24.000Z</time>
      </trkpt>
      <trkpt lat="45.83606" lon="4.7117">
        <ele>294.35574</ele>
        <time>2022-08-11T15:59:25.000Z</time>
      </trkpt>
      <trkpt lat="45.83603" lon="4.71167">
        <ele>294.51406</ele>
        <time>2022-08-11T15:59:26.000Z</time>
      </trkpt>
      <trkpt lat="45.836" lon="4.71165">
        <ele>294.64005</ele>
        <time>2022-08-11T15:59:27.000Z</time>
      </trkpt>
      <trkpt lat="45.83597" lon="4.71163">
        <ele>294.7608</ele>
        <time>2022-08-11T15:59:28.000Z</time>
      </trkpt>
      <trkpt lat="45.83593" lon="4.71161">
        <ele>294.87625</ele>
        <time>2022-08-11T15:59:29.000Z</time>
      </trkpt>
      <trkpt lat="45.8359" lon="4.71159">
        <ele>294.97051</ele>
        <time>2022-08-11T15:59:30.000Z</time>
      </trkpt>
      <trkpt lat="45.83586" lon="4.71157">
        <ele>295.0598</ele>
        <time>2022-08-11T15:59:31.000Z</time>
      </trkpt>
      <trkpt lat="45.83583" lon="4.71154">
        <ele>295.16421</ele>
        <time>2022-08-11T15:59:32.000Z</time>
      </trkpt>
      <trkpt lat="45.83579" lon="4.71152">
        <ele>295.28419</ele>
        <time>2022-08-11T15:59:33.000Z</time>
      </trkpt>
      <trkpt lat="45.83576" lon="4.7115">
        <ele>295.39658</ele>
        <time>2022-08-11T15:59:34.000Z</time>
      </trkpt>
      <trkpt lat="45.83574" lon="4.71148">
        <ele>295.50652</ele>
        <time>2022-08-11T15:59:35.000Z</time>
      </trkpt>
      <trkpt lat="45.83571" lon="4.71146">
        <ele>295.61544</ele>
        <time>2022-08-11T15:59:36.000Z</time>
      </trkpt>
      <trkpt lat="45.83569" lon="4.71145">
        <ele>295.71361</ele>
        <time>2022-08-11T15:59:37.000Z</time>
      </trkpt>
      <trkpt lat="45.83568" lon="4.71143">
        <ele>295.79654</ele>
        <time>2022-08-11T15:59:38.000Z</time>
      </trkpt>
      <trkpt lat="45.83567" lon="4.71139">
        <ele>295.87579</ele>
        <time>2022-08-11T15:59:39.000Z</time>
      </trkpt>
      <trkpt lat="45.83568" lon="4.71135">
        <ele>295.94883</ele>
        <time>2022-08-11T15:59:40.000Z</time>
      </trkpt>
      <trkpt lat="45.8357" lon="4.71131">
        <ele>296.01851</ele>
        <time>2022-08-11T15:59:41.000Z</time>
      </trkpt>
      <trkpt lat="45.83571" lon="4.71127">
        <ele>296.07844</ele>
        <time>2022-08-11T15:59:42.000Z</time>
      </trkpt>
      <trkpt lat="45.83573" lon="4.71122">
        <ele>296.14407</ele>
        <time>2022-08-11T15:59:43.000Z</time>
      </trkpt>
      <trkpt lat="45.83575" lon="4.71117">
        <ele>296.20876</ele>
        <time>2022-08-11T15:59:44.000Z</time>
      </trkpt>
      <trkpt lat="45.83577" lon="4.71112">
        <ele>296.2696</ele>
        <time>2022-08-11T15:59:45.000Z</time>
      </trkpt>
      <trkpt lat="45.83579" lon="4.71107">
        <ele>296.3275</ele>
        <time>2022-08-11T15:59:46.000Z</time>
      </trkpt>
      <trkpt lat="45.83581" lon="4.71102">
        <ele>296.37347</ele>
        <time>2022-08-11T15:59:47.000Z</time>
      </trkpt>
      <trkpt lat="45.83583" lon="4.71097">
        <ele>296.42423</ele>
        <time>2022-08-11T15:59:48.000Z</time>
      </trkpt>
      <trkpt lat="45.83585" lon="4.71092">
        <ele>296.47149</ele>
        <time>2022-08-11T15:59:49.000Z</time>
      </trkpt>
      <trkpt lat="45.83586" lon="4.71088">
        <ele>296.51618</ele>
        <time>2022-08-11T15:59:50.000Z</time>
      </trkpt>
      <trkpt lat="45.83588" lon="4.71083">
        <ele>296.56194</ele>
        <time>2022-08-11T15:59:51.000Z</time>
      </trkpt>
      <trkpt lat="45.83589" lon="4.71078">
        <ele>296.60437</ele>
        <time>2022-08-11T15:59:52.000Z</time>
      </trkpt>
      <trkpt lat="45.83591" lon="4.71072">
        <ele>296.64423</ele>
        <time>2022-08-11T15:59:53.000Z</time>
      </trkpt>
      <trkpt lat="45.83592" lon="4.71068">
        <ele>296.67252</ele>
        <time>2022-08-11T15:59:54.000Z</time>
      </trkpt>
      <trkpt lat="45.83594" lon="4.71063">
        <ele>296.6934</ele>
        <time>2022-08-11T15:59:55.000Z</time>
      </trkpt>
      <trkpt lat="45.83595" lon="4.71059">
        <ele>296.7395</ele>
        <time>2022-08-11T15:59:56.000Z</time>
      </trkpt>
      <trkpt lat="45.83595" lon="4.71054">
        <ele>296.83805</ele>
        <time>2022-08-11T15:59:57.000Z</time>
      </trkpt>
      <trkpt lat="45.83594" lon="4.71049">
        <ele>296.98786</ele>
        <time>2022-08-11T15:59:58.000Z</time>
      </trkpt>
      <trkpt lat="45.83592" lon="4.71045">
        <ele>297.16213</ele>
        <time>2022-08-11T15:59:59.000Z</time>
      </trkpt>
      <trkpt lat="45.83589" lon="4.71043">
        <ele>297.33851</ele>
        <time>2022-08-11T16:00:00.000Z</time>
      </trkpt>
      <trkpt lat="45.83585" lon="4.71041">
        <ele>297.53487</ele>
        <time>2022-08-11T16:00:01.000Z</time>
      </trkpt>
      <trkpt lat="45.83581" lon="4.7104">
        <ele>297.71464</ele>
        <time>2022-08-11T16:00:02.000Z</time>
      </trkpt>
      <trkpt lat="45.83577" lon="4.71039">
        <ele>297.85113</ele>
        <time>2022-08-11T16:00:03.000Z</time>
      </trkpt>
      <trkpt lat="45.83573" lon="4.71038">
        <ele>297.93335</ele>
        <time>2022-08-11T16:00:04.000Z</time>
      </trkpt>
      <trkpt lat="45.83569" lon="4.71036">
        <ele>297.99194</ele>
        <time>2022-08-11T16:00:05.000Z</time>
      </trkpt>
      <trkpt lat="45.83565" lon="4.71034">
        <ele>298.03896</ele>
        <time>2022-08-11T16:00:06.000Z</time>
      </trkpt>
      <trkpt lat="45.83561" lon="4.71032">
        <ele>298.09011</ele>
        <time>2022-08-11T16:00:07.000Z</time>
      </trkpt>
      <trkpt lat="45.83557" lon="4.71029">
        <ele>298.16864</ele>
        <time>2022-08-11T16:00:08.000Z</time>
      </trkpt>
      <trkpt lat="45.83553" lon="4.71026">
        <ele>298.28768</ele>
        <time>2022-08-11T16:00:09.000Z</time>
      </trkpt>
      <trkpt lat="45.83549" lon="4.71024">
        <ele>298.43096</ele>
        <time>2022-08-11T16:00:10.000Z</time>
      </trkpt>
      <trkpt lat="45.83545" lon="4.71021">
        <ele>298.57931</ele>
        <time>2022-08-11T16:00:11.000Z</time>
      </trkpt>
      <trkpt lat="45.83541" lon="4.71018">
        <ele>298.71572</ele>
        <time>2022-08-11T16:00:12.000Z</time>
      </trkpt>
      <trkpt lat="45.83537" lon="4.71015">
        <ele>298.8307</ele>
        <time>2022-08-11T16:00:13.000Z</time>
      </trkpt>
      <trkpt lat="45.83534" lon="4.71012">
        <ele>298.92505</ele>
        <time>2022-08-11T16:00:14.000Z</time>
      </trkpt>
      <trkpt lat="45.8353" lon="4.71009">
        <ele>299.00785</ele>
        <time>2022-08-11T16:00:15.000Z</time>
      </trkpt>
      <trkpt lat="45.83527" lon="4.71006">
        <ele>299.08157</ele>
        <time>2022-08-11T16:00:16.000Z</time>
      </trkpt>
      <trkpt lat="45.83524" lon="4.71003">
        <ele>299.15707</ele>
        <time>2022-08-11T16:00:17.000Z</time>
      </trkpt>
      <trkpt lat="45.8352" lon="4.71">
        <ele>299.24861</ele>
        <time>2022-08-11T16:00:18.000Z</time>
      </trkpt>
      <trkpt lat="45.83516" lon="4.70997">
        <ele>299.37473</ele>
        <time>2022-08-11T16:00:19.000Z</time>
      </trkpt>
      <trkpt lat="45.83513" lon="4.70995">
        <ele>299.52551</ele>
        <time>2022-08-11T16:00:20.000Z</time>
      </trkpt>
      <trkpt lat="45.8351" lon="4.70994">
        <ele>299.67998</ele>
        <time>2022-08-11T16:00:21.000Z</time>
      </trkpt>
      <trkpt lat="45.83507" lon="4.70993">
        <ele>299.85352</ele>
        <time>2022-08-11T16:00:22.000Z</time>
      </trkpt>
      <trkpt lat="45.83504" lon="4.70992">
        <ele>300.07773</ele>
        <time>2022-08-11T16:00:23.000Z</time>
      </trkpt>
      <trkpt lat="45.835" lon="4.70991">
        <ele>300.32502</ele>
        <time>2022-08-11T16:00:24.000Z</time>
      </trkpt>
      <trkpt lat="45.83497" lon="4.70991">
        <ele>300.57279</ele>
        <time>2022-08-11T16:00:25.000Z</time>
      </trkpt>
      <trkpt lat="45.83489" lon="4.70994">
        <ele>301.06144</ele>
        <time>2022-08-11T16:00:26.000Z</time>
      </trkpt>
      <trkpt lat="45.83484" lon="4.7099">
        <ele>301.44703</ele>
        <time>2022-08-11T16:00:27.000Z</time>
      </trkpt>
      <trkpt lat="45.83479" lon="4.70991">
        <ele>301.72934</ele>
        <time>2022-08-11T16:00:28.000Z</time>
      </trkpt>
      <trkpt lat="45.83476" lon="4.70992">
        <ele>301.87737</ele>
        <time>2022-08-11T16:00:29.000Z</time>
      </trkpt>
      <trkpt lat="45.83472" lon="4.70992">
        <ele>302.06303</ele>
        <time>2022-08-11T16:00:30.000Z</time>
      </trkpt>
      <trkpt lat="45.83469" lon="4.70991">
        <ele>302.23591</ele>
        <time>2022-08-11T16:00:31.000Z</time>
      </trkpt>
      <trkpt lat="45.83465" lon="4.7099">
        <ele>302.39456</ele>
        <time>2022-08-11T16:00:32.000Z</time>
      </trkpt>
      <trkpt lat="45.83462" lon="4.70991">
        <ele>302.48635</ele>
        <time>2022-08-11T16:00:33.000Z</time>
      </trkpt>
      <trkpt lat="45.83458" lon="4.7099">
        <ele>302.64437</ele>
        <time>2022-08-11T16:00:34.000Z</time>
      </trkpt>
      <trkpt lat="45.83453" lon="4.7099">
        <ele>302.77046</ele>
        <time>2022-08-11T16:00:35.000Z</time>
      </trkpt>
      <trkpt lat="45.83449" lon="4.70991">
        <ele>302.87</ele>
        <time>2022-08-11T16:00:36.000Z</time>
      </trkpt>
      <trkpt lat="45.83445" lon="4.7099">
        <ele>302.99122</ele>
        <time>2022-08-11T16:00:37.000Z</time>
      </trkpt>
      <trkpt lat="45.83441" lon="4.70989">
        <ele>303.1338</ele>
        <time>2022-08-11T16:00:38.000Z</time>
      </trkpt>
      <trkpt lat="45.83437" lon="4.70989">
        <ele>303.25789</ele>
        <time>2022-08-11T16:00:39.000Z</time>
      </trkpt>
      <trkpt lat="45.83433" lon="4.70989">
        <ele>303.40496</ele>
        <time>2022-08-11T16:00:40.000Z</time>
      </trkpt>
      <trkpt lat="45.83429" lon="4.70989">
        <ele>303.56205</ele>
        <time>2022-08-11T16:00:41.000Z</time>
      </trkpt>
      <trkpt lat="45.83425" lon="4.70988">
        <ele>303.72051</ele>
        <time>2022-08-11T16:00:42.000Z</time>
      </trkpt>
      <trkpt lat="45.83421" lon="4.70988">
        <ele>303.88447</ele>
        <time>2022-08-11T16:00:43.000Z</time>
      </trkpt>
      <trkpt lat="45.83416" lon="4.70989">
        <ele>304.07866</ele>
        <time>2022-08-11T16:00:44.000Z</time>
      </trkpt>
      <trkpt lat="45.83412" lon="4.70989">
        <ele>304.27547</ele>
        <time>2022-08-11T16:00:45.000Z</time>
      </trkpt>
      <trkpt lat="45.83408" lon="4.70989">
        <ele>304.48207</ele>
        <time>2022-08-11T16:00:46.000Z</time>
      </trkpt>
      <trkpt lat="45.83404" lon="4.70989">
        <ele>304.67799</ele>
        <time>2022-08-11T16:00:47.000Z</time>
      </trkpt>
      <trkpt lat="45.834" lon="4.7099">
        <ele>304.8452</ele>
        <time>2022-08-11T16:00:48.000Z</time>
      </trkpt>
      <trkpt lat="45.83396" lon="4.70991">
        <ele>304.9713</ele>
        <time>2022-08-11T16:00:49.000Z</time>
      </trkpt>
      <trkpt lat="45.83392" lon="4.70993">
        <ele>305.07316</ele>
        <time>2022-08-11T16:00:50.000Z</time>
      </trkpt>
      <trkpt lat="45.83388" lon="4.70994">
        <ele>305.16024</ele>
        <time>2022-08-11T16:00:51.000Z</time>
      </trkpt>
      <trkpt lat="45.83384" lon="4.70995">
        <ele>305.23045</ele>
        <time>2022-08-11T16:00:52.000Z</time>
      </trkpt>
      <trkpt lat="45.83379" lon="4.70995">
        <ele>305.28489</ele>
        <time>2022-08-11T16:00:53.000Z</time>
      </trkpt>
      <trkpt lat="45.83375" lon="4.70996">
        <ele>305.32378</ele>
        <time>2022-08-11T16:00:54.000Z</time>
      </trkpt>
      <trkpt lat="45.83371" lon="4.70997">
        <ele>305.3429</ele>
        <time>2022-08-11T16:00:55.000Z</time>
      </trkpt>
      <trkpt lat="45.83367" lon="4.70997">
        <ele>305.34524</ele>
        <time>2022-08-11T16:00:56.000Z</time>
      </trkpt>
      <trkpt lat="45.83363" lon="4.70997">
        <ele>305.33535</ele>
        <time>2022-08-11T16:00:57.000Z</time>
      </trkpt>
      <trkpt lat="45.83359" lon="4.70997">
        <ele>305.31891</ele>
        <time>2022-08-11T16:00:58.000Z</time>
      </trkpt>
      <trkpt lat="45.83354" lon="4.70998">
        <ele>305.29559</ele>
        <time>2022-08-11T16:00:59.000Z</time>
      </trkpt>
      <trkpt lat="45.8335" lon="4.70999">
        <ele>305.26752</ele>
        <time>2022-08-11T16:01:00.000Z</time>
      </trkpt>
      <trkpt lat="45.83346" lon="4.70999">
        <ele>305.23716</ele>
        <time>2022-08-11T16:01:01.000Z</time>
      </trkpt>
      <trkpt lat="45.83342" lon="4.71">
        <ele>305.20845</ele>
        <time>2022-08-11T16:01:02.000Z</time>
      </trkpt>
      <trkpt lat="45.83338" lon="4.71">
        <ele>305.18294</ele>
        <time>2022-08-11T16:01:03.000Z</time>
      </trkpt>
      <trkpt lat="45.83334" lon="4.70999">
        <ele>305.15771</ele>
        <time>2022-08-11T16:01:04.000Z</time>
      </trkpt>
      <trkpt lat="45.8333" lon="4.70998">
        <ele>305.13543</ele>
        <time>2022-08-11T16:01:05.000Z</time>
      </trkpt>
      <trkpt lat="45.83326" lon="4.70998">
        <ele>305.09532</ele>
        <time>2022-08-11T16:01:06.000Z</time>
      </trkpt>
      <trkpt lat="45.83323" lon="4.70998">
        <ele>305.04502</ele>
        <time>2022-08-11T16:01:07.000Z</time>
      </trkpt>
      <trkpt lat="45.83321" lon="4.70999">
        <ele>304.99555</ele>
        <time>2022-08-11T16:01:08.000Z</time>
      </trkpt>
      <trkpt lat="45.83317" lon="4.70999">
        <ele>304.94957</ele>
        <time>2022-08-11T16:01:09.000Z</time>
      </trkpt>
      <trkpt lat="45.83315" lon="4.70998">
        <ele>304.93772</ele>
        <time>2022-08-11T16:01:10.000Z</time>
      </trkpt>
      <trkpt lat="45.83313" lon="4.70996">
        <ele>304.97978</ele>
        <time>2022-08-11T16:01:11.000Z</time>
      </trkpt>
      <trkpt lat="45.83312" lon="4.7099">
        <ele>305.09651</ele>
        <time>2022-08-11T16:01:12.000Z</time>
      </trkpt>
      <trkpt lat="45.83312" lon="4.70984">
        <ele>305.2655</ele>
        <time>2022-08-11T16:01:13.000Z</time>
      </trkpt>
      <trkpt lat="45.83314" lon="4.70978">
        <ele>305.438</ele>
        <time>2022-08-11T16:01:14.000Z</time>
      </trkpt>
      <trkpt lat="45.83316" lon="4.70973">
        <ele>305.59883</ele>
        <time>2022-08-11T16:01:15.000Z</time>
      </trkpt>
      <trkpt lat="45.83317" lon="4.70967">
        <ele>305.77922</ele>
        <time>2022-08-11T16:01:16.000Z</time>
      </trkpt>
      <trkpt lat="45.83318" lon="4.70961">
        <ele>305.9607</ele>
        <time>2022-08-11T16:01:17.000Z</time>
      </trkpt>
      <trkpt lat="45.8332" lon="4.70955">
        <ele>306.07614</ele>
        <time>2022-08-11T16:01:18.000Z</time>
      </trkpt>
      <trkpt lat="45.83322" lon="4.70949">
        <ele>306.14812</ele>
        <time>2022-08-11T16:01:19.000Z</time>
      </trkpt>
      <trkpt lat="45.83325" lon="4.70942">
        <ele>306.17432</ele>
        <time>2022-08-11T16:01:20.000Z</time>
      </trkpt>
      <trkpt lat="45.83326" lon="4.70936">
        <ele>306.26378</ele>
        <time>2022-08-11T16:01:21.000Z</time>
      </trkpt>
      <trkpt lat="45.83327" lon="4.7093">
        <ele>306.31465</ele>
        <time>2022-08-11T16:01:22.000Z</time>
      </trkpt>
      <trkpt lat="45.83328" lon="4.70925">
        <ele>306.36069</ele>
        <time>2022-08-11T16:01:23.000Z</time>
      </trkpt>
      <trkpt lat="45.83326" lon="4.70922">
        <ele>306.4671</ele>
        <time>2022-08-11T16:01:24.000Z</time>
      </trkpt>
      <trkpt lat="45.83326" lon="4.70919">
        <ele>306.52969</ele>
        <time>2022-08-11T16:01:25.000Z</time>
      </trkpt>
      <trkpt lat="45.83324" lon="4.70917">
        <ele>306.63683</ele>
        <time>2022-08-11T16:01:26.000Z</time>
      </trkpt>
      <trkpt lat="45.83323" lon="4.70916">
        <ele>306.74919</ele>
        <time>2022-08-11T16:01:27.000Z</time>
      </trkpt>
      <trkpt lat="45.83321" lon="4.70917">
        <ele>306.85283</ele>
        <time>2022-08-11T16:01:30.000Z</time>
      </trkpt>
      <trkpt lat="45.83314" lon="4.7091">
        <ele>307.41401</ele>
        <time>2022-08-11T16:01:40.000Z</time>
      </trkpt>
      <trkpt lat="45.83311" lon="4.70909">
        <ele>307.6239</ele>
        <time>2022-08-11T16:01:42.000Z</time>
      </trkpt>
      <trkpt lat="45.83308" lon="4.70909">
        <ele>307.79107</ele>
        <time>2022-08-11T16:01:44.000Z</time>
      </trkpt>
      <trkpt lat="45.83306" lon="4.70908">
        <ele>307.93823</ele>
        <time>2022-08-11T16:01:47.000Z</time>
      </trkpt>
      <trkpt lat="45.83309" lon="4.70907">
        <ele>307.76607</ele>
        <time>2022-08-11T16:01:51.000Z</time>
      </trkpt>
      <trkpt lat="45.83311" lon="4.70907">
        <ele>307.6566</ele>
        <time>2022-08-11T16:01:53.000Z</time>
      </trkpt>
      <trkpt lat="45.83312" lon="4.70908">
        <ele>307.53504</ele>
        <time>2022-08-11T16:01:56.000Z</time>
      </trkpt>
      <trkpt lat="45.83314" lon="4.70908">
        <ele>307.42228</ele>
        <time>2022-08-11T16:02:03.000Z</time>
      </trkpt>
    </trkseg>
  </trk>
</gpx>